[[[{"header":{"parameterUnit":"kt","parameterCategory":2,"dx":1,"dy":1,"la1":29.285339999999998,"la2":30.599998999999997,"lo1":-89.70041500000002,"lo2":-87.6738589999976,"nx":112,"ny":82,"refTime":"2022-10-03T00:00:00:Z","depth":0,"parameterNumber":1,"parameterNumberName":"U-component_of_WINDS"},"data":[15.097,15.3915,15.4468,14.1335,14.0213,13.9299,12.7582,12.566,12.5853,12.401,12.3671,0.0,0.0,0.0,0.0,0.0,0.0,0.0,0.0,10.6896,0.0,0.0,0.0,0.0,0.0,0.0,13.6683,15.2194,15.003,15.2669,16.3541,16.4616,16.3109,15.9333,15.945,15.8339,15.5938,15.5913,15.5913,15.5913,15.5913,15.5913,15.5913,15.5913,15.5913,15.5913,15.5913,15.5913,15.5913,15.5913,15.5913,15.5913,15.5913,15.6356,15.7217,15.8675,16.201,16.6086,16.8317,16.9088,16.9088,16.9088,16.9088,16.9088,16.9088,16.9088,16.9088,16.9088,16.9088,16.9088,16.9088,16.9088,16.8874,16.782,16.8391,16.8588,16.6519,16.5251,16.4181,16.3166,16.1256,15.9971,16.0526,16.059,16.0971,16.1955,16.297,16.3613,16.3599,16.3631,16.2995,16.1463,16.1304,16.1534,16.2098,16.259,16.224,16.0725,16.0653,16.0336,15.9773,15.9773,15.9773,15.9773,15.9773,15.9773,15.9773,15.9773,15.9773,15.9773,15.9773,15.9773,14.462,14.8053,14.908,13.4139,13.3209,13.3269,12.2521,12.0367,12.0314,11.918,0.0,0.0,0.0,0.0,0.0,0.0,0.0,0.0,0.0,0.0,0.0,0.0,0.0,0.0,0.0,0.0,14.1192,15.1327,14.9961,15.2751,16.2259,16.3375,16.2003,15.8209,15.9121,15.8453,15.5938,15.5913,15.5913,15.5913,15.5913,15.5913,15.5913,15.5913,15.5913,15.5913,15.5913,15.5913,15.5913,15.5913,15.5913,15.5913,15.5913,15.6365,15.7256,15.9512,16.2642,16.6024,16.7472,16.8511,16.9088,16.9088,16.9088,16.9088,16.9088,16.9088,16.9088,16.9088,16.9088,16.9088,16.9088,16.9088,16.8731,16.7123,16.7963,16.8231,16.5109,16.4466,16.3983,16.239,16.0875,15.9773,15.9773,16.0653,16.1685,16.277,16.3779,16.4431,16.4431,16.4009,16.3461,16.2968,16.1939,16.1748,16.2781,16.2429,16.1691,16.0613,16.0058,15.9773,15.9773,15.9773,15.9773,15.9773,15.9773,15.9773,15.9773,15.9773,15.9773,15.9773,15.9773,15.9773,13.8189,13.8706,13.944,12.6338,12.4289,12.4122,11.9123,11.8754,11.9158,0.0,0.0,0.0,0.0,0.0,0.0,0.0,0.0,0.0,0.0,0.0,0.0,0.0,0.0,0.0,14.036,13.6752,13.7777,14.6068,14.404,14.6738,15.6458,15.9781,15.9636,15.6011,15.5913,15.5913,15.5913,15.5913,15.5913,15.5913,15.5913,15.5913,15.5913,15.5913,15.5913,15.5913,15.5913,15.5913,15.5913,15.5913,15.5938,15.6003,15.6003,15.7391,15.9664,16.1791,16.4023,16.5875,16.5887,16.7305,16.9088,16.9088,16.9088,16.9088,16.9088,16.9088,16.9088,16.9088,16.9088,16.9088,16.9088,16.9016,16.8588,16.7052,16.7891,16.816,16.5021,16.4395,16.4032,16.2511,16.0971,15.9932,15.9932,16.2487,16.4528,16.4519,16.4544,16.4544,16.4544,16.3168,16.285,16.4189,16.1688,16.1177,16.4217,16.3056,16.219,16.2222,16.0685,15.9773,15.9773,15.9773,15.9773,15.9773,15.9773,15.9773,15.9773,15.9773,15.9773,15.9773,15.9773,15.9773,12.8605,13.0998,13.3809,12.5857,12.5465,12.6207,12.291,11.825,0.0,0.0,11.8219,0.0,0.0,0.0,0.0,0.0,0.0,12.4438,12.1739,12.6851,0.0,0.0,13.5774,13.8862,14.7089,14.4812,14.7041,15.7236,15.0608,14.9783,15.8097,15.7871,15.6957,15.5938,15.5913,15.5913,15.5913,15.5913,15.5913,15.5913,15.5913,15.5913,15.5913,15.5913,15.5913,15.5913,15.5913,15.5913,15.5913,15.5913,15.6883,15.8281,15.8281,16.0634,16.4046,16.4703,16.6302,16.8177,16.818,16.8632,16.9088,16.9088,16.9088,16.9088,16.9088,16.9088,16.9088,16.9088,16.8319,16.7677,16.8802,16.7447,16.5608,16.518,16.5394,16.5186,16.3173,16.3659,16.4314,16.3861,16.3472,16.3154,16.3154,16.4827,16.6118,16.6131,16.7141,16.746,16.6328,16.5763,16.4795,16.2984,16.2993,16.3542,16.436,16.4087,16.3808,16.3808,16.1256,15.9773,15.9773,15.9773,15.9773,15.9773,15.9773,15.9773,15.9773,15.9773,15.9773,15.9773,15.9773,15.9773,0.0,0.0,0.0,0.0,0.0,0.0,12.24,0.0,11.5519,11.8492,0.0,0.0,0.0,0.0,0.0,0.0,12.6734,13.1372,12.8862,13.4158,13.9212,14.1771,14.4874,14.8102,15.1559,14.9599,15.1102,15.8291,15.1832,15.0545,15.7432,15.6609,15.5913,15.5913,15.5913,15.5913,15.5913,15.5913,15.5913,15.5913,15.5913,15.5913,15.5913,15.5913,15.5913,15.5913,15.5913,15.5913,15.6003,15.6883,15.8034,15.9292,16.0272,16.3295,16.7206,16.7206,16.7967,16.9088,16.9088,16.9088,16.9088,16.9088,16.9088,16.9088,16.9088,16.9088,16.9088,16.9088,16.8445,16.7963,16.8874,16.7803,16.6108,16.4752,16.5476,16.5619,16.2712,16.3885,16.507,16.3746,16.4,16.4652,16.5288,16.6168,16.6806,16.6806,16.7548,16.7598,16.6013,16.5224,16.434,16.3265,16.2701,16.301,16.4366,16.3857,16.3451,16.3451,16.1755,16.0471,15.9829,15.9773,15.9773,15.9773,15.9773,15.9773,15.9773,15.9773,15.9773,15.9773,15.9773,15.9773,0.0,0.0,0.0,0.0,12.4467,0.0,0.0,0.0,11.829,11.8492,0.0,11.8195,11.8706,0.0,0.0,12.3368,13.193,13.7995,13.6055,13.8491,14.1943,14.5818,15.6024,16.0156,15.3791,15.2118,15.2144,15.3901,15.0586,15.0635,15.5642,15.5913,15.5913,15.5913,15.5913,15.5913,15.5913,15.5913,15.5913,15.5913,15.5913,15.5913,15.5913,15.5913,15.5913,15.5913,15.5913,15.5913,15.6028,15.8009,15.9101,15.9751,16.1726,16.52,16.9054,16.8851,16.8902,16.9088,16.9088,16.9088,16.9088,16.9088,16.9088,16.9088,16.9088,16.9088,16.9088,16.9088,16.8945,16.8874,16.9088,16.8731,16.7732,16.5323,16.6541,16.726,16.3281,16.4577,16.5697,16.2913,16.3499,16.4854,16.6056,16.6517,16.6802,16.6802,16.6944,16.6529,16.4911,16.3343,16.2836,16.4058,16.1676,16.1184,16.3967,16.3095,16.231,16.2151,16.208,16.1382,15.9844,15.9773,15.9773,15.9773,15.9773,15.9773,15.9773,15.9773,15.9773,15.9773,15.9773,15.9773,0.0,0.0,0.0,0.0,0.0,11.8671,0.0,0.0,0.0,13.7397,13.7696,13.7125,14.0906,14.0278,14.0349,14.3817,14.9468,15.1893,14.7741,15.2686,15.6495,15.5559,15.6027,15.5281,15.2219,15.3754,15.5075,15.5436,15.4748,15.4764,15.5847,15.5913,15.5913,15.5913,15.5913,15.5913,15.5913,15.5913,15.5913,15.5913,15.5913,15.5913,15.5913,15.5913,15.5913,15.5913,15.5913,15.5913,15.5938,15.6365,15.863,16.1912,16.2372,16.52,16.8902,16.7135,16.7615,16.9088,16.9088,16.9088,16.9088,16.9088,16.9088,16.9088,16.9088,16.9088,16.9088,16.9088,16.816,16.7535,16.8802,16.6289,16.3951,16.5893,16.4856,16.3555,16.3957,16.4483,16.4745,16.4101,16.4226,16.4131,16.3161,16.5129,16.6772,16.6772,16.7876,16.8085,16.6539,16.5002,16.3659,16.2627,16.2024,16.1882,16.2508,16.3451,16.3451,16.2222,16.208,16.1382,15.9844,15.9773,15.9773,15.9773,15.9773,15.9773,15.9773,15.9773,15.9773,15.9773,15.9773,15.9773,0.0,0.0,0.0,11.5288,0.0,0.0,0.0,12.1414,12.4081,13.5127,13.6126,13.721,14.4274,14.5558,14.6343,14.8683,15.5104,15.9527,15.8671,16.2441,16.347,15.861,15.7731,15.6294,15.3008,15.3968,15.5125,15.5847,15.5913,15.5913,15.5913,15.5913,15.5913,15.5913,15.5913,15.5913,15.5913,15.5913,15.5913,15.5913,15.5913,15.5913,15.5913,15.5913,15.5913,15.5913,15.5913,15.5913,15.5945,15.7118,15.8834,16.0962,16.2109,16.4513,16.7438,16.7438,16.8177,16.9088,16.9088,16.9088,16.9088,16.9088,16.9088,16.9088,16.9088,16.9088,16.8945,16.8177,16.6821,16.5822,16.659,16.5021,16.3451,16.4236,16.3857,16.3247,16.3302,16.3908,16.4204,16.3447,16.327,16.3304,16.3281,16.3908,16.4691,16.5515,16.6937,16.6805,16.3693,16.3993,16.3539,16.1168,16.0954,16.124,16.208,16.2096,16.2112,16.208,16.1382,16.0613,15.9844,15.9773,15.9773,15.9773,15.9773,15.9773,15.9773,15.9773,15.9773,15.9773,15.9773,15.9773,0.0,0.0,0.0,0.0,0.0,0.0,11.7093,11.9677,12.4426,13.4499,13.6853,13.9422,14.7271,15.0553,15.2194,15.2479,15.8671,16.4236,16.6481,16.7732,16.5986,15.9222,15.9192,15.8205,15.4507,15.4198,15.4674,15.5823,15.5913,15.5913,15.5913,15.5913,15.5913,15.5913,15.5913,15.5913,15.5913,15.5913,15.5913,15.5913,15.5913,15.5913,15.5913,15.5913,15.5913,15.5913,15.5913,15.5913,15.6019,15.7836,15.8811,15.931,16.068,16.3071,16.5936,16.7314,16.8404,16.9088,16.9088,16.9088,16.9088,16.9088,16.8874,16.8731,16.9016,16.8659,16.8089,16.7392,16.6108,16.4823,16.4538,16.4252,16.3737,16.2809,16.3318,16.3843,16.3193,16.3779,16.4055,16.2804,16.231,16.2602,16.4195,16.3415,16.3085,16.4675,16.6255,16.5839,16.2112,16.3539,16.3824,16.0986,16.0399,16.0899,16.2452,16.0827,16.0613,16.2452,16.0827,15.9773,15.9773,15.9773,15.9773,15.9773,15.9773,15.9773,15.9773,15.9773,15.9773,15.9773,15.9773,15.9773,0.0,0.0,0.0,11.3172,11.1339,0.0,13.4147,13.7396,14.1263,15.8988,16.3753,16.5449,16.7891,16.7447,16.7233,16.8605,16.8517,16.7946,16.6909,16.6412,16.4647,16.045,15.8346,15.6859,15.5787,15.5691,15.5733,15.5847,15.5913,15.5913,15.5913,15.5913,15.5913,15.5913,15.5913,15.5913,15.5913,15.5913,15.5913,15.5913,15.5913,15.5913,15.5913,15.5913,15.5913,15.5913,15.5913,15.5913,15.5938,15.6165,15.7455,15.9061,15.729,16.0375,16.5599,16.3884,16.5744,16.9088,16.9088,16.9088,16.9088,16.9088,16.8177,16.7337,16.8659,16.7161,16.5537,16.8089,16.7749,16.6195,16.4823,16.338,16.265,16.3879,16.3253,16.3111,16.5712,16.5328,16.4407,16.4252,16.3095,16.265,16.4158,16.434,16.4735,16.6322,16.7875,16.8659,16.816,16.7178,16.5839,16.411,16.2666,16.2524,16.4038,16.147,16.1058,16.4038,16.1398,15.9773,15.9773,15.9773,15.9773,15.9773,15.9773,15.9773,15.9773,15.9773,15.9773,15.9773,15.9773,15.9773,0.0,0.0,10.845,10.7985,0.0,0.0,12.7962,13.466,14.2676,15.699,16.1184,16.3879,16.9159,16.9587,16.9302,17.0015,17.0317,16.9961,16.8391,16.8671,16.7246,16.2121,16.0729,15.9015,15.6165,15.5913,15.6242,15.7056,15.6373,15.6242,15.7122,15.6308,15.5913,15.5913,15.5913,15.5913,15.5913,15.5913,15.5913,15.5913,15.5913,15.5913,15.5913,15.5913,15.5913,15.5913,15.5913,15.5913,15.5913,15.5913,15.644,15.7313,15.7672,15.9512,16.2145,16.3864,16.4746,16.5429,16.6739,16.6321,16.5447,16.6757,16.6129,16.5209,16.7145,16.7463,16.6876,16.5449,16.5893,16.5981,16.2611,16.2611,16.3166,16.1969,16.2611,16.3594,16.3951,16.3561,16.36,16.5465,16.4538,16.3951,16.5537,16.5839,16.6053,16.6695,16.889,16.9444,16.6733,16.7463,16.7178,16.4752,16.4681,16.4752,16.4466,16.4038,16.361,16.3095,16.1882,16.0756,15.9844,15.9773,15.9773,15.9773,15.9773,15.9773,15.9773,15.9773,15.9773,15.9773,15.9773,15.9773,9.8431,0.0,0.0,0.0,0.0,0.0,12.9507,13.7054,14.5544,15.6134,15.9615,16.2381,16.8089,16.9088,16.9088,16.9088,17.0443,17.0888,16.9302,16.9947,16.8795,16.3958,16.2293,16.0314,15.7128,15.6252,15.6308,15.7385,15.6464,15.6308,15.7385,15.6439,15.5913,15.5913,15.5913,15.5913,15.5913,15.5913,15.5913,15.5913,15.5913,15.5913,15.5913,15.5913,15.5913,15.5913,15.5913,15.5913,15.5913,15.5913,15.5913,15.6043,15.7648,15.8651,15.9691,16.3524,16.3646,16.2275,16.4876,16.3839,16.182,16.4585,16.4036,16.2796,16.5578,16.683,16.6733,16.4648,16.4735,16.5109,16.3396,16.4038,16.4395,16.1684,16.2825,16.4236,16.3523,16.2916,16.3499,16.6793,16.6179,16.5608,16.7178,16.7052,16.6909,16.7337,16.9318,16.9604,16.6162,16.7732,16.7946,16.4752,16.625,16.6964,16.5806,16.5965,16.5537,16.4165,16.2452,16.097,15.9844,15.9773,15.9773,15.9773,15.9773,15.9773,15.9773,15.9773,15.9773,15.9773,15.9773,15.9773,0.0,0.0,0.0,12.1878,12.4032,12.8545,14.9376,15.3208,15.5048,16.4483,16.7677,16.8874,16.9088,16.9088,16.9088,16.9088,17.0443,17.0888,16.9302,16.8632,16.7637,16.5917,16.1938,15.9238,15.9082,15.717,15.5913,15.5979,15.5913,15.5913,15.5979,15.5913,15.5913,15.5913,15.5913,15.5913,15.5913,15.5913,15.5913,15.5913,15.5913,15.5913,15.5913,15.5913,15.5913,15.5913,15.5913,15.5913,15.5913,15.5913,15.5913,15.5913,15.6011,15.7313,15.9468,16.1794,16.1685,16.0976,16.4565,16.2525,15.906,16.3296,16.2148,15.9981,16.4327,16.4096,16.3221,16.7661,16.5663,16.3594,16.9532,16.8907,16.6338,16.4681,16.4395,16.4823,16.6338,16.498,16.4566,16.8322,16.7749,16.7194,16.8802,16.782,16.7337,16.8802,16.9088,16.9159,16.9016,16.9088,16.7946,16.4752,16.7233,16.9016,16.8945,16.6234,16.5751,16.8731,16.3182,15.9844,15.9773,15.9773,15.9773,15.9773,15.9773,15.9773,15.9773,15.9773,15.9773,15.9773,15.9773,15.9773,10.404,11.0293,11.7514,12.5206,13.11,13.7399,14.6701,15.3264,15.8917,16.4181,16.6464,16.7891,16.8945,16.9088,16.9088,16.9088,17.0443,17.0888,16.9302,16.9843,16.9209,16.6216,16.4486,16.2395,15.9492,15.8524,15.7859,15.7319,15.6456,15.6274,15.7244,15.6431,15.5913,15.5913,15.5913,15.5913,15.5913,15.5913,15.5913,15.5913,15.5913,15.5913,15.5913,15.5913,15.5913,15.5913,15.5913,15.5913,15.5913,15.5913,15.5913,15.5913,15.5913,15.5791,15.5871,15.8073,15.7039,15.5227,15.9818,15.9347,15.771,16.4092,16.3902,16.2028,16.6586,16.6657,16.5323,16.5893,16.6376,16.6733,16.6821,16.7535,16.7963,16.6393,16.5696,16.5617,16.6588,16.621,16.6382,16.8684,16.782,16.7249,16.8874,16.9532,16.9675,16.9159,17.0015,17.03,16.923,16.9088,16.8303,16.6179,16.8819,16.8945,16.4807,16.8286,16.8445,16.3253,16.3824,16.3056,15.9916,15.9773,15.9773,15.9773,15.9773,15.9773,15.9773,15.9773,15.9773,15.9773,15.9773,15.9773,10.8966,11.4881,12.1124,13.0921,13.7596,14.3204,14.8612,15.4977,16.0701,16.3824,16.5696,16.7266,16.8802,16.9088,16.9088,16.9088,16.9944,17.0229,16.923,16.9944,16.975,16.7284,16.6302,16.4664,16.1822,16.0108,15.9015,15.848,15.6883,15.6274,15.722,15.6365,15.5913,15.5913,15.5913,15.5913,15.5913,15.5913,15.5913,15.5913,15.5913,15.5913,15.5913,15.5913,15.5913,15.5913,15.5913,15.5913,15.5913,15.5913,15.5913,15.5847,15.5321,15.4574,15.4033,15.6276,15.4767,15.2439,15.8063,15.8348,15.7311,16.3046,16.3967,16.3307,16.6179,16.6925,16.6695,16.6234,16.7178,16.816,16.7875,16.8017,16.8319,16.8408,16.8144,16.7809,16.764,16.6959,16.697,16.8739,16.8303,16.7963,16.8945,16.9944,17.0229,16.9302,16.9944,17.0246,16.923,16.9088,16.8517,16.698,16.9604,16.9818,16.5806,17.0086,17.0158,16.3539,16.4895,16.4126,15.9987,15.9773,15.9773,15.9773,15.9773,15.9773,15.9773,15.9773,15.9773,15.9773,15.9773,15.9773,11.2025,11.6603,12.172,13.9254,14.3575,14.5929,15.5191,15.8473,16.0471,16.3682,16.5537,16.7123,16.8731,16.9088,16.9088,16.9088,16.9088,16.9088,16.9016,16.9088,16.9088,16.9016,16.718,16.5943,16.5808,16.2014,15.9444,15.9251,15.7244,15.6003,15.5913,15.5913,15.5913,15.5913,15.5913,15.5913,15.5913,15.5913,15.5913,15.5913,15.5913,15.5913,15.5913,15.5913,15.5913,15.5913,15.5913,15.5913,15.5913,15.5913,15.5913,15.5782,15.4311,15.3792,15.4069,15.612,15.466,15.2661,15.9052,15.9603,15.7847,16.0614,16.2572,16.3826,16.3645,16.5068,16.7123,16.8659,16.8034,16.7979,17.2495,17.0443,16.7908,17.0745,17.1459,17.0997,16.9326,16.7438,16.67,16.8749,16.9088,16.9088,16.9088,16.9088,16.9088,16.9088,16.9088,16.9088,16.9088,16.9088,16.8517,16.698,16.9407,17.1174,17.1102,17.1316,17.0745,16.8945,16.6234,16.3253,16.0058,15.9844,15.9773,15.9773,15.9773,15.9773,15.9773,15.9773,15.9773,15.9773,15.9773,15.9773,12.0178,12.9709,13.6277,14.6031,14.7613,14.8341,15.435,15.5991,15.7561,16.181,16.3967,16.5537,16.7123,16.8319,16.9088,16.9088,16.9088,16.871,16.7574,16.8386,16.8676,16.7513,16.7884,16.7648,16.5982,16.4836,16.2765,15.9439,15.8643,15.7672,15.6003,15.5913,15.5913,15.5913,15.5913,15.5913,15.5913,15.5913,15.5913,15.5913,15.5913,15.5913,15.5913,15.5913,15.5913,15.5913,15.5913,15.5913,15.5913,15.5913,15.5913,15.5782,15.4311,15.405,15.4444,15.3905,15.3442,15.3745,15.8768,16.0024,16.018,16.473,16.654,16.6956,16.7491,16.722,16.7123,16.8659,16.8802,16.9016,17.1459,17.2013,17.1941,17.153,17.1459,17.06,16.7345,16.8412,16.9841,16.9217,16.9088,16.9088,16.9088,16.9088,16.9088,16.9088,16.9088,16.9088,16.9088,16.9088,16.8517,16.698,16.748,16.7463,16.6322,16.9461,16.9746,16.5893,16.709,16.602,16.1739,16.0399,15.9773,15.9773,15.9773,15.9773,15.9773,15.9773,15.9773,15.9773,15.9773,15.9773,11.6487,12.8417,13.9216,14.7202,14.854,14.8983,15.3137,15.4635,15.6419,16.1168,16.2238,16.3111,16.5323,16.7052,16.8336,16.9016,16.9088,16.855,16.697,16.8084,16.8534,16.6959,16.8193,16.827,16.6017,16.5789,16.3922,15.9557,15.9193,15.8223,15.6036,15.5913,15.5913,15.5913,15.5913,15.5913,15.5913,15.5913,15.5913,15.5913,15.5913,15.5913,15.5913,15.5913,15.5913,15.5913,15.5913,15.5913,15.5913,15.5913,15.6085,15.6203,15.4741,15.458,15.507,15.4228,15.4168,15.5074,15.8797,16.0732,16.1948,16.419,16.6495,16.8305,16.7342,16.7375,16.7963,16.8874,16.9088,16.9302,17.0229,17.1085,17.1496,17.0657,17.0959,17.0686,16.7863,16.8957,17.0158,16.9302,16.9088,16.9302,17.0015,16.9587,16.9373,17.0015,16.9587,16.9088,16.9088,16.9088,16.8802,16.7891,16.782,16.7749,16.7535,16.9961,17.0032,16.6662,16.816,16.7019,16.2294,16.1311,16.0471,15.9773,15.9773,15.9773,15.9773,15.9773,15.9773,15.9773,15.9773,15.9773,11.0985,12.2975,13.7114,14.573,14.8055,14.8983,15.1837,15.3708,15.6062,16.0597,16.0613,16.0629,16.3325,16.5443,16.7228,16.8571,16.8999,16.8517,16.6695,16.782,16.8248,16.6657,16.7875,16.7987,16.5992,16.608,16.4434,15.9961,15.9897,15.9134,15.6885,15.6488,15.636,15.636,15.6043,15.5913,15.5913,15.5913,15.5913,15.5913,15.5913,15.5913,15.5938,15.6214,15.619,15.5847,15.5716,15.5912,15.6294,15.5874,15.6399,15.7128,15.5508,15.5338,15.6117,15.5911,15.6017,15.6665,15.9559,16.1917,16.3361,16.1899,16.4926,16.8517,16.5394,16.659,16.9088,16.9088,16.9088,16.9159,16.9373,16.9302,16.9159,16.9373,17.0317,17.0745,16.9373,16.9088,16.9088,16.9088,16.9088,16.9587,17.1174,17.0514,17.0158,17.1245,17.0317,16.9444,16.9444,16.923,16.9088,16.9088,16.8945,16.9373,17.0674,17.1031,17.046,16.8874,16.9016,16.7161,16.2952,16.2294,16.1382,15.9844,15.9773,15.9773,15.9773,15.9773,15.9773,15.9773,15.9773,15.9773,12.6728,13.5145,14.1967,14.6731,14.8897,15.0024,15.0594,15.1965,15.412,15.753,15.9044,15.9916,16.0471,16.4016,16.6909,16.7104,16.8273,16.816,16.5251,16.6212,16.6624,16.5048,16.6248,16.6854,16.589,16.7488,16.6709,16.2272,16.363,16.3689,16.1506,15.9624,15.8605,15.8605,15.6855,15.5913,15.5913,15.5913,15.5913,15.5913,15.5913,15.5913,15.5921,15.7812,15.7601,15.5847,15.4639,15.5801,15.8471,15.5965,15.6803,15.9363,15.6581,15.6637,15.8154,15.6951,15.7614,15.9489,16.2594,16.3933,16.4201,16.3971,16.6253,16.8517,16.5394,16.659,16.9088,16.9088,16.9088,16.9373,17.0745,17.0086,16.9444,17.0745,17.0229,16.9444,16.9159,16.9088,16.9088,16.9088,16.9088,16.9587,17.1174,17.2298,17.2638,17.1602,17.1245,17.1031,17.1031,16.9944,16.9088,16.9088,16.7963,16.7249,16.7551,16.8748,16.8802,16.7249,16.8374,16.816,16.6053,16.3523,16.1382,15.9844,15.9773,15.9773,15.9773,15.9773,15.9773,15.9773,15.9773,15.9773,12.2529,13.1716,14.0028,14.245,14.6114,14.904,14.904,15.0324,15.2107,15.4549,15.5619,15.6919,15.9345,16.2296,16.4866,16.6508,16.811,16.7984,16.4867,16.5816,16.6223,16.4615,16.5861,16.6548,16.583,16.7826,16.6801,16.124,16.3877,16.4303,16.0965,15.9803,15.9175,15.9175,15.7071,15.644,15.7601,15.6464,15.7071,15.9355,15.8142,15.8211,15.94,16.0419,15.988,15.803,15.6548,15.6849,15.836,15.6977,15.76,15.9327,15.7868,15.8114,15.9246,15.8572,15.8922,15.9987,16.147,16.204,16.2183,16.2952,16.4807,16.6519,16.5893,16.7321,16.9088,16.9088,16.9088,16.9302,17.0015,16.9658,16.9302,17.0015,16.9658,16.9088,16.9088,16.9088,16.9088,16.9088,16.9088,16.9373,17.0086,17.1513,17.2583,17.2655,17.2655,17.2655,17.2655,17.1299,17.03,17.03,16.8962,16.7677,16.6838,16.8248,16.8445,16.6909,16.8248,16.8017,16.5679,16.411,16.2952,16.2255,16.0629,15.9773,15.9773,15.9773,15.9773,15.9773,15.9773,15.9773,11.888,12.8159,13.8059,14.0006,14.3001,14.5772,14.7128,14.8112,14.931,15.1338,15.1766,15.3065,15.7465,15.9819,16.2153,16.5284,16.7073,16.7275,16.479,16.518,16.5311,16.4077,16.5317,16.6009,16.5372,16.7643,16.678,16.1076,16.4298,16.4977,16.1493,16.0897,16.0397,15.989,15.7765,15.7195,15.8511,15.7219,15.8193,16.1293,16.037,16.0606,16.1995,16.2535,16.1888,16.0259,15.8271,15.7829,15.8473,15.7852,15.8322,15.9479,15.9127,15.9351,15.9844,16.0114,16.0058,15.9916,16.0558,16.0542,16.0542,16.2096,16.3665,16.518,16.6409,16.7891,16.9088,16.9088,16.9088,16.9088,16.9088,16.9088,16.9088,16.9088,16.9088,16.9088,16.9088,16.9088,16.9088,16.9088,16.9088,16.923,16.9587,17.0389,17.1727,17.3922,17.4278,17.4136,17.385,17.2441,17.1316,17.0959,16.9872,16.8445,16.6909,16.8248,16.8445,16.6909,16.8248,16.8017,16.5537,16.4823,16.4324,16.3951,16.1184,15.9773,15.9773,15.9773,15.9773,15.9773,15.9773,15.9773,13.0773,13.5963,14.1104,14.5467,14.19,13.878,14.4545,14.4845,14.4788,14.777,14.8341,14.9384,15.2833,15.5843,15.8888,16.2024,16.3836,16.4774,16.4452,16.3349,16.2498,16.2368,16.37,16.4399,16.3737,16.6961,16.7987,16.541,16.7421,16.8627,16.8212,16.6284,16.4298,16.2297,16.0091,15.8002,15.6239,15.7956,15.8411,15.74,16.0644,16.1562,16.0433,16.2443,16.2577,16.0856,15.7376,15.7767,16.0616,15.7886,15.8736,16.1694,16.023,15.9701,15.9971,16.1382,16.1042,16.0201,16.3039,16.3095,16.2167,16.3753,16.5251,16.6624,16.6766,16.7891,16.9088,16.9088,16.9088,16.9088,16.9088,16.9088,16.9088,16.9088,16.9088,16.9088,16.9088,16.9088,16.9088,16.9088,16.9088,16.9587,17.0959,17.0158,17.08,17.5223,17.5865,17.5366,17.3922,17.2441,17.0888,16.9516,16.9159,16.8445,16.6909,16.8248,16.8445,16.6909,16.8248,16.9016,16.8731,16.5948,16.3808,16.2365,16.0685,15.9773,15.9773,15.9773,15.9773,15.9773,15.9773,15.9773,11.9899,12.4956,12.9994,13.2344,13.5324,13.8338,14.0821,14.0906,14.162,14.5686,14.7256,14.8641,15.0827,15.4686,15.8185,16.0328,16.2825,16.4126,16.3133,16.2517,16.2144,16.2154,16.3518,16.4707,16.538,16.7667,16.8194,16.6006,16.7844,16.8541,16.7206,16.6284,16.541,16.4513,16.2332,16.0767,15.9892,16.0745,16.1536,16.2254,16.3804,16.3434,16.1397,16.3247,16.3221,16.1611,16.0181,15.9862,16.0261,15.9073,15.943,16.0613,16.0043,15.9773,15.9844,16.0471,16.0328,15.9987,16.12,16.1256,16.1113,16.361,16.4895,16.5751,16.7606,16.8588,16.9088,16.9088,16.9088,16.9088,16.9088,16.9088,16.9088,16.9088,16.9088,16.9088,16.9088,16.9088,16.9088,16.9088,16.9088,16.9302,16.9944,16.9516,17.0086,17.2886,17.4082,17.4849,17.5152,17.3796,17.2227,17.0674,16.9658,16.8445,16.6909,16.8248,16.8445,16.6909,16.8248,16.9088,16.9088,16.7035,16.5109,16.3523,16.1953,16.1168,16.1168,16.1168,16.1168,16.1168,16.1168,16.0685,11.3024,11.6976,12.155,12.3971,12.9207,13.4472,13.7268,13.7196,13.8124,14.376,14.5401,14.6471,14.8525,15.2378,15.596,15.806,16.105,16.2844,16.2241,16.1709,16.1423,16.1451,16.2816,16.4395,16.5965,16.7535,16.7992,16.6902,16.8229,16.8455,16.6866,16.6793,16.6468,16.5805,16.4298,16.3201,16.2477,16.3181,16.3772,16.4435,16.5534,16.4925,16.2809,16.3451,16.2881,16.1382,16.1382,16.0827,15.9773,15.9773,15.9773,15.9773,15.9773,15.9773,15.9844,16.0328,16.0185,15.9844,16.0328,16.0185,16.0257,16.2897,16.4093,16.4966,16.7589,16.8731,16.9088,16.9088,16.9088,16.9088,16.9088,16.9088,16.9088,16.9088,16.9088,16.9088,16.9088,16.9088,16.9088,16.9088,16.9088,16.9088,16.9088,16.9088,16.9658,17.1245,17.2797,17.435,17.5937,17.5134,17.3725,17.1673,17.0871,16.9658,16.7606,16.8874,16.9176,16.7606,16.8517,16.9088,16.9088,16.7606,16.6267,16.518,16.3594,16.2809,16.2809,16.2809,16.2579,16.208,16.208,16.1311,11.6124,11.6785,11.9512,12.5719,12.4728,12.4699,13.4142,13.387,13.3883,14.1648,14.2062,14.1905,14.503,14.8169,15.1379,15.4635,15.7775,16.0336,16.1867,16.0741,15.9773,15.9829,16.1168,16.2738,16.4307,16.5893,16.7463,16.8983,16.9071,16.9142,16.9054,16.9054,16.809,16.5861,16.5768,16.4708,16.2546,16.4669,16.4206,16.126,16.4967,16.5965,16.4395,16.2809,16.1311,15.9773,15.9773,15.9773,15.9773,15.9773,15.9773,15.9773,15.9773,15.9773,15.9987,16.1525,16.1097,15.9971,16.1525,16.1097,16.0043,16.1596,16.3166,16.4752,16.6338,16.7891,16.9088,16.9088,16.9088,16.9088,16.9088,16.9088,16.9088,16.9088,16.9088,16.9088,16.9088,16.9088,16.9088,16.9088,16.9088,16.9088,16.9088,16.9088,16.9658,17.1245,17.2797,17.435,17.5937,17.6079,17.4866,17.1744,17.2797,17.2495,16.9356,17.0531,17.0745,16.9159,16.9088,16.9088,16.9088,16.7606,16.6766,16.6766,16.5251,16.4466,16.4466,16.4466,16.3594,16.208,16.208,16.1311,11.0148,11.2884,11.6481,12.1131,12.3443,12.6403,13.3113,13.4713,13.5796,13.9337,13.968,14.0264,14.3418,14.7384,15.1349,15.4599,15.6856,15.8703,16.0281,16.009,15.9773,15.9773,16.1168,16.2738,16.4324,16.5839,16.7392,16.9016,16.9088,16.9088,16.9088,16.9088,16.8834,16.8107,16.809,16.7045,16.4766,16.6938,16.6819,16.4331,16.4879,16.3824,16.1256,16.0756,16.0257,15.9773,15.9773,15.9773,15.9773,15.9773,15.9773,15.9773,15.9773,15.9773,15.9844,16.0328,16.0185,15.9844,16.0328,16.0185,16.0185,16.2881,16.3309,16.3523,16.7233,16.7963,16.7749,16.8802,16.9088,16.9088,16.9088,16.9088,16.9373,17.046,16.9872,16.9373,17.046,17.0745,17.0372,16.9302,17.0871,17.1639,16.9516,17.0015,17.0531,16.9944,17.2067,17.3922,17.4492,17.5437,17.5723,17.4724,17.4136,17.3351,17.2424,17.1799,17.1245,17.0745,17.1727,17.187,17.0745,17.0246,16.8978,16.6838,16.6267,16.5537,16.4466,16.4466,16.3665,16.2151,16.3237,16.3451,10.8802,11.1697,11.4501,11.9589,12.1836,12.4562,13.1135,13.1594,13.1574,13.5337,13.5362,13.6001,14.0303,14.6131,15.0707,15.2174,15.5231,15.8005,15.9559,15.9773,15.9971,16.0582,16.1026,16.2096,16.4252,16.5323,16.6821,16.8945,16.9088,16.9088,16.9088,16.9088,16.9088,16.9088,16.9088,16.8472,16.7046,16.8455,16.81,16.6128,16.4419,16.2524,16.0613,16.0043,15.9773,15.9773,15.9773,15.9773,15.9773,15.9773,15.9773,15.9773,15.9773,15.9773,15.9773,15.9773,15.9773,15.9773,15.9773,15.9773,16.013,16.204,16.2825,16.3451,16.5806,16.7019,16.7749,16.8105,16.8659,16.9088,16.9088,16.9088,16.9373,17.03,16.9801,16.9373,17.0389,17.0603,17.03,16.9302,17.0728,17.1354,16.9444,17.0389,17.1102,17.0158,17.2655,17.4635,17.4635,17.6008,17.7024,17.7024,17.558,17.4421,17.385,17.344,17.294,17.2369,17.3208,17.3066,17.153,17.1459,17.0246,16.7677,16.7677,16.7178,16.6234,16.5608,16.4538,16.3023,16.338,16.3237,11.0286,11.2173,11.3522,12.0372,12.044,12.0848,12.869,12.5741,12.3215,12.993,12.9528,12.9781,13.5654,14.3602,14.9128,14.837,15.3254,15.771,15.9519,15.9844,16.0455,16.196,16.0796,16.1113,16.4038,16.4395,16.5663,16.8731,16.9088,16.9088,16.9088,16.9088,16.9088,16.9088,16.9088,16.9088,16.9088,16.9016,16.8177,16.6552,16.3523,16.208,16.1882,16.0471,15.9773,15.9773,15.99,15.9916,15.9773,15.99,15.9916,15.9773,15.9773,15.9773,15.9773,15.9773,15.9773,15.9773,15.9773,15.9773,15.9773,15.9916,16.1898,16.4038,16.2809,16.5449,16.8517,16.7249,16.7891,16.8945,16.9088,16.9088,16.9159,16.923,16.9159,16.9159,16.923,16.9302,16.923,16.9159,16.9285,16.9444,16.9302,17.0586,17.1602,17.1602,17.4153,17.6079,17.6079,17.7453,17.8451,17.8451,17.7167,17.5723,17.4278,17.5437,17.5651,17.4207,17.3993,17.3297,17.1673,17.1388,17.0531,16.8945,16.8874,16.8731,16.8588,16.7178,16.5625,16.411,16.2738,16.1382,10.2585,10.7345,11.2311,11.7438,12.2567,12.6727,12.8342,12.616,12.3951,12.4446,12.508,12.6047,12.7549,13.4779,14.2986,15.045,15.2942,15.5283,15.9239,16.0796,16.1723,16.208,16.1794,16.1882,16.2595,16.3737,16.5251,16.7194,16.8462,16.9088,16.9088,16.9088,16.9088,16.9088,16.9088,16.9088,16.9088,16.7963,16.6552,16.4966,16.3023,16.1525,16.0328,15.9971,15.9773,15.9844,16.1026,16.0883,15.9916,16.1097,16.0899,15.9773,15.9773,15.9773,15.9773,15.9773,15.9773,15.9773,15.9773,15.9773,15.9987,16.1168,16.2096,16.3023,16.5037,16.5608,16.5948,16.8034,16.7963,16.7606,16.8802,16.9088,16.9444,17.0586,17.0015,16.9444,17.0674,17.0888,17.0514,16.9373,17.1085,17.2281,17.1102,17.2227,17.3208,17.3208,17.4866,17.6079,17.6079,17.7453,17.8451,17.8451,17.8095,17.7738,17.7381,17.7667,17.7738,17.7381,17.6222,17.4866,17.328,17.0942,16.8962,16.7337,16.6179,16.495,16.372,16.338,16.2397,16.0899,16.1739,16.2595,10.3717,10.9704,11.396,11.2913,11.7473,12.1643,11.9463,11.827,11.7482,11.7072,11.7379,11.9542,12.5483,12.7885,13.2949,14.5039,14.9036,15.1668,15.4931,15.8694,16.1311,16.2008,16.1454,16.1596,16.3023,16.3967,16.5109,16.6695,16.8248,16.9088,16.9088,16.9088,16.9088,16.9088,16.9088,16.9088,16.9088,16.7535,16.6338,16.5465,16.3237,16.1652,16.0827,16.0114,15.9773,15.9844,16.1454,16.124,15.99,16.1454,16.1168,15.9773,15.9773,15.9773,15.9773,15.9773,15.9773,15.9773,15.9773,15.9773,15.9916,16.0756,16.1525,16.2294,16.3253,16.3983,16.4823,16.6448,16.6393,16.625,16.8517,16.9088,16.9302,17.0158,16.973,16.9373,17.0158,17.0372,17.0086,16.9302,17.0514,17.1585,17.1459,17.2726,17.4064,17.4778,17.6151,17.7167,17.7167,17.7952,17.8451,17.8451,17.8451,17.8451,17.8451,17.8451,17.8451,17.8451,17.7667,17.5865,17.2797,17.0372,16.8017,16.5751,16.4895,16.4022,16.3166,16.2436,16.1668,16.0827,16.0954,16.147,10.6614,11.3241,11.6013,10.9595,11.123,11.3504,10.9842,10.9047,10.9277,10.9885,10.9724,11.2854,12.3895,12.2395,12.3437,13.5463,14.2331,14.7113,14.9881,15.5746,16.0257,16.1596,16.0827,16.1113,16.3468,16.4181,16.4966,16.6338,16.8089,16.9088,16.9088,16.9088,16.9088,16.9088,16.9088,16.9088,16.9088,16.7535,16.6695,16.6409,16.3523,16.2024,16.1739,16.0399,15.9773,15.9844,16.1454,16.124,15.99,16.1454,16.1168,15.9773,15.9773,15.9773,15.9773,15.9773,15.9773,15.9773,15.9773,15.9773,15.9773,15.9773,16.0812,16.1866,16.0542,16.1969,16.4093,16.4093,16.4093,16.4735,16.7661,16.8374,16.8445,16.8731,16.8588,16.8445,16.8731,16.8731,16.8731,16.8731,16.8731,16.9302,17.1102,17.2512,17.3993,17.5865,17.7453,17.8451,17.8451,17.8451,17.8451,17.8451,17.8451,17.8451,17.8451,17.8451,17.8451,17.8451,17.8237,17.6097,17.1602,16.9944,16.7518,16.4181,16.3824,16.3753,16.3753,16.2381,16.1739,16.1739,16.0399,15.9916,10.0039,10.7996,11.4581,11.32,11.4084,11.4778,11.2712,10.9644,10.718,10.6812,10.8149,11.0297,11.3023,11.8565,12.3256,12.4881,13.2409,14.092,14.9081,15.5746,15.9916,16.0114,16.1097,16.1454,16.0542,16.2897,16.4538,16.4752,16.7447,16.9088,16.9088,16.9088,16.9088,16.9088,16.9088,16.9088,16.9088,16.7535,16.6124,16.4752,16.2952,16.1382,16.013,15.9916,15.9773,15.9844,16.1454,16.124,15.99,16.1454,16.1168,15.9773,15.9773,15.9773,15.9773,15.9773,15.9773,15.9773,15.9773,15.9773,15.9773,15.9773,16.0812,16.208,16.1794,16.2096,16.2436,16.2436,16.2436,16.2881,16.4681,16.5164,16.5465,16.6838,16.6108,16.5537,16.6821,16.7123,16.7123,16.7123,16.7123,16.8051,17.0959,17.1673,17.2815,17.5651,17.7453,17.8451,17.8451,17.8451,17.8451,17.8451,17.8451,17.8451,17.8451,17.8451,17.8451,17.8451,17.7238,17.4955,17.1602,16.9944,16.7019,16.2579,16.1184,16.0487,16.0487,16.0257,16.0114,16.0114,15.9916,16.0471,10.2263,10.9425,11.475,11.1526,11.2406,11.3225,10.9813,10.7957,10.6499,10.4859,10.6858,10.9735,11.2871,11.5799,11.9638,12.5517,12.8432,13.3513,0.0,0.0,15.7561,15.8402,15.99,16.0899,16.1026,16.2381,16.3523,16.4395,16.6536,16.8248,16.9088,16.9088,16.9088,16.9088,16.9088,16.8731,16.782,16.7963,16.6821,16.4466,16.3737,16.2595,16.1042,16.0185,15.9773,15.9844,16.1454,16.1739,16.1097,16.1794,16.1668,16.097,16.0114,15.9773,15.9773,15.9773,15.9773,15.9773,15.9773,15.9773,15.9773,15.9773,16.0257,16.0827,16.0827,16.0827,16.1026,16.1882,16.208,16.2524,16.4022,16.4466,16.4609,16.5323,16.4966,16.4609,16.5394,16.5537,16.5751,16.6624,16.6766,16.7765,17.0888,17.2155,17.3511,17.5794,17.7453,17.8451,17.8451,17.8451,17.8451,17.8451,17.8451,17.8451,17.8451,17.8451,17.8451,17.8451,17.7738,17.5954,17.2869,17.1228,16.816,16.3451,16.097,15.9773,15.9773,15.9773,15.9773,15.9773,16.0685,16.1454,10.8444,0.0,11.6668,11.2462,11.2947,11.3411,0.0,10.7868,10.7009,10.4524,10.6444,10.9761,11.379,11.3798,11.6231,12.5518,12.5309,12.7447,13.7353,14.5929,0.0,15.5389,15.7474,15.9258,16.0883,16.1652,16.2579,16.3808,16.5696,16.7337,16.8517,16.8945,16.9088,16.9088,16.9088,16.8374,16.6766,16.7963,16.7161,16.4466,16.4093,16.3309,16.208,16.0471,15.9987,16.0399,16.1168,16.1953,16.2666,16.2294,16.208,16.2024,16.0827,16.0114,15.9773,15.9773,15.9773,15.9773,15.9773,15.9773,15.9773,15.9773,15.9773,15.9773,15.9773,15.9773,16.0058,16.124,16.1596,16.181,16.3039,16.361,16.3879,16.3879,16.3879,16.3879,16.3879,16.3879,16.4395,16.591,16.6267,16.7249,17.0389,17.187,17.3351,17.5295,17.6882,17.8023,17.8398,17.8451,17.8451,17.8451,17.8451,17.8451,17.8451,17.8451,17.8309,17.7952,17.7524,17.5937,17.278,17.08,16.8105,16.4538,16.1398,15.9971,16.0328,16.0328,16.0328,16.0399,16.1953,16.2881,0.0,12.0398,12.0858,12.1024,12.0192,11.8411,11.5324,11.2318,0.0,10.6372,10.7658,10.9731,11.0878,11.2751,11.5042,11.8167,12.0692,12.4568,13.1301,13.6554,0.0,14.9866,15.355,15.6062,15.7601,16.0383,16.2151,16.2294,16.5037,16.6838,16.6909,16.8303,16.9088,16.9088,16.9088,16.8374,16.6766,16.6909,16.6108,16.4466,16.2952,16.2222,16.208,16.0471,16.0613,16.1882,16.0542,16.1612,16.4181,16.2738,16.208,16.208,16.2024,16.1042,15.9773,15.9773,15.9773,15.9773,15.9773,15.9773,15.9773,15.9773,15.9773,15.9773,15.9773,15.9773,15.9773,15.9916,15.9971,15.9987,16.013,16.1168,16.2294,16.2294,16.2294,16.2294,16.2294,16.2294,16.2738,16.4307,16.4609,16.5608,16.8731,16.9373,17.0514,17.3494,17.5295,17.681,17.8237,17.8451,17.8451,17.8451,17.8451,17.8451,17.8451,17.8451,17.7809,17.6365,17.4938,17.2709,16.9587,16.6519,16.4823,16.4466,16.1398,16.0471,16.1953,16.1953,16.1953,16.2008,16.3523,16.5037,12.0358,12.4735,12.7532,12.3158,12.244,12.1559,11.7014,11.3938,11.0975,10.7309,10.9376,11.1465,11.0184,11.2701,11.671,12.2037,12.3342,12.6507,13.4771,13.8338,0.0,14.8112,15.3407,15.7189,15.8758,15.9971,16.1097,16.2008,16.411,16.5767,16.6695,16.8231,16.9088,16.9088,16.9088,16.8374,16.6766,16.7749,16.6964,16.4466,16.3808,16.3594,16.3523,16.1953,16.1525,16.208,16.1525,16.2452,0.0,16.2738,16.2738,16.3451,16.2508,16.1168,15.9773,15.9773,15.9773,15.9773,15.9773,15.9773,15.9773,15.9773,15.9773,15.9773,15.9773,15.9773,15.9773,15.9773,15.9773,15.9773,15.9773,16.0257,16.0685,16.0685,16.0685,16.0685,16.0685,16.1454,16.2595,16.4165,16.5251,16.6607,16.8731,16.9944,17.0942,17.2155,17.451,17.6293,17.6935,17.7809,17.8451,17.8451,17.8451,17.8451,17.8451,17.7524,17.6721,17.6151,17.4635,17.278,17.0657,16.9461,16.7891,16.5965,16.4768,16.3468,16.208,16.3095,16.3594,16.3523,16.3166,16.3808,12.4902,12.9217,13.2145,12.7077,12.6293,12.5232,11.9265,11.6085,11.3154,10.865,11.0672,11.2719,11.0616,11.3115,11.7439,12.3451,12.4503,12.7733,13.6626,13.9622,0.0,14.6685,15.1893,15.5817,15.7418,15.8917,16.0257,16.1311,16.3309,16.4895,16.5981,16.7946,16.8874,16.8374,16.8874,16.8374,16.6766,16.782,16.7321,16.518,16.4681,16.4681,16.5109,16.3594,16.3095,16.3594,16.3095,16.4022,16.5806,16.4236,16.4252,16.5037,16.3451,16.1882,16.0471,15.9971,15.9773,15.9773,15.9773,15.9773,15.9773,15.9773,15.9773,15.9773,15.9773,15.9773,15.9773,15.9773,15.9773,15.9773,15.9773,16.0114,16.0399,15.99,16.0114,16.0542,16.0542,16.1382,16.2738,16.4752,16.6053,16.7249,16.8874,17.0015,17.0888,17.1388,17.3243,17.5009,17.6008,17.7024,17.7881,17.838,17.8451,17.8023,17.7024,17.6008,17.5152,17.467,17.3654,17.2369,17.0728,17.0246,16.9176,16.7551,16.6552,16.5251,16.3594,16.3665,16.4252,16.518,16.3594,16.3665,13.1877,13.3914,13.3914,13.3914,13.2799,12.9797,12.2734,11.9283,11.6022,11.0573,11.1491,11.3087,11.2086,11.3926,11.6717,12.0502,12.3139,12.7376,13.5226,13.8994,14.2119,14.5258,14.8383,15.0951,15.2622,15.7046,15.9773,15.9773,16.2683,16.4466,16.4466,16.7375,16.8374,16.6838,16.8319,16.8374,16.6838,16.6838,16.6838,16.6766,16.5251,16.5251,16.6766,16.518,16.5323,16.6695,16.5109,16.6234,16.8945,16.7408,16.6766,16.6624,16.5037,16.3523,16.1937,16.0399,15.9773,15.9773,15.9773,15.9773,15.9773,15.9773,15.9773,15.9773,15.9773,15.9773,15.9773,15.9773,15.9773,15.9773,15.9773,16.0954,16.1739,16.0114,16.0954,16.2151,16.208,16.2151,16.3023,16.6195,16.6766,16.7249,16.8802,16.9088,16.9658,17.1174,17.1459,17.2601,17.5651,17.6079,17.6721,17.8237,17.8398,17.7167,17.4064,17.3779,17.3083,17.153,17.1459,17.0745,16.9159,16.7606,16.7535,16.9088,16.6108,16.5251,16.6766,16.3665,16.3737,16.6695,16.518,16.5323,13.2559,13.4699,13.5569,13.5569,13.4427,13.1509,12.5067,12.0471,11.6216,11.1235,11.1889,11.2878,11.1296,11.4369,11.8489,12.286,12.51,12.9361,13.828,14.0336,14.249,14.6757,14.9025,15.1308,15.4136,15.6689,15.8616,15.9702,16.1684,16.2809,16.2809,16.4735,16.6108,16.6766,16.7249,16.7749,16.8374,16.8462,16.8462,16.8374,16.6821,16.6892,16.8391,16.6821,16.6338,16.6695,16.5109,16.5608,16.7321,16.5822,16.5751,16.6766,16.6267,16.4466,16.208,16.1596,16.0756,15.9773,15.9773,15.9773,15.9773,15.9773,15.9773,15.9773,15.9773,15.9773,15.9773,15.9773,15.9773,15.9773,15.9773,16.0954,16.1739,16.0114,16.1826,16.3451,16.2365,16.3023,16.4022,16.4966,16.6053,16.6909,16.7392,16.8391,16.9302,16.973,17.0745,17.1744,17.2743,17.4724,17.5865,17.5223,17.5134,17.4778,17.385,17.2797,17.1941,17.1459,17.0389,16.9587,16.9159,16.8659,16.8659,16.9088,16.8231,16.7463,16.6766,16.6947,16.6376,16.518,16.6876,16.6804,13.2911,13.5069,13.6296,13.6296,13.5569,13.3072,12.6163,12.1675,11.7429,11.1772,11.2243,11.323,11.184,11.5984,12.0763,12.4053,12.7506,13.2131,13.9051,14.162,14.4045,14.7485,14.9896,15.225,15.4865,15.6546,15.8116,15.9702,16.124,16.1882,16.124,16.2666,16.3967,16.4895,16.6124,16.7249,16.8177,16.8802,16.9088,16.9088,16.8177,16.8177,16.9088,16.8177,16.7677,16.7677,16.675,16.6821,16.7606,16.6678,16.6892,16.7677,16.7052,16.5625,16.3808,16.2595,16.1525,16.0613,15.9971,15.9773,15.9773,15.9773,15.9773,15.9773,15.9773,15.9773,15.9773,15.9773,15.9773,15.9773,15.9773,16.0471,16.0954,16.0043,16.2183,16.4165,16.3237,16.3808,16.4823,16.6091,16.6536,16.698,16.7606,16.8517,16.9088,16.9088,16.9944,17.0745,17.1388,17.31,17.4153,17.385,17.3208,17.2566,17.1996,17.1085,17.0531,17.0531,16.9658,16.9088,16.9088,16.9088,16.9088,16.9088,16.9088,16.8659,16.7677,16.8034,16.7535,16.6305,16.7606,16.7518,13.267,13.4927,13.6296,13.6425,13.6496,13.4441,12.6591,12.3125,11.9467,11.232,11.2762,11.4088,11.3105,11.8222,12.3102,12.4745,13.0146,13.5341,13.8752,14.2747,14.6043,14.7699,0.0,0.0,15.4722,15.619,15.7759,15.9416,16.0883,16.1097,15.9844,16.1097,16.1937,16.208,16.4895,16.6481,16.6766,16.8177,16.8945,16.9088,16.9088,16.9088,16.9088,16.9088,16.9088,16.9088,16.8945,16.8945,16.9088,16.8945,16.8945,16.8945,16.7551,16.6909,16.6409,16.3594,16.2381,16.1937,16.0471,15.99,15.9773,15.9773,15.9773,15.9773,15.9773,15.9773,15.9844,15.9971,15.9916,15.9844,15.9971,15.9916,15.9844,15.9971,16.2397,16.4609,16.4466,16.4466,16.5306,16.8303,16.7606,16.7035,16.8659,16.9016,16.9088,16.9088,16.9088,16.9587,17.1031,17.1316,17.1941,17.3208,17.2084,17.0674,16.923,16.9088,16.9088,16.9088,16.9088,16.9088,16.9088,16.9088,16.9088,16.9088,16.9088,16.9088,16.9088,16.7677,16.7749,16.9088,16.7677,16.7749,13.0879,13.4155,13.6568,13.7767,13.811,13.6041,12.8207,12.5544,12.2437,11.411,11.3823,11.4623,11.3193,11.8548,12.4308,12.7745,13.2501,13.7709,14.3318,14.3903,14.4788,14.7627,14.8555,0.0,15.2994,15.355,15.4977,15.7744,15.8243,15.883,15.9773,16.0114,16.0827,16.208,16.2738,16.4324,16.6766,16.7123,16.7891,16.9088,16.9088,16.9088,16.9088,16.9088,16.9088,16.9016,16.782,16.7963,16.9016,16.782,16.8034,16.9088,16.8731,16.7891,16.6695,16.6053,16.4252,16.208,16.1739,16.0827,15.9773,15.9773,15.9773,15.9773,15.9773,15.9773,16.0058,16.1311,16.0756,16.0058,16.1311,16.0685,16.0114,16.1311,16.4038,16.5965,16.4752,16.4466,16.5037,16.6909,16.6036,16.5465,16.7035,16.8303,16.9088,16.9088,16.9088,16.923,16.9587,17.0674,17.1102,17.0212,16.9801,16.9516,16.9159,16.9088,16.9088,16.9088,16.9088,16.9088,16.9088,16.9088,16.9088,16.9088,16.9088,16.9088,16.9088,16.8802,16.8802,16.9088,16.8731,16.8802,12.9374,13.2786,13.5498,13.7054,13.7482,13.6198,13.1417,12.879,12.5437,11.8293,11.6889,11.648,11.4932,12.0707,12.6329,12.7909,13.3999,13.9337,14.1891,14.2847,14.386,14.5501,14.6985,14.8897,15.1323,15.2337,15.412,15.726,15.7458,15.7815,15.8616,15.8687,15.94,16.0954,16.1739,16.2881,16.4538,16.6053,16.7194,16.8034,16.8731,16.9088,16.9088,16.9088,16.9088,16.9088,16.8231,16.8374,16.9088,16.8248,16.8391,16.9088,16.9088,16.8588,16.782,16.7052,16.5251,16.3095,16.2381,16.1097,16.0058,16.1541,16.1541,16.1042,16.1755,16.147,16.1256,16.2809,16.2096,16.124,16.2809,16.2611,16.2255,16.3023,16.4466,16.5679,16.5537,16.4966,16.5109,16.7463,16.6036,16.518,16.7535,16.8588,16.9088,16.9088,16.9088,16.9088,16.9088,16.9801,17.0015,16.9159,16.9088,16.9088,16.9088,16.9088,16.9088,16.9088,16.9088,16.9088,16.9088,16.9088,16.9088,16.9088,16.9088,16.9088,16.9088,16.9088,16.9088,16.9088,16.9088,16.9088,12.7614,13.0872,13.3558,13.5426,13.6068,13.5796,13.3928,13.1502,12.8177,12.3006,12.0342,11.866,11.7845,12.3549,12.8607,12.893,13.6126,14.1406,14.0393,14.219,14.3575,0.0,14.5558,14.7841,14.9667,15.1109,15.3264,15.6388,15.6388,15.6459,15.7046,15.7316,15.8045,15.9345,16.0883,16.1882,16.208,16.4681,16.6124,16.6409,16.7963,16.8731,16.8731,16.9016,16.9088,16.9088,16.9088,16.9088,16.9088,16.9088,16.9088,16.9088,16.9088,16.9088,16.8945,16.7677,16.6036,16.4324,16.3309,16.1541,16.0273,16.3111,16.338,16.2738,16.3737,16.3309,16.2881,16.4395,16.3737,16.2881,16.4466,16.4609,16.4466,16.4466,16.4466,16.4895,16.6481,16.5751,16.5679,16.8588,16.659,16.5465,16.8588,16.9088,16.9088,16.9088,16.9088,16.9088,16.9088,16.9088,16.9088,16.9088,16.9088,16.9088,16.9088,16.9088,16.9088,16.9088,16.9088,16.9088,16.9088,16.9088,16.9088,16.9088,16.9088,16.9088,16.9088,16.9404,16.9481,16.9481,16.9704,16.9849,12.4436,12.7985,13.0574,13.3486,13.5283,13.5511,13.2598,13.1599,13.0134,12.6031,12.2221,12.0206,12.2137,12.6117,13.0898,13.6211,0.0,14.5401,14.6543,14.59,14.4759,14.3432,14.3646,14.5002,14.7984,14.8412,14.9911,15.3121,15.2036,15.2464,15.5277,15.6689,15.753,15.7759,15.9258,16.074,16.208,16.2524,16.338,16.4752,16.6338,16.7123,16.7123,16.8517,16.9088,16.9088,16.9088,16.9088,16.9088,16.9088,16.9088,16.9088,16.9088,16.9088,16.9088,16.8874,16.6947,16.4609,16.5751,16.3341,16.0058,16.181,16.3237,16.3951,16.2809,16.3237,16.4466,16.6053,16.5323,16.4538,16.6053,16.5465,16.4466,16.4466,16.4466,16.4895,16.6481,16.6624,16.6964,16.8731,16.659,16.5465,16.8588,16.9088,16.9088,16.9088,16.9088,16.9088,16.9088,16.9088,16.9088,16.9088,16.9088,16.9088,16.9088,16.9088,16.9088,16.9088,16.9088,16.9088,16.9088,16.9088,16.9088,16.9088,16.9088,16.9088,16.9088,17.0379,17.0939,17.0969,17.2161,17.2669,12.0293,12.4492,12.7962,13.067,13.1859,13.2429,13.2786,13.2228,13.1385,13.0518,12.6855,12.4085,12.5235,12.8214,13.1515,13.4213,13.8623,14.1891,14.2619,14.2119,14.1392,0.0,14.2205,0.0,14.513,14.6114,14.7969,15.1109,14.9896,15.0395,15.3636,15.4477,15.5619,15.7387,15.8116,15.9258,16.0827,16.1652,16.2436,16.3166,16.4752,16.5465,16.5465,16.6162,16.6448,16.6448,16.6448,16.6448,16.659,16.7463,16.782,16.7891,16.8731,16.9088,16.9088,16.9088,16.7677,16.5839,16.6552,16.3698,16.0344,16.3682,16.4609,16.4681,16.5734,16.5877,16.6108,16.7677,16.6964,16.6124,16.7677,16.7606,16.6804,16.5965,16.6464,16.7019,16.6838,16.7463,16.7749,16.6662,16.5378,16.5465,16.8588,16.9088,16.9088,16.9088,16.9088,16.9088,16.9088,16.9088,16.9088,16.9088,16.9088,16.9088,16.9088,16.9088,16.9088,16.9088,16.9088,16.9088,16.9088,16.9088,16.9088,16.9088,16.9088,16.9088,16.9088,17.0524,17.1251,17.1295,17.2576,17.3226,11.6177,12.0195,12.401,12.7838,12.8546,12.9244,13.2395,13.2021,13.1443,13.3,12.9562,12.6851,12.8421,13.0289,13.2242,13.424,13.7852,14.025,13.9822,13.9765,0.0,13.8124,0.0,14.2219,14.2647,14.4045,14.6114,14.8882,14.7969,14.8769,15.1965,15.2551,15.3835,15.6174,15.703,15.8029,15.9186,16.074,16.1525,16.1525,16.3095,16.3808,16.3879,16.4252,16.4466,16.4466,16.4466,16.4466,16.4538,16.5679,16.6195,16.6267,16.7447,16.7946,16.7946,16.7946,16.6964,16.5679,16.6053,16.3912,16.147,16.4609,16.5037,16.4823,16.6733,16.7106,16.7052,16.8177,16.7963,16.7606,16.8802,16.9088,16.8802,16.7677,16.8231,16.8802,16.7606,16.8319,16.8303,16.5608,16.5394,16.6234,16.816,16.8874,16.9088,16.9088,16.9088,16.9088,16.9088,16.9088,16.9088,16.9088,16.9088,16.9088,16.9088,16.9088,16.9088,16.9088,16.9088,16.9088,16.9088,16.9088,16.9088,16.9088,16.8731,16.8662,16.9017,17.0046,17.0719,17.1032,17.2804,17.362,11.2404,11.5046,11.7648,12.5467,12.6691,12.6777,13.0063,13.0068,12.9789,13.1385,12.796,12.652,13.2488,13.2501,13.4026,14.1434,14.4131,14.4688,14.3218,14.3004,14.1362,0.0,0.0,0.0,0.0,0.0,14.406,14.5672,14.5743,14.7099,15.0223,15.1893,15.2851,15.305,15.5904,15.7458,15.753,15.9115,15.99,15.9916,16.1525,16.2222,16.2294,16.3737,16.4466,16.4466,16.4466,16.4466,16.4466,16.4538,16.4538,16.4609,16.4681,16.4664,16.4664,16.4664,16.3665,16.2579,16.4038,16.4395,16.4038,16.2738,16.3309,16.4165,16.2881,16.4466,16.6766,16.6909,16.7891,16.9016,16.9088,16.9088,16.9088,16.9016,16.9088,16.9088,16.9016,16.9088,16.8659,16.698,16.7891,16.8445,16.7123,16.8105,16.9088,16.9088,16.9088,16.9088,16.9088,16.9088,16.9088,16.9088,16.9088,16.9088,16.9088,16.9088,16.9088,16.9088,16.9088,16.9088,16.9088,16.9088,16.9088,16.9088,16.7677,16.7474,16.8759,16.8547,16.9136,17.0399,17.3334,17.4677,10.7749,11.1191,11.4329,11.9809,12.1688,12.2745,12.486,12.5953,12.7077,12.9047,12.8942,12.9121,13.1402,13.3331,13.5349,13.7763,13.9784,14.055,13.9008,13.8793,13.7781,13.5069,13.7054,13.8823,13.9394,13.9907,14.1334,14.3917,14.4131,14.5487,14.8612,14.934,15.0624,15.2693,15.3906,15.4905,15.592,15.6491,15.7275,15.833,15.99,16.0613,16.0613,16.1184,16.147,16.147,16.147,16.147,16.1541,16.2524,16.2952,16.3023,16.4038,16.4466,16.4466,16.4466,16.4093,16.338,16.1969,16.147,16.1541,16.1953,16.2524,16.3023,16.3451,16.4395,16.5251,16.5251,16.5679,16.6393,16.7321,16.7606,16.7891,16.8874,16.9088,16.9088,16.9088,16.9088,16.8659,16.7123,16.8034,16.8588,16.7052,16.8105,16.9088,16.9088,16.9088,16.9088,16.9088,16.9088,16.9088,16.9088,16.9088,16.9088,16.9088,16.9088,16.9088,16.9088,16.9088,16.8659,16.7677,16.7606,16.7543,16.736,16.6815,16.7153,16.846,16.9257,16.9858,17.0344,17.2305,17.326,10.1441,10.5862,11.0581,11.377,11.6392,11.8691,12.0897,12.2409,12.3884,12.5923,12.7335,12.8696,13.0349,13.2832,13.5076,13.6219,13.8091,13.8623,13.6568,13.6296,13.5498,13.3357,13.5413,13.7254,13.7767,13.8253,13.968,14.229,14.3004,14.4359,14.6971,14.7113,14.8412,15.1052,15.1679,15.2693,15.435,15.4865,15.5634,15.6689,15.7704,15.8203,15.8203,15.8774,15.9274,15.9773,15.9773,15.9773,15.9844,16.0899,16.1311,16.1454,16.2469,16.2897,16.2897,16.2897,16.254,16.1755,15.9131,15.8917,15.9844,16.0383,16.0883,16.1525,16.254,16.3237,16.3665,16.3665,16.4022,16.4681,16.5751,16.5965,16.625,16.7321,16.7518,16.7518,16.7518,16.7946,16.8034,16.698,16.8034,16.8802,16.7749,16.8462,16.9088,16.9088,16.9088,16.9088,16.9088,16.9088,16.9088,16.9088,16.9088,16.9088,16.9088,16.9088,16.9088,16.9088,16.8588,16.7891,16.6838,16.6267,16.6112,16.64,16.585,16.6444,16.8141,16.8464,16.8885,16.9311,17.0888,17.1548,9.3833,9.9171,10.6115,10.776,11.1139,11.4908,11.8115,11.9363,12.0307,12.1928,12.2904,12.4844,12.9648,13.1135,13.3119,13.7764,13.9905,13.982,13.6795,13.6296,13.5083,13.2014,13.3,13.457,13.6082,13.7553,13.9109,14.0706,14.2219,14.3774,14.5401,14.5458,14.6257,14.7841,14.9381,15.0951,15.2622,15.4207,15.5007,15.5079,15.5079,15.5079,15.515,15.6689,15.8187,15.963,15.963,15.963,15.963,15.963,15.963,15.963,15.963,15.963,15.963,15.963,15.8687,15.7173,15.5634,15.7061,15.9416,15.7902,15.8402,15.963,15.963,16.0685,16.1937,16.1937,16.3095,16.4252,16.4324,16.4395,16.4395,16.4466,16.4466,16.4466,16.4466,16.5625,16.6695,16.6695,16.7963,16.8945,16.8945,16.9016,16.9016,16.9016,16.9016,16.9088,16.9088,16.9088,16.9088,16.9088,16.9088,16.9088,16.9088,16.9088,16.9016,16.9016,16.7606,16.6695,16.6624,16.5229,16.5043,16.6241,16.4805,16.5197,16.7591,16.6074,16.6011,16.727,16.8923,16.9679,9.9369,10.0074,10.1259,10.4091,10.7393,11.0171,11.1066,11.2322,11.4263,11.7554,12.0246,12.3198,12.6936,13.008,13.3178,13.6859,13.9084,13.9828,13.8189,13.6996,13.5498,13.35,13.3629,13.4129,13.457,13.4985,13.5841,13.7424,13.898,14.055,14.2119,14.3275,14.4631,14.6186,14.7755,14.884,14.9268,15.0823,15.225,15.3422,15.3422,15.3993,15.515,15.5563,15.5991,15.6419,15.6419,15.6419,15.6419,15.6419,15.6419,15.6419,15.6419,15.6419,15.6419,15.6419,15.6134,15.5706,15.5293,15.5721,15.6348,15.592,15.6062,15.6419,15.6419,15.6705,15.726,15.8386,15.9028,15.9884,16.2167,16.2738,16.3023,16.4181,16.4466,16.4466,16.4466,16.4752,16.5109,16.5109,16.5465,16.5734,16.5734,16.6678,16.7392,16.7392,16.7392,16.782,16.8945,16.9088,16.9088,16.9088,16.9088,16.9088,16.9088,16.8105,16.7392,16.7392,16.5965,16.4609,16.3451,16.3886,16.369,16.2639,16.3078,16.3589,16.391,16.3546,16.353,16.3846,16.4294,16.5192,9.2562,9.1872,9.2131,9.5342,9.7136,9.9833,10.6713,10.6942,10.7505,11.3961,11.695,11.9457,12.2807,12.7057,13.121,13.4463,13.7739,13.9446,13.8444,13.6912,13.544,13.4052,13.3344,13.2929,13.2929,13.3558,13.4271,13.5212,13.6697,13.8338,13.9907,14.0835,14.2347,14.4545,14.5487,14.6272,14.6971,14.854,14.9753,15.0767,15.1394,15.2194,15.3121,15.385,15.4136,15.4207,15.4865,15.515,15.515,15.515,15.515,15.515,15.515,15.515,15.4936,15.355,15.355,15.4064,15.3336,15.3993,15.5007,15.435,15.4564,15.515,15.515,15.5463,15.6024,15.6943,15.7595,15.8353,16.0202,16.0317,16.0272,16.1866,16.1874,16.1684,16.2326,16.3039,16.3451,16.3451,16.4038,16.4466,16.4466,16.518,16.5537,16.4966,16.5965,16.7337,16.8945,16.9658,17.0372,17.0997,17.0443,16.9587,16.8248,16.7337,16.6481,16.5839,16.3753,16.2112,16.1168,16.1053,16.0807,16.0198,16.141,16.2173,16.2508,16.2508,16.2508,16.2508,16.2508,16.1901,7.8696,7.8923,8.1196,8.4034,8.3888,8.6796,0.0,10.0511,9.9165,10.9095,11.1746,11.3567,11.7805,12.2816,12.7551,13.1429,13.5783,13.8531,13.7812,13.6469,13.5259,13.4659,13.2825,13.1835,13.2206,13.3326,13.3951,13.388,13.5441,13.6819,13.7981,13.8332,13.9771,14.2586,14.2874,14.3703,14.5188,14.6844,14.7699,14.7699,14.9096,14.9795,15.0024,15.1552,15.2337,15.2551,15.3993,15.4564,15.4564,15.4564,15.4564,15.4564,15.4564,15.435,15.3708,15.0823,15.0681,15.1766,15.0238,15.1728,15.4036,15.2592,15.3212,15.4419,15.4419,15.5204,15.6047,15.641,15.7288,15.816,15.8526,15.7836,15.7397,15.8611,15.8155,15.7748,15.902,16.0328,16.1382,16.158,16.2738,16.3753,16.3896,16.411,16.3665,16.2096,16.4538,16.7178,16.8874,17.046,17.2013,17.3636,17.2512,17.046,16.7337,16.6552,16.5625,16.4038,16.1184,15.9488,15.9274,15.768,15.7241,15.8242,15.937,16.0412,16.1386,16.1386,16.1386,16.1386,16.1386,15.8835,0.0,0.0,0.0,0.0,0.0,0.0,0.0,0.0,8.5404,9.5337,9.8526,10.302,11.4229,11.832,12.245,13.0123,13.3358,13.5387,13.6994,13.6185,13.6204,13.8199,13.4666,13.3133,13.5908,13.5198,13.4208,13.3379,13.5508,13.628,13.4877,13.6803,13.8218,13.8867,14.0495,14.1946,14.3062,14.5011,14.6029,14.6043,14.6314,14.7185,14.8398,14.8698,14.9539,15.0737,15.1094,15.1236,15.1236,15.1236,15.1236,15.1236,15.1236,14.9667,14.7399,14.6757,14.6671,14.6956,14.6599,14.7528,14.8782,14.8493,14.9288,15.0241,15.0241,15.0418,15.1127,15.3624,15.4543,15.5313,15.794,15.8423,15.8121,15.7464,15.7134,15.6831,15.6196,15.6276,15.6847,15.81,15.86,15.9258,16.0471,16.1739,16.2024,16.0471,16.2897,16.5965,16.8731,17.046,17.2013,17.3636,17.3494,17.2067,16.8945,16.5164,16.2381,16.0756,15.8901,15.7331,15.6062,15.6265,15.5898,15.4738,15.5685,15.5594,15.4506,15.4506,15.4506,15.4506,15.4506,15.2629,0.0,0.0,0.0,0.0,0.0,0.0,0.0,0.0,0.0,0.0,0.0,9.2763,10.1756,0.0,11.358,12.2108,12.7654,13.2271,13.6078,13.481,13.4209,13.6439,13.473,13.4439,13.6983,13.5696,13.487,13.5155,13.5594,13.6138,13.6733,13.7192,13.8137,13.9824,14.1036,14.1579,14.1296,14.4729,14.6063,14.5345,14.6681,14.7437,14.7645,14.7645,14.7745,14.7955,14.7955,14.7955,14.7955,14.7955,14.7955,14.7955,14.7955,14.6956,14.5544,14.5305,14.5735,14.6337,14.5506,14.6131,14.7318,14.7318,14.7744,14.8371,14.8883,14.9482,15.0454,15.2907,15.3964,15.5026,15.7462,15.766,15.7092,15.6661,15.6145,15.5623,15.5199,15.515,15.5364,15.6134,15.6276,15.6562,15.7347,15.8116,15.8616,15.8616,16.1256,16.4379,16.7535,16.9961,17.1459,17.1425,17.0728,16.9675,16.8105,16.3682,16.1256,16.204,15.8473,15.5455,15.3611,15.3727,15.2964,15.1076,15.2097,15.1873,15.0161,15.0161,15.0161,15.0161,14.8508,14.6863,0.0,0.0,0.0,0.0,0.0,0.0,0.0,0.0,0.0,0.0,0.0,0.0,0.0,0.0,0.0,11.2032,12.1037,12.8775,13.3526,13.1904,13.1341,13.4186,13.4146,13.479,13.712,13.584,13.5461,13.6929,13.5958,13.6554,13.9414,13.7846,13.8219,14.1221,14.1377,14.1064,14.0326,14.4307,14.565,14.444,14.6725,0.0,14.6726,14.6839,14.6636,14.6221,14.6014,14.5901,14.5901,14.5901,14.5802,14.5558,14.4858,14.4695,14.485,14.4769,14.5395,14.6073,14.4706,14.5106,14.6145,14.6145,14.6311,14.6682,14.7603,14.8568,0.0,15.1331,15.2692,15.4109,15.5762,15.5698,15.5092,15.5233,15.4324,15.3577,15.3898,15.3829,15.387,15.4443,15.4634,15.4793,15.5079,15.4992,15.5202,15.625,15.9839,16.3305,16.5586,16.9104,17.1102,17.0158,16.889,16.7908,16.7249,16.2897,16.1327,16.3824,15.7831,15.3134,15.0695,14.9643,14.8505,14.7423,14.7412,14.7319,14.7237,14.6931,14.6789,14.6632,13.9155,13.6762,0.0,0.0,0.0,0.0,0.0,0.0,0.0,0.0,0.0,0.0,0.0,0.0,0.0,0.0,0.0,0.0,11.5382,12.4313,12.6481,12.6469,12.9015,13.6499,13.3512,13.2711,13.7346,13.6294,13.5643,13.6327,13.7036,13.8077,13.9482,13.7533,0.0,0.0,0.0,13.8757,14.0991,14.1999,14.239,14.2233,14.3041,14.3803,14.4594,14.5069,14.6559,14.8684,14.7582,14.7159,14.7159,14.7159,14.6504,14.5316,14.2174,14.1522,14.2499,14.3927,14.3667,14.2463,14.2306,0.0,0.0,14.1805,14.2519,14.3386,14.355,14.3645,14.4098,14.5667,14.7308,14.8957,15.0609,15.2039,15.2653,15.17,15.0585,14.97,14.9788,14.9196,14.945,15.1908,15.2721,15.3493,15.4865,15.4431,15.3644,15.2865,15.9043,16.3415,16.2701,16.782,17.1887,17.3137,17.3066,0.0,16.9088,16.4521,16.2024,16.2365,15.5089,14.9265,14.5735,14.2374,14.1682,14.3997,13.9479,13.9909,14.551,14.409,14.341,14.2886,12.0542,11.4789,0.0,0.0,0.0,0.0,0.0,0.0,0.0,0.0,0.0,0.0,0.0,0.0,0.0,0.0,0.0,0.0,10.5568,11.1862,11.261,12.099,12.7945,13.0412,13.0568,13.1241,13.3335,13.2961,13.3436,13.5656,13.6227,13.7474,13.9878,13.8227,13.7952,13.9673,13.9436,13.9857,14.1095,14.3191,14.4259,14.4242,14.418,14.4078,14.388,14.4102,14.4095,14.3853,14.3449,14.2863,14.218,14.1259,14.0934,14.1224,0.0,0.0,0.0,0.0,14.2341,14.1298,14.032,14.0456,14.1103,14.1103,14.1439,14.198,14.2679,14.2886,14.3185,14.4763,14.5735,14.6639,14.8359,15.0011,15.0925,14.9702,14.9211,14.9065,14.9072,14.8289,14.7912,14.9058,15.004,0.0,15.1473,15.131,15.1541,15.289,15.6865,16.049,16.2863,16.6391,16.8676,16.8374,16.8374,16.7803,16.6519,16.2968,0.0,0.0,0.0,15.3348,15.0913,14.88,0.0,0.0,0.0,13.1534,13.2344,12.5022,0.0,0.0,11.2834,11.0372,0.0,0.0,0.0,0.0,0.0,0.0,0.0,0.0,0.0,0.0,0.0,0.0,0.0,0.0,0.0,0.0,9.5874,10.2449,10.1563,11.3314,12.2043,12.2187,12.5483,12.7433,12.6455,12.7577,12.959,13.2506,13.3553,13.5728,13.9467,13.7666,13.7666,14.0296,13.9762,13.987,14.0885,14.3675,14.5103,14.5162,14.5315,14.4927,14.4096,14.4224,14.3549,14.2231,14.1959,14.1397,14.0508,13.9389,13.9197,13.9946,14.3328,14.3623,14.2145,14.2145,14.2161,14.2074,14.0802,14.0654,14.081,14.0364,13.9911,13.9658,14.0029,14.0494,14.1092,14.222,14.3192,14.4171,14.5368,14.7312,14.8662,14.7714,14.7562,14.7695,14.7937,14.6874,14.6013,14.6819,14.7171,14.7455,14.7612,14.8185,14.9391,15.13,15.5073,15.8559,16.0913,16.4458,16.6128,16.4587,16.4466,16.4466,16.4466,16.1184,16.0471,16.3594,15.8528,15.5518,15.5613,15.2728,14.9452,14.5892,13.419,12.6006,0.0,0.0,0.0,0.0,0.0,0.0,0.0,0.0,0.0,0.0,0.0,0.0,0.0,0.0,0.0,0.0,0.0,0.0,0.0,0.0,0.0,0.0,0.0,0.0,9.6883,10.2327,10.8353,11.3133,11.8005,11.9731,11.6429,12.0461,12.3969,12.577,12.8773,13.2737,13.7666,13.4892,13.5341,14.0215,13.7272,13.7184,14.0331,14.2111,14.3001,14.2994,14.5004,14.564,14.5148,14.5707,14.6508,14.7467,14.6284,14.5811,14.5784,14.571,14.508,14.4037,14.2044,14.1886,14.2817,14.2817,14.3803,14.5101,14.5027,14.294,14.0106,13.8455,13.6878,13.5383,13.3758,13.4444,13.5721,13.579,13.804,14.0514,14.0589,14.2975,14.5354,14.5326,14.4562,14.4078,14.5117,14.3511,14.2684,14.5511,14.4464,14.3244,14.3762,14.6048,14.743,14.6367,15.42,0.0,15.5111,16.1567,16.5929,16.4574,16.4466,16.4466,16.4466,16.0169,15.8885,16.2024,15.4803,15.2418,15.6651,14.882,14.335,14.1191,13.2539,12.4885,11.8304,0.0,0.0,0.0,0.0,0.0,0.0,0.0,0.0,0.0,0.0,0.0,0.0,0.0,0.0,0.0,0.0,0.0,0.0,0.0,0.0,0.0,0.0,0.0,0.0,9.6017,10.4908,10.6553,10.925,10.9629,10.6174,10.9394,11.284,11.5612,12.1813,12.6742,12.959,13.1752,13.369,13.5416,13.6463,13.8114,14.029,14.1996,14.341,14.4457,14.5094,14.5408,14.5197,14.5386,14.5276,14.5004,14.458,14.4022,14.3241,14.2175,14.1693,14.1443,13.8526,13.6919,13.6307,13.6307,13.5939,13.5572,13.6687,13.6388,13.5198,13.3485,13.1839,13.0487,12.9889,13.0867,13.2139,13.2139,13.4532,13.7142,13.7142,14.0351,14.3634,14.3634,14.4453,14.5185,14.5197,14.403,14.2923,14.2803,14.0164,13.728,13.5226,14.026,14.3251,13.9552,14.7521,15.4714,15.6867,16.0693,16.3492,16.4343,16.4466,16.4466,16.4466,16.1113,15.9472,16.0542,15.6856,15.4316,15.3681,15.2471,14.9436,14.4359,14.1119,13.0263,11.1574,0.0,0.0,0.0,0.0,0.0,0.0,0.0,0.0,0.0,0.0,0.0,0.0,0.0,0.0,0.0,0.0,0.0,0.0,0.0,0.0,0.0,0.0,0.0,0.0,0.0,0.0,10.1623,10.3168,0.0,9.7861,9.8299,9.9989,10.268,11.0003,11.5831,11.9196,12.3602,12.7334,13.0256,13.1752,13.3927,13.6775,13.908,14.1024,14.2594,14.3791,14.4382,14.4382,14.4987,14.4863,14.4219,14.4243,14.3781,14.2904,14.0113,13.7443,13.4831,13.2132,12.9284,12.6966,12.8163,12.8244,12.8244,13.1079,13.2425,13.2568,13.0344,12.6156,12.1813,12.122,12.0921,12.1295,12.3688,12.7203,13.0792,13.3104,13.7809,14.1996,14.1996,14.3856,14.5487,14.4575,14.2499,14.0022,13.7783,13.5376,13.2064,12.6979,13.1983,13.564,13.2431,14.0538,14.8969,15.4451,15.8786,16.1565,16.1907,16.2469,16.254,16.1969,16.0114,15.8636,15.7882,15.615,15.4345,15.25,15.2317,14.9058,14.2337,13.7833,12.5701,0.0,0.0,0.0,0.0,0.0,0.0,0.0,0.0,0.0,0.0,0.0,0.0,0.0,0.0,0.0,0.0,0.0,0.0,0.0,0.0,0.0,0.0,0.0,0.0,0.0,0.0,0.0,9.78,9.9008,0.0,0.0,0.0,0.0,8.7789,9.4084,10.0586,10.6942,11.0671,11.6274,12.4424,12.3371,12.5022,12.997,13.3403,13.5871,13.7516,14.0874,14.2587,14.2812,14.4314,14.4987,14.5062,14.5062,14.4987,14.4389,13.8937,13.1983,12.4648,12.2399,11.8666,11.4933,11.8235,12.0398,12.2399,12.7652,13.0562,13.1447,12.8094,11.9495,11.0137,10.7969,10.5122,0.0,0.0,11.575,12.1209,12.7876,13.4463,13.9617,14.0065,14.2601,14.4464,14.2961,13.8781,13.4226,13.0344,12.9372,12.6536,11.8229,0.0,12.4355,12.4424,13.326,14.198,14.7854,15.5764,15.996,15.7636,15.8663,15.8972,15.7458,15.7173,15.6242,15.4369,15.2648,15.21,15.2791,14.7968,14.1965,13.4879,12.3389,0.0,0.0,0.0,0.0,0.0,0.0,0.0,0.0,0.0,0.0,0.0,0.0,0.0,0.0,0.0,0.0,0.0,0.0,0.0,0.0,0.0,0.0,0.0,0.0,0.0,0.0,7.732,8.2466,9.0285,8.6131,8.1047,0.0,0.0,0.0,0.0,0.0,0.0,9.3411,9.9165,10.5516,11.2471,11.5831,11.9938,12.4873,12.8319,13.0792,13.2363,13.5796,13.8638,14.1037,14.1411,14.2302,14.3485,14.3485,14.2071,13.8787,12.6374,11.8666,11.3651,10.4604,10.0272,9.945,10.1553,10.26,10.4165,11.285,11.6958,11.762,11.3064,10.9624,10.5486,9.652,0.0,0.0,0.0,0.0,10.7864,11.57,12.2555,12.9359,13.6694,13.9086,13.961,13.9229,13.6238,13.0481,11.9794,11.4709,10.9181,9.9749,10.3183,0.0,10.8871,12.2716,13.5848,14.3662,15.2182,15.7367,15.7067,15.6604,15.6149,15.5706,15.3463,15.2231,15.2575,14.9783,14.8053,14.7803,14.0414,13.2582,12.466,0.0,0.0,0.0,0.0,0.0,0.0,0.0,0.0,0.0,0.0,0.0,0.0,0.0,0.0,0.0,0.0,0.0,0.0,0.0,0.0,0.0,0.0,0.0,0.0,0.0,0.0,0.0,7.1599,7.8034,8.361,7.8353,7.3204,0.0,0.0,0.0,0.0,0.0,0.0,0.0,0.0,0.0,9.7441,10.1717,10.5872,11.0062,11.6279,12.0248,12.1899,12.7421,13.1004,13.2805,13.3559,13.5198,13.7441,13.7441,13.3104,12.5247,11.5451,10.6927,9.922,0.0,0.0,0.0,0.0,8.9579,9.0631,9.8417,10.1259,10.08,9.7361,0.0,0.0,0.0,0.0,0.0,0.0,0.0,9.7564,10.5845,11.4965,12.3608,12.9883,13.3029,13.4158,13.273,12.2486,11.1344,10.3941,9.9683,9.4369,8.5168,8.9052,0.0,0.0,0.0,12.7632,13.7718,14.8431,15.5576,15.6777,15.6411,15.5848,15.515,15.3219,15.1655,15.0764,14.7337,14.3496,13.9361,13.1734,12.1364,0.0,0.0,0.0,0.0,0.0,0.0,0.0,0.0,0.0,0.0,0.0,0.0,0.0,0.0,0.0,0.0,0.0,0.0,0.0,0.0,0.0,0.0,0.0,0.0,0.0,0.0,0.0,0.0,0.0,7.6395,7.7008,0.0,0.0,0.0,0.0,0.0,0.0,0.0,0.0,0.0,0.0,0.0,0.0,0.0,8.832,9.1871,10.0691,10.6154,10.8327,11.5664,11.9633,12.053,12.1732,12.458,12.8399,12.6156,0.0,10.8866,10.4464,0.0,0.0,0.0,0.0,0.0,0.0,0.0,0.0,0.0,0.0,0.0,0.0,0.0,0.0,0.0,0.0,0.0,0.0,0.0,0.0,0.0,0.0,11.7367,11.9328,12.3608,12.5851,12.0817,10.3034,8.7577,8.6302,8.4656,8.1063,0.0,0.0,0.0,0.0,0.0,0.0,13.0706,14.46,15.4235,15.6219,15.6714,15.619,15.4635,15.3869,15.2032,14.868,14.3534,13.7158,12.949,12.2273,0.0,0.0,0.0,0.0,0.0,0.0,0.0,0.0,0.0,0.0,0.0,0.0,0.0,0.0,0.0,0.0,0.0,0.0,0.0,0.0,0.0,0.0,0.0,0.0,0.0,0.0,0.0,0.0,0.0,0.0,0.0,0.0,0.0,0.0,0.0,0.0,0.0,0.0,0.0,0.0,0.0,0.0,0.0,0.0,0.0,0.0,0.0,0.0,0.0,0.0,9.7425,10.1538,10.6772,10.5725,10.9987,11.7476,10.3861,9.9006,9.9908,8.9729,0.0,0.0,0.0,0.0,0.0,0.0,0.0,0.0,0.0,0.0,0.0,0.0,0.0,0.0,0.0,0.0,0.0,0.0,0.0,0.0,0.0,0.0,9.7524,10.1803,10.6563,10.6383,9.2205,0.0,0.0,0.0,0.0,0.0,0.0,0.0,0.0,0.0,0.0,0.0,12.3705,14.068,15.2472,15.4133,15.3887,15.2907,15.1236,14.9847,14.788,14.5267,13.3055,12.4884,0.0,0.0,0.0,0.0,0.0,0.0,0.0,0.0,0.0,0.0,0.0,0.0,0.0,0.0,0.0,0.0,0.0,0.0,0.0,0.0,0.0,0.0,0.0,0.0,0.0,0.0,0.0,0.0,0.0,0.0,0.0,0.0,0.0,0.0,0.0,0.0,0.0,0.0,0.0,0.0,0.0,0.0,0.0,0.0,0.0,0.0,0.0,0.0,0.0,0.0,0.0,0.0,0.0,0.0,0.0,0.0,0.0,0.0,8.9505,8.27,0.0,0.0,0.0,0.0,0.0,0.0,0.0,0.0,0.0,0.0,0.0,0.0,0.0,0.0,0.0,0.0,0.0,0.0,0.0,0.0,0.0,0.0,0.0,0.0,0.0,0.0,0.0,0.0,0.0,0.0,0.0,0.0,0.0,0.0,0.0,0.0,0.0,0.0,0.0,0.0,11.9495,13.7177,15.0582,15.4619,15.3536,15.2445,15.2389,15.0726,14.6229,13.801,12.6778,0.0,0.0,0.0,0.0,0.0,0.0,0.0,0.0,0.0,0.0,0.0,0.0,0.0,0.0,0.0,0.0,0.0,0.0,0.0,0.0,0.0,0.0,0.0,0.0,0.0,0.0,0.0,0.0,0.0,0.0,0.0,0.0,0.0,0.0,0.0,0.0,0.0,0.0,0.0,0.0,0.0,0.0,0.0,0.0,0.0,0.0,0.0,0.0,0.0,0.0,0.0,0.0,0.0,0.0,0.0,0.0,0.0,0.0,0.0,7.7017,6.954,0.0,0.0,0.0,0.0,0.0,0.0,0.0,0.0,0.0,0.0,0.0,0.0,0.0,0.0,0.0,0.0,0.0,0.0,0.0,0.0,0.0,0.0,0.0,0.0,0.0,0.0,0.0,0.0,0.0,0.0,0.0,0.0,0.0,0.0,0.0,0.0,0.0,0.0,0.0,0.0,11.5687,13.4778,14.9703,15.5042,15.4094,15.3419,15.4154,15.2194,14.501,13.1085,12.0787,0.0,0.0,0.0,0.0,0.0,0.0,0.0,0.0,0.0,0.0,0.0,0.0,0.0,0.0,0.0,0.0,0.0,0.0,0.0,0.0,0.0,0.0,0.0,0.0,0.0,0.0,0.0,0.0,0.0,0.0,0.0,0.0,0.0,0.0,0.0,0.0,0.0,0.0,0.0,0.0,0.0,0.0,0.0,0.0,0.0,0.0,0.0,0.0,0.0,0.0,0.0,0.0,0.0,0.0,0.0,0.0,0.0,0.0,0.0,0.0,0.0,0.0,0.0,0.0,0.0,0.0,0.0,0.0,0.0,0.0,0.0,0.0,0.0,0.0,0.0,0.0,0.0,0.0,0.0,0.0,0.0,0.0,0.0,0.0,0.0,0.0,0.0,0.0,0.0,0.0,0.0,0.0,0.0,0.0,0.0,0.0,0.0,0.0,0.0,0.0,0.0,11.0986,13.4294,15.1246,15.3252,15.4894,15.5418,15.4061,15.1102,14.2848,12.7764,0.0,0.0,0.0,0.0,0.0,0.0,0.0,0.0,0.0,0.0,0.0,0.0,0.0,0.0,0.0,0.0,0.0,0.0,0.0,0.0,0.0,0.0,0.0,0.0,0.0,0.0,0.0,0.0,0.0,0.0,0.0,0.0,0.0,0.0,0.0,0.0,0.0,0.0,0.0,0.0,0.0,0.0,0.0,0.0,0.0,0.0,0.0,0.0,0.0,0.0,0.0,0.0,0.0,0.0,0.0,0.0,0.0,0.0,0.0,0.0,0.0,0.0,0.0,0.0,0.0,0.0,0.0,0.0,0.0,0.0,0.0,0.0,0.0,0.0,0.0,0.0,0.0,0.0,0.0,0.0,0.0,0.0,0.0,0.0,0.0,0.0,0.0,0.0,0.0,0.0,0.0,0.0,0.0,0.0,0.0,0.0,0.0,0.0,0.0,0.0,0.0,0.0,10.9998,13.2526,14.9264,15.2812,15.4004,15.4228,15.3566,15.056,14.0119,11.9774,0.0,0.0,0.0,0.0,0.0,0.0,0.0,0.0,0.0,0.0,0.0,0.0,0.0,0.0,0.0,0.0,0.0,0.0,0.0,0.0,0.0,0.0,0.0,0.0,0.0,0.0,0.0,0.0,0.0,0.0,0.0,0.0,0.0,0.0,0.0,0.0,0.0,0.0,0.0,0.0,0.0,0.0,0.0,0.0,0.0,0.0,0.0,0.0,0.0,0.0,0.0,0.0,0.0,0.0,0.0,0.0,0.0,0.0,0.0,0.0,0.0,0.0,0.0,0.0,0.0,0.0,0.0,0.0,0.0,0.0,0.0,0.0,0.0,0.0,0.0,0.0,0.0,0.0,0.0,0.0,0.0,0.0,0.0,0.0,0.0,0.0,0.0,0.0,0.0,0.0,0.0,0.0,0.0,0.0,0.0,0.0,0.0,0.0,0.0,0.0,0.0,0.0,10.8481,13.1568,14.8738,15.2607,15.395,15.4562,15.4465,15.0199,13.7891,11.5245,0.0,0.0,0.0,0.0,0.0,0.0,0.0,0.0,0.0,0.0,0.0,0.0,0.0,0.0,0.0,0.0,0.0,0.0,0.0,0.0,0.0,0.0,0.0,0.0,0.0,0.0,0.0,0.0,0.0,0.0,0.0,0.0,0.0,0.0,0.0,0.0,0.0,0.0,0.0,0.0,0.0,0.0,0.0,0.0,0.0,0.0,0.0,0.0,0.0,0.0,0.0,0.0,0.0,0.0,0.0,0.0,0.0,0.0,0.0,0.0,0.0,0.0,0.0,0.0,0.0,0.0,0.0,0.0,0.0,0.0,0.0,0.0,0.0,0.0,0.0,0.0,0.0,0.0,0.0,0.0,0.0,0.0,0.0,0.0,0.0,0.0,0.0,0.0,0.0,0.0,0.0,0.0,0.0,0.0,0.0,0.0,0.0,0.0,0.0,0.0,0.0,0.0,10.5401,13.1833,15.0827,15.2472,15.5605,15.7616,15.7616,14.999,13.658,0.0,0.0,0.0,0.0,0.0,0.0,0.0,0.0,0.0,0.0,0.0,0.0,0.0,0.0,0.0,0.0,0.0,0.0,0.0,0.0,0.0,0.0,0.0,0.0,0.0,0.0,0.0,0.0,0.0,0.0,0.0,0.0,0.0,0.0,0.0,0.0,0.0,0.0,0.0,0.0,0.0,0.0,0.0,0.0,0.0,0.0,0.0,0.0,0.0,0.0,0.0,0.0,0.0,0.0,0.0,0.0,0.0,0.0,0.0,0.0,0.0,0.0,0.0,0.0,0.0,0.0,0.0,0.0,0.0,0.0,0.0,0.0,0.0,0.0,0.0,0.0,0.0,0.0,0.0,0.0,0.0,0.0,0.0,0.0,0.0,0.0,0.0,0.0,0.0,0.0,0.0,0.0,0.0,0.0,0.0,0.0,0.0,0.0,0.0,0.0,0.0,0.0,0.0,10.4285,12.6,14.3356,15.1664,15.562,15.6285,15.2853,14.9107,13.6743,11.2961,0.0,0.0,0.0,0.0,0.0,0.0,0.0,0.0,0.0,0.0,0.0,0.0,0.0,0.0,0.0,0.0,0.0,0.0,0.0,0.0,0.0,0.0,0.0,0.0,0.0,0.0,0.0,0.0,0.0,0.0,0.0,0.0,0.0,0.0,0.0,0.0,0.0,0.0,0.0,0.0,0.0,0.0,0.0,0.0,0.0,0.0,0.0,0.0,0.0,0.0,0.0,0.0,0.0,0.0,0.0,0.0,0.0,0.0,0.0,0.0,0.0,0.0,0.0,0.0,0.0,0.0,0.0,0.0,0.0,0.0,0.0,0.0,0.0,0.0,0.0,0.0,0.0,0.0,0.0,0.0,0.0,0.0,0.0,0.0,0.0,0.0,0.0,0.0,0.0,0.0,0.0,0.0,0.0,0.0,0.0,0.0,0.0,0.0,0.0,0.0,0.0,0.0,0.0,12.3018,14.0283,15.0609,15.3601,15.3825,15.1357,14.7319,13.4815,11.1007,0.0,0.0,0.0,0.0,0.0,0.0,0.0,0.0,0.0,0.0,0.0,0.0,0.0,0.0,0.0,0.0,0.0,0.0,0.0,0.0,0.0,0.0,0.0,0.0,0.0,0.0,0.0,0.0,0.0,0.0,0.0,0.0,0.0,0.0,0.0,0.0,0.0,0.0,0.0,0.0,0.0,0.0,0.0,0.0,0.0,0.0,0.0,0.0,0.0,0.0,0.0,0.0,0.0,0.0,0.0,0.0,0.0,0.0,0.0,0.0,0.0,0.0,0.0,0.0,0.0,0.0,0.0,0.0,0.0,0.0,0.0,0.0,0.0,0.0,0.0,0.0,0.0,0.0,0.0,0.0,0.0,0.0,0.0,0.0,0.0,0.0,0.0,0.0,0.0,0.0,0.0,0.0,0.0,0.0,0.0,0.0,0.0,0.0,0.0,0.0,0.0,0.0,0.0,12.2324,14.0283,14.8964,15.0236,15.0841,15.1963,14.5001,13.1436,11.0062,9.9239,0.0,0.0,0.0,0.0,0.0,0.0,0.0,0.0,0.0,0.0,0.0,0.0,0.0,0.0,0.0,0.0,0.0,0.0,0.0,0.0,0.0,0.0,0.0,0.0,0.0,0.0,0.0,0.0,0.0,0.0,0.0,0.0,0.0,0.0,0.0,0.0,0.0,0.0,0.0,0.0,0.0,0.0,0.0,0.0,0.0,0.0,0.0,0.0,0.0,0.0,0.0,0.0,0.0,0.0,0.0,0.0,0.0,0.0,0.0,0.0,0.0,0.0,0.0,0.0,0.0,0.0,0.0,0.0,0.0,0.0,0.0,0.0,0.0,0.0,0.0,0.0,0.0,0.0,0.0,0.0,0.0,0.0,0.0,0.0,0.0,0.0,0.0,0.0,0.0,0.0,0.0,0.0,0.0,0.0,0.0,0.0,0.0,0.0,0.0,0.0,0.0,0.0,11.95,13.3104,14.5136,14.9787,15.0684,14.7237,14.409,13.1842,10.7447,9.9329,0.0,0.0,0.0,0.0,0.0,0.0,0.0,0.0,0.0,0.0,0.0,0.0,0.0,0.0,0.0,0.0,0.0,0.0,0.0,0.0,0.0,0.0,0.0,0.0,0.0,0.0,0.0,0.0,0.0,0.0,0.0,0.0,0.0,0.0,0.0,0.0,0.0,0.0,0.0,0.0,0.0,0.0,0.0,0.0,0.0,0.0,0.0,0.0,0.0,0.0,0.0,0.0,0.0,0.0,0.0,0.0,0.0,0.0,0.0,0.0,0.0,0.0,0.0,0.0,0.0,0.0,0.0,0.0,0.0,0.0,0.0,0.0,0.0,0.0,0.0,0.0,0.0,0.0,0.0,0.0,0.0,0.0,0.0,0.0,0.0,0.0,0.0,0.0,0.0,0.0,0.0,0.0,0.0,0.0,0.0,0.0,0.0,0.0,0.0,0.0,0.0,0.0,10.3692,12.0402,14.1812,14.6564,14.7081,14.4382,14.0569,12.8142,10.4248,9.6401,0.0,0.0,0.0,0.0,0.0,0.0,0.0,0.0,0.0,0.0,0.0,0.0,0.0,0.0,0.0,0.0,0.0,0.0,0.0,0.0,0.0,0.0,0.0,0.0,0.0,0.0,0.0,0.0,0.0,0.0,0.0,0.0,0.0,0.0,0.0,0.0,0.0,0.0,0.0,0.0,0.0,0.0,0.0,0.0,0.0,0.0,0.0,0.0,0.0,0.0,0.0,0.0,0.0,0.0,0.0,0.0,0.0,0.0,0.0,0.0,0.0,0.0,0.0,0.0,0.0,0.0,0.0,0.0,0.0,0.0,0.0,0.0,0.0,0.0,0.0,0.0,0.0,0.0,0.0,0.0,0.0,0.0,0.0,0.0,0.0,0.0,0.0,0.0,0.0,0.0,0.0,0.0,0.0,0.0,0.0,0.0,0.0,0.0,0.0,0.0,0.0,0.0,0.0,10.7381,13.5066,14.0467,14.222,14.2445,13.6164,12.2946,10.1233,0.0,0.0,0.0,0.0,0.0,0.0,0.0,0.0,0.0,0.0,0.0,0.0,0.0,0.0,0.0,0.0,0.0,0.0,0.0,0.0,0.0,0.0,0.0,0.0,0.0,0.0,0.0,0.0,0.0,0.0,0.0,0.0,0.0,0.0,0.0,0.0,0.0,0.0,0.0,0.0,0.0,0.0,0.0,0.0,0.0,0.0,0.0,0.0,0.0,0.0,0.0,0.0,0.0,0.0,0.0,0.0,0.0,0.0,0.0,0.0,0.0,0.0,0.0,0.0,0.0,0.0,0.0,0.0,0.0,0.0,0.0,0.0,0.0,0.0,0.0,0.0,0.0,0.0,0.0,0.0,0.0,0.0,0.0,0.0,0.0,0.0,0.0,0.0,0.0,0.0,0.0,0.0,0.0,0.0,0.0,0.0,0.0,0.0,0.0,0.0,0.0,0.0,0.0,0.0,10.3028,11.4675,12.9486,13.9161,14.0589,13.341,12.0225,10.0059,0.0,0.0,0.0,0.0,0.0,0.0,0.0,0.0,0.0,0.0,0.0,0.0,0.0,0.0]}],[{"header":{"parameterUnit":"kt","parameterCategory":2,"dx":1,"dy":1,"la1":29.285339999999998,"la2":30.599998999999997,"lo1":-89.70041500000002,"lo2":-87.6738589999976,"nx":112,"ny":82,"refTime":"2022-10-03T00:00:00:Z","depth":0,"parameterNumber":2,"parameterNumberName":"V-component_of_WINDS"},"data":[2.7087,2.7442,2.7802,2.7793,2.9125,3.1201,3.4036,3.7222,4.021,4.2398,4.406,0.0,0.0,0.0,0.0,0.0,0.0,0.0,0.0,3.8874,0.0,0.0,0.0,0.0,0.0,0.0,4.9833,5.5394,5.792,6.1779,6.7689,7.3453,7.851,8.2667,8.4893,8.7261,8.9974,9.0016,9.0016,9.0016,9.0016,9.0016,9.0016,9.0016,9.0016,9.0016,9.0016,9.0016,9.0016,9.0016,9.0016,9.0016,9.0016,8.8631,8.6308,8.376,7.7112,6.8689,6.3455,6.1595,6.1595,6.1595,6.1595,6.1595,6.1595,6.1595,6.1595,6.1595,6.1595,6.1595,6.1595,6.1595,6.1517,6.1081,6.1289,6.1413,6.0659,6.0147,5.9757,5.9438,5.8692,5.8225,5.8476,5.8301,5.8142,5.8098,5.8864,5.9096,5.8235,5.8146,5.812,5.812,5.8113,5.8146,5.8149,5.8576,5.865,5.8152,5.8126,5.811,5.8103,5.8103,5.8103,5.8103,5.8103,5.8103,5.8103,5.8103,5.8103,5.8103,5.8103,5.8103,2.55,2.6147,2.6874,2.6606,2.8846,3.1995,3.5241,3.8168,4.0768,4.2863,0.0,0.0,0.0,0.0,0.0,0.0,0.0,0.0,0.0,0.0,0.0,0.0,0.0,0.0,0.0,0.0,5.2965,6.023,6.1781,6.5528,7.2773,7.689,8.0937,8.512,8.5667,8.7212,8.9974,9.0016,9.0016,9.0016,9.0016,9.0016,9.0016,9.0016,9.0016,9.0016,9.0016,9.0016,9.0016,9.0016,9.0016,9.0016,9.0016,8.9993,8.9198,8.2816,7.541,6.824,6.5653,6.3371,6.1595,6.1595,6.1595,6.1595,6.1595,6.1595,6.1595,6.1595,6.1595,6.1595,6.1595,6.1595,6.1465,6.0776,6.1133,6.1283,6.0095,5.9861,5.9634,5.8905,5.8405,5.8103,5.8103,5.8126,5.8399,5.9193,5.9307,5.929,5.929,5.934,5.9293,5.9316,5.8591,5.8223,5.8494,5.9019,5.905,5.8459,5.8207,5.8103,5.8103,5.8103,5.8103,5.8103,5.8103,5.8103,5.8103,5.8103,5.8103,5.8103,5.8103,5.8103,2.4366,2.4497,2.4705,2.249,2.7341,3.257,3.2163,3.7978,4.337,0.0,0.0,0.0,0.0,0.0,0.0,0.0,0.0,0.0,0.0,0.0,0.0,0.0,0.0,0.0,5.8768,5.3309,5.5055,6.855,6.4037,6.6921,8.1284,8.3287,8.5832,8.9846,9.0016,9.0016,9.0016,9.0016,9.0016,9.0016,9.0016,9.0016,9.0016,9.0016,9.0016,9.0016,9.0016,9.0016,9.0016,9.0016,8.9974,9.0012,9.0012,8.9729,8.8162,7.8965,7.2546,6.8602,7.0148,6.6695,6.1595,6.1595,6.1595,6.1595,6.1595,6.1595,6.1595,6.1595,6.1595,6.1595,6.1595,6.1569,6.1413,6.075,6.1107,6.1257,6.0114,5.9835,5.95,5.8347,5.8142,5.8112,5.8112,5.8189,5.9021,6.1256,6.1623,6.1623,6.1623,6.1615,6.1597,6.149,5.95,5.8465,5.9213,5.9297,5.9233,5.9144,5.8484,5.8103,5.8103,5.8103,5.8103,5.8103,5.8103,5.8103,5.8103,5.8103,5.8103,5.8103,5.8103,5.8103,2.2749,2.3172,2.4272,2.5427,2.9363,3.3596,3.608,3.9279,0.0,0.0,4.3065,0.0,0.0,0.0,0.0,0.0,0.0,4.5292,4.4272,4.6209,0.0,0.0,5.8685,6.2963,6.7615,6.5471,6.6623,7.3529,7.366,7.6164,8.2245,8.622,8.8802,8.9974,9.0016,9.0016,9.0016,9.0016,9.0016,9.0016,9.0016,9.0016,9.0016,9.0016,9.0016,9.0016,9.0016,9.0016,9.0016,9.0016,9.0007,9.0008,9.0008,8.3621,7.4167,7.1561,6.756,6.3612,6.4032,6.3049,6.1595,6.1595,6.1595,6.1595,6.1595,6.1595,6.1595,6.1595,6.1263,6.103,6.1491,6.0997,6.0276,6.0121,6.0199,6.0327,6.0299,5.9415,5.849,5.8177,5.8139,5.8127,5.8127,5.9534,6.0873,6.1495,6.161,6.1624,6.162,6.1616,6.0949,5.9271,5.9023,5.907,5.9264,5.9571,5.9672,5.9672,5.8692,5.8103,5.8103,5.8103,5.8103,5.8103,5.8103,5.8103,5.8103,5.8103,5.8103,5.8103,5.8103,5.8103,0.0,0.0,0.0,0.0,0.0,0.0,3.5387,0.0,4.2045,4.3201,0.0,0.0,0.0,0.0,0.0,0.0,4.6088,4.7775,4.6902,5.0744,5.5144,5.9132,6.3463,6.7591,7.1328,7.0855,7.334,8.0708,8.2545,8.4094,8.5757,8.8492,9.0016,9.0016,9.0016,9.0016,9.0016,9.0016,9.0016,9.0016,9.0016,9.0016,9.0016,9.0016,9.0016,9.0016,9.0016,9.0016,9.0012,9.0007,8.9981,8.9608,8.5611,7.6525,6.5706,6.5706,6.3951,6.1595,6.1595,6.1595,6.1595,6.1595,6.1595,6.1595,6.1595,6.1595,6.1595,6.1595,6.1361,6.1133,6.1517,6.1127,6.0458,5.9965,5.9973,6.0025,5.9574,5.879,5.8404,5.9397,5.959,5.9573,5.9599,6.0737,6.1641,6.1641,6.1604,6.1467,6.0937,6.0443,5.9764,5.8719,5.8716,5.8978,5.9469,5.9538,5.9542,5.9542,5.8874,5.8407,5.8173,5.8103,5.8103,5.8103,5.8103,5.8103,5.8103,5.8103,5.8103,5.8103,5.8103,5.8103,0.0,0.0,0.0,0.0,2.7594,0.0,0.0,0.0,4.3091,4.3201,0.0,4.3129,4.3279,0.0,0.0,4.4902,4.8019,5.0226,4.9562,5.4903,5.9704,6.1849,6.6178,7.021,7.3355,7.368,7.7887,8.8185,8.9645,9.0008,9.003,9.0016,9.0016,9.0016,9.0016,9.0016,9.0016,9.0016,9.0016,9.0016,9.0016,9.0016,9.0016,9.0016,9.0016,9.0016,9.0016,9.0016,8.9969,9.0024,8.9329,8.7529,7.9098,7.0017,6.1687,6.224,6.2102,6.1595,6.1595,6.1595,6.1595,6.1595,6.1595,6.1595,6.1595,6.1595,6.1595,6.1595,6.1543,6.1517,6.1595,6.1465,6.1101,6.0173,6.0154,5.995,5.8674,5.8431,5.9134,6.1215,6.1384,6.1227,6.1261,6.1328,6.1433,6.1433,6.1486,6.1075,5.9972,5.8948,5.8564,5.9206,5.8646,5.8666,5.9679,5.9412,5.9126,5.9118,5.9092,5.8788,5.8129,5.8103,5.8103,5.8103,5.8103,5.8103,5.8103,5.8103,5.8103,5.8103,5.8103,5.8103,0.0,0.0,0.0,0.0,0.0,3.1798,0.0,0.0,0.0,5.0093,5.016,4.9952,5.1329,5.1057,5.1083,5.2434,5.4448,5.5332,5.3864,6.0097,6.6428,7.0636,7.5364,7.9922,8.4051,8.5666,8.7347,8.9628,8.9907,9.003,8.9979,9.0016,9.0016,9.0016,9.0016,9.0016,9.0016,9.0016,9.0016,9.0016,9.0016,9.0016,9.0016,9.0016,9.0016,9.0016,9.0016,9.0016,8.9974,8.9993,8.5458,7.8369,7.6525,7.0017,6.2102,6.5889,6.4867,6.1595,6.1595,6.1595,6.1595,6.1595,6.1595,6.1595,6.1595,6.1595,6.1595,6.1595,6.1257,6.0978,6.1491,6.0627,5.9724,6.038,5.9901,5.9479,5.9929,6.0477,6.1084,6.1508,6.0078,5.8778,5.8782,5.9593,6.0185,6.0185,6.048,6.0349,5.9486,5.9496,5.9415,5.9141,5.9022,5.897,5.9248,5.9542,5.9542,5.9144,5.9092,5.8788,5.8129,5.8103,5.8103,5.8103,5.8103,5.8103,5.8103,5.8103,5.8103,5.8103,5.8103,5.8103,0.0,0.0,0.0,2.2116,0.0,0.0,0.0,4.011,4.5162,4.9224,4.9588,4.994,5.2511,5.2979,5.3265,5.4162,5.6501,5.8112,5.7801,6.1391,6.6461,7.2911,7.6027,8.0443,8.7451,8.9286,9.0013,8.9979,9.0016,9.0016,9.0016,9.0016,9.0016,9.0016,9.0016,9.0016,9.0016,9.0016,9.0016,9.0016,9.0016,9.0016,9.0016,9.0016,9.0016,9.0016,9.0016,9.0016,8.9808,8.7428,8.3622,7.9105,7.6726,7.1426,6.5113,6.5113,6.3612,6.1595,6.1595,6.1595,6.1595,6.1595,6.1595,6.1595,6.1595,6.1595,6.1543,6.1211,6.0718,6.0354,6.0685,6.0114,5.9542,5.9828,5.9538,5.9215,5.9286,6.0063,6.0578,5.9995,5.9375,5.8833,5.8222,5.895,5.9688,6.0089,6.0399,6.0094,5.8873,5.9385,5.9523,5.871,5.8632,5.8736,5.9092,5.9048,5.9004,5.9092,5.8788,5.8459,5.8129,5.8103,5.8103,5.8103,5.8103,5.8103,5.8103,5.8103,5.8103,5.8103,5.8103,5.8103,0.0,0.0,0.0,0.0,0.0,0.0,3.6428,4.0989,4.5326,4.8953,4.981,5.0745,5.3602,5.4797,5.5394,5.5498,5.7801,5.9828,6.0543,6.1983,6.5697,7.3034,7.508,7.9364,8.8196,8.9644,9.0034,9.0021,9.0016,9.0016,9.0016,9.0016,9.0016,9.0016,9.0016,9.0016,9.0016,9.0016,9.0016,9.0016,9.0016,9.0016,9.0016,9.0016,9.0016,9.0016,9.0016,9.0016,8.9681,8.5809,8.3665,8.2546,7.9675,7.4477,6.8256,6.5433,6.3225,6.1595,6.1595,6.1595,6.1595,6.1595,6.1517,6.1465,6.1569,6.1439,6.1231,6.0926,6.0458,5.9991,5.9887,5.9783,5.9646,5.9308,5.9241,5.9129,5.8693,5.9307,5.966,5.8653,5.9126,5.9433,5.8598,5.8974,5.966,6.0395,6.0718,6.0309,5.9004,5.9523,5.9627,5.8544,5.8381,5.8562,5.9178,5.8536,5.8459,5.9178,5.8536,5.8103,5.8103,5.8103,5.8103,5.8103,5.8103,5.8103,5.8103,5.8103,5.8103,5.8103,5.8103,5.8103,0.0,0.0,0.0,2.4863,2.7695,0.0,4.2941,4.7603,5.1459,5.7818,5.9601,6.027,6.1107,6.0997,6.0919,6.1367,6.1387,6.1179,6.0698,6.4819,6.9571,7.4181,7.8571,8.3458,8.9322,8.9945,9.0026,8.9979,9.0016,9.0016,9.0016,9.0016,9.0016,9.0016,9.0016,9.0016,9.0016,9.0016,9.0016,9.0016,9.0016,9.0016,9.0016,9.0016,9.0016,9.0016,9.0016,9.0016,8.9974,8.9425,8.6663,8.3188,8.6963,8.0288,6.907,7.2859,6.8918,6.1595,6.1595,6.1595,6.1595,6.1595,6.1211,6.0854,6.1439,6.0893,6.025,6.1231,6.1056,6.0439,5.9991,5.9516,5.93,5.9698,5.9419,5.9367,6.0212,6.0379,6.0246,5.9783,5.9412,5.93,5.9597,5.9764,6.001,6.0536,6.1153,6.1439,6.1257,6.0848,6.0309,5.9731,5.9256,5.9204,5.9705,5.877,5.857,5.9705,5.8744,5.8103,5.8103,5.8103,5.8103,5.8103,5.8103,5.8103,5.8103,5.8103,5.8103,5.8103,5.8103,5.8103,0.0,0.0,2.299,2.6393,0.0,0.0,4.3749,4.8058,5.2018,5.7091,5.8666,5.9698,6.1621,6.1777,6.1673,6.1933,6.199,6.1861,6.1289,6.3378,6.8262,7.7056,7.9918,8.344,8.9425,9.0016,9.0206,9.0619,9.0282,9.0206,9.0657,9.0244,9.0016,9.0016,9.0016,9.0016,9.0016,9.0016,9.0016,9.0016,9.0016,9.0016,9.0016,9.0016,9.0016,9.0016,9.0016,9.0016,9.0016,9.0016,8.8791,8.692,8.611,8.2154,7.6473,7.2903,7.0887,6.9476,6.668,6.7515,6.9431,6.6635,6.5335,6.435,6.1819,6.0952,6.0789,6.027,6.038,6.0361,5.9186,5.9186,5.9438,5.8952,5.9186,5.9594,5.9724,5.9683,5.9798,6.0224,5.9887,5.9724,6.025,6.0309,6.0387,6.0621,6.1471,6.1725,6.0737,6.0952,6.0848,5.9965,5.9939,5.9965,5.9861,5.9705,5.9549,5.9412,5.897,5.851,5.8129,5.8103,5.8103,5.8103,5.8103,5.8103,5.8103,5.8103,5.8103,5.8103,5.8103,5.8103,1.8493,0.0,0.0,0.0,0.0,0.0,4.6458,4.9926,5.3019,5.678,5.8095,5.9152,6.1231,6.1595,6.1595,6.1595,6.2089,6.2198,6.1673,6.3435,6.7877,7.6183,8.0695,8.4234,8.7098,8.8967,9.0244,9.0809,9.0278,9.0244,9.0809,9.032,9.0016,9.0016,9.0016,9.0016,9.0016,9.0016,9.0016,9.0016,9.0016,9.0016,9.0016,9.0016,9.0016,9.0016,9.0016,9.0016,9.0016,9.0016,9.0016,8.9638,8.6153,8.3968,8.1806,7.3662,7.2646,7.4756,7.0198,7.1452,7.4654,7.1831,6.926,6.6705,6.3819,6.2013,6.0737,6.0029,6.001,6.0095,5.9471,5.9705,5.9835,5.8848,5.9264,5.9828,5.9568,6.0557,6.1384,6.1017,6.0484,6.0276,6.0848,6.075,6.0698,6.0854,6.1627,6.1731,6.0529,6.1101,6.1179,5.9965,6.051,6.077,6.04,6.0406,6.025,5.9802,5.9178,5.8588,5.8129,5.8103,5.8103,5.8103,5.8103,5.8103,5.8103,5.8103,5.8103,5.8103,5.8103,5.8103,0.0,0.0,0.0,3.7917,4.0413,4.2972,5.3585,5.5716,5.6433,5.9816,6.103,6.1517,6.1595,6.1595,6.1595,6.1595,6.2089,6.2198,6.1673,6.6851,7.0296,6.9096,8.1236,8.7361,8.133,8.6394,9.0016,9.0054,9.0016,9.0016,9.0054,9.0016,9.0016,9.0016,9.0016,9.0016,9.0016,9.0016,9.0016,9.0016,9.0016,9.0016,9.0016,9.0016,9.0016,9.0016,9.0016,9.0016,9.0016,9.0016,9.0016,9.0016,8.9846,8.692,8.2241,7.7389,7.5127,7.3945,6.996,7.0668,7.3749,7.5984,7.1716,6.6164,6.8172,6.4278,5.9508,6.1075,6.0348,5.9594,6.1705,6.1425,6.0491,5.9939,5.9835,5.9991,6.0491,6.4313,6.6385,6.2358,6.1056,6.0802,6.1491,6.1081,6.0854,6.1491,6.1595,6.1621,6.1569,6.1595,6.1179,5.9965,6.0919,6.1569,6.1543,6.0555,6.0328,6.1465,5.9393,5.8129,5.8103,5.8103,5.8103,5.8103,5.8103,5.8103,5.8103,5.8103,5.8103,5.8103,5.8103,5.8103,2.3602,2.7499,3.2004,3.974,4.4662,4.874,5.3168,5.5784,5.7792,5.9757,6.0588,6.1107,6.1543,6.1595,6.1595,6.1595,6.2089,6.2198,6.1673,6.3713,6.4953,6.4064,6.8185,7.358,7.9846,8.2412,8.5766,9.0771,9.0444,8.9998,8.9986,9.0031,9.0016,9.0016,9.0016,9.0016,9.0016,9.0016,9.0016,9.0016,9.0016,9.0016,9.0016,9.0016,9.0016,9.0016,9.0016,9.0016,9.0016,9.0016,9.0016,9.0016,9.0016,8.8704,8.6234,8.1467,8.1152,8.2644,7.9193,8.0809,8.3635,7.9093,7.5397,7.1611,6.583,6.2259,6.0173,6.038,6.0607,6.0737,6.0718,6.0978,6.1133,6.0562,6.3087,6.4769,6.1354,6.1937,6.2777,6.1813,6.1081,6.0874,6.1517,6.1705,6.1757,6.1621,6.1933,6.2037,6.1647,6.1595,6.1309,6.0484,6.1445,6.1543,6.0036,6.1355,6.1361,5.9419,5.9627,5.9297,5.8155,5.8103,5.8103,5.8103,5.8103,5.8103,5.8103,5.8103,5.8103,5.8103,5.8103,5.8103,2.6853,3.1556,3.649,4.3766,4.8641,5.2122,5.4136,5.6407,5.8441,5.9627,6.0257,6.0828,6.1491,6.1595,6.1595,6.1595,6.1907,6.2011,6.1647,6.1907,6.1994,6.1662,6.3629,6.8153,7.6266,7.9119,8.344,9.0579,9.0462,8.9998,9.0029,8.9993,9.0016,9.0016,9.0016,9.0016,9.0016,9.0016,9.0016,9.0016,9.0016,9.0016,9.0016,9.0016,9.0016,9.0016,9.0016,9.0016,9.0016,9.0016,9.0016,8.9979,8.9675,8.9299,8.826,8.3422,8.4141,8.7071,8.4265,8.4861,8.6136,8.1737,7.7059,7.191,6.5827,6.2411,6.0621,6.0555,6.0848,6.1257,6.1153,6.1205,6.1263,6.1243,6.3914,6.5416,6.1794,6.232,6.3155,6.1885,6.1309,6.1133,6.1543,6.1907,6.2011,6.1673,6.1907,6.1964,6.1647,6.1595,6.1387,6.0724,6.1731,6.1809,6.04,6.1959,6.1985,5.9523,6.0017,5.9686,5.8181,5.8103,5.8103,5.8103,5.8103,5.8103,5.8103,5.8103,5.8103,5.8103,5.8103,5.8103,3.0772,3.544,4.0395,4.9869,5.2213,5.3069,5.6485,5.7679,5.8407,5.9575,6.025,6.0776,6.1465,6.1595,6.1595,6.1595,6.1595,6.1595,6.1569,6.1595,6.1595,6.1569,6.6804,7.0599,7.0916,7.6573,8.2946,8.9527,8.9986,9.0012,9.0016,9.0016,9.0016,9.0016,9.0016,9.0016,9.0016,9.0016,9.0016,9.0016,9.0016,9.0016,9.0016,9.0016,9.0016,9.0016,9.0016,9.0016,9.0016,9.0016,9.0016,8.9941,8.9147,8.868,8.7891,8.3229,8.3701,8.6372,8.4347,8.2476,8.1242,8.3165,7.6457,6.7597,6.7836,6.4503,6.0776,6.1439,6.1159,6.1088,6.289,6.2089,6.1062,6.2146,6.2406,6.2343,6.2048,6.5323,6.6981,6.2516,6.1595,6.1595,6.1595,6.1595,6.1595,6.1595,6.1595,6.1595,6.1595,6.1595,6.1387,6.0724,6.1607,6.2302,6.2276,6.2354,6.2146,6.1543,6.0555,5.9419,5.8207,5.8129,5.8103,5.8103,5.8103,5.8103,5.8103,5.8103,5.8103,5.8103,5.8103,5.8103,3.2623,3.9579,4.5226,5.2341,5.3772,5.3992,5.6131,5.6728,5.7299,5.8944,5.9679,6.025,6.0776,6.1263,6.1595,6.1595,6.1595,6.1301,6.0423,6.108,6.1393,6.0815,6.2665,6.5827,7.0508,7.4632,8.0598,8.9347,8.9985,9.0003,9.0012,9.0016,9.0016,9.0016,9.0016,9.0016,9.0016,9.0016,9.0016,9.0016,9.0016,9.0016,9.0016,9.0016,9.0016,9.0016,9.0016,9.0016,9.0016,9.0016,9.0016,8.9941,8.9147,8.6382,8.266,8.0759,7.8183,7.5714,7.6848,7.6864,7.6187,7.4313,7.1713,6.8569,6.4556,6.2054,6.0776,6.1439,6.1491,6.1569,6.2406,6.2661,6.2635,6.2432,6.2406,6.3202,6.6183,6.5333,6.3501,6.1904,6.1595,6.1595,6.1595,6.1595,6.1595,6.1595,6.1595,6.1595,6.1595,6.1595,6.1387,6.0724,6.0906,6.0952,6.0536,6.1679,6.1783,6.038,6.0867,6.0478,5.8918,5.8381,5.8103,5.8103,5.8103,5.8103,5.8103,5.8103,5.8103,5.8103,5.8103,5.8103,3.1145,4.0413,4.8148,5.3123,5.411,5.4225,5.569,5.6235,5.6884,5.871,5.91,5.9367,6.0173,6.075,6.1217,6.1569,6.1595,6.1295,6.0308,6.1022,6.1341,6.0562,6.1165,6.4646,7.2348,7.0961,7.3519,8.306,8.3755,8.5573,8.9804,9.0016,9.0016,9.0016,9.0016,9.0016,9.0016,9.0016,9.0016,9.0016,9.0016,9.0016,9.0016,9.0016,9.0016,9.0016,9.0016,9.0016,9.0016,9.0016,8.8646,8.6418,8.5609,8.2083,7.7315,7.679,7.4673,7.2415,7.4312,7.3568,7.1417,6.9483,6.7691,6.5609,6.1943,6.0971,6.1133,6.1517,6.1595,6.1673,6.2011,6.2323,6.2525,6.2167,6.2224,6.297,6.5068,6.3696,6.1985,6.1673,6.1595,6.1673,6.1933,6.1777,6.1699,6.1933,6.1777,6.1595,6.1595,6.1595,6.1491,6.1107,6.1081,6.1056,6.0978,6.1861,6.1887,6.0711,6.1257,6.0841,5.917,5.8762,5.8407,5.8103,5.8103,5.8103,5.8103,5.8103,5.8103,5.8103,5.8103,5.8103,2.9382,3.9735,4.9313,5.2951,5.3888,5.4225,5.5264,5.5898,5.6754,5.8502,5.8459,5.8415,5.9445,6.0063,6.0711,6.1459,6.1615,6.1387,6.0621,6.1081,6.1237,6.0504,6.1153,6.5168,7.4284,6.8104,6.7115,7.5763,7.6428,7.9884,8.7691,8.8706,8.9085,8.9085,8.9638,9.0016,9.0016,9.0016,9.0016,9.0016,9.0016,9.0016,8.9974,8.934,8.9383,8.9979,8.9903,8.9563,8.9047,8.8864,8.5748,8.098,8.0145,7.6604,7.1971,7.1876,7.1461,7.1139,7.2663,7.0351,6.6729,6.6492,6.424,6.1387,6.0199,6.0685,6.1595,6.1595,6.1595,6.1621,6.1699,6.1673,6.1621,6.1699,6.199,6.2146,6.1699,6.1595,6.1595,6.1595,6.1595,6.1777,6.2302,6.2115,6.1985,6.2328,6.199,6.1725,6.1725,6.1647,6.1595,6.1595,6.1543,6.1699,6.212,6.225,6.2042,6.1517,6.1569,6.0893,5.936,5.917,5.8788,5.8129,5.8103,5.8103,5.8103,5.8103,5.8103,5.8103,5.8103,5.8103,3.429,4.1278,4.7846,5.2637,5.424,5.4697,5.4905,5.5358,5.6095,5.7385,5.7887,5.8155,5.8407,5.9545,6.0698,6.1492,6.1611,6.1257,6.0147,6.0394,6.0595,6.0481,6.1178,6.431,7.1111,7.2772,7.5097,7.9365,7.9697,7.9229,7.8336,8.1937,8.4055,8.4055,8.7899,9.0016,9.0016,9.0016,9.0016,9.0016,9.0016,9.0016,8.9851,8.5852,8.6239,8.9979,8.9337,8.7141,8.3984,8.2874,7.9949,7.5959,7.4738,7.1384,6.7183,6.6521,6.393,6.0823,6.2058,6.1955,6.1239,6.1204,6.1385,6.1387,6.0199,6.0685,6.1595,6.1595,6.1595,6.1699,6.2146,6.1959,6.1725,6.2146,6.2011,6.1725,6.1621,6.1595,6.1595,6.1595,6.1595,6.1777,6.2302,6.2765,6.2942,6.2458,6.2328,6.225,6.225,6.1907,6.1595,6.1595,6.1133,6.0874,6.0932,6.1419,6.1491,6.0874,6.1335,6.1257,6.0387,5.9568,5.8788,5.8129,5.8103,5.8103,5.8103,5.8103,5.8103,5.8103,5.8103,5.8103,3.2653,3.8158,4.348,5.04,5.3226,5.4292,5.4292,5.476,5.541,5.6251,5.6641,5.7065,5.7948,5.872,5.965,6.0913,6.1395,6.1297,6.0313,6.0148,6.0141,6.0118,6.0471,6.3411,7.0284,7.2375,7.5631,8.1272,7.7071,7.5799,7.927,8.1588,8.2806,8.2806,8.7514,8.8791,8.6239,8.8748,8.7514,8.2624,8.5084,8.4954,8.2537,8.02,8.0258,8.2046,8.1439,8.0026,7.8202,7.7572,7.4539,7.0209,6.9566,6.6303,6.1877,6.1516,5.9963,5.8181,5.877,5.8978,5.903,5.936,6.0036,6.0659,6.038,6.09,6.1595,6.1595,6.1595,6.1673,6.1933,6.1803,6.1673,6.1933,6.1803,6.1595,6.1595,6.1595,6.1595,6.1595,6.1595,6.1699,6.1959,6.2479,6.2869,6.2895,6.2895,6.2895,6.2895,6.2401,6.2037,6.2037,6.1497,6.103,6.0672,6.1237,6.1361,6.0698,6.1237,6.1205,6.0302,5.9731,5.936,5.9056,5.8415,5.8103,5.8103,5.8103,5.8103,5.8103,5.8103,5.8103,3.0088,3.5391,4.0813,4.7952,5.1343,5.3057,5.355,5.3954,5.4437,5.5082,5.5238,5.5664,5.7118,5.7529,5.8219,6.0056,6.0913,6.1245,6.0743,6.0121,5.976,5.9821,5.9966,6.2688,6.9611,6.9493,7.1924,7.9216,7.1919,7.0348,7.7841,7.9237,8.0244,8.1249,8.5938,8.7134,8.4393,8.7092,8.4667,7.7203,7.9958,7.9311,7.554,7.4554,7.3777,7.314,7.3645,7.3335,7.2482,7.2197,6.9097,6.4585,6.4443,6.1818,5.8129,5.8277,5.8207,5.8155,5.8389,5.8433,5.8433,5.9048,5.962,6.0121,6.0517,6.1107,6.1595,6.1595,6.1595,6.1595,6.1595,6.1595,6.1595,6.1595,6.1595,6.1595,6.1595,6.1595,6.1595,6.1595,6.1595,6.1647,6.1777,6.2016,6.2557,6.341,6.354,6.3488,6.3384,6.2817,6.2354,6.2224,6.1881,6.1361,6.0698,6.1237,6.1361,6.0698,6.1237,6.1205,6.025,5.9991,5.9809,5.9724,5.8666,5.8103,5.8103,5.8103,5.8103,5.8103,5.8103,5.8103,3.0004,3.6789,4.411,4.6433,4.8514,5.0512,5.2655,5.2719,5.2654,5.3784,5.3992,5.4233,5.4967,5.557,5.6753,5.9022,6.0037,6.0788,6.1435,6.0263,5.9496,5.985,6.0189,6.2439,6.7613,6.4665,6.4537,6.9521,6.5159,6.2628,6.352,6.7605,7.1919,7.6328,8.1021,8.5342,8.9298,8.5429,8.2793,8.1447,7.8026,7.5928,7.4758,7.0474,6.8226,6.7814,7.141,7.0914,6.7404,6.6258,6.3379,5.9702,5.9063,5.8521,5.8225,5.8788,5.8614,5.8259,5.9341,5.9412,5.9074,5.9601,6.0147,6.0595,6.0646,6.1107,6.1595,6.1595,6.1595,6.1595,6.1595,6.1595,6.1595,6.1595,6.1595,6.1595,6.1595,6.1595,6.1595,6.1595,6.1595,6.1777,6.2224,6.1985,6.2219,6.383,6.4064,6.3882,6.341,6.2817,6.2198,6.1751,6.1621,6.1361,6.0698,6.1237,6.1361,6.0698,6.1237,6.1569,6.1465,6.0452,5.9672,5.9196,5.8484,5.8103,5.8103,5.8103,5.8103,5.8103,5.8103,5.8103,2.6444,3.268,3.9162,4.1847,4.639,5.0394,5.1342,5.1329,5.1589,5.3071,5.3642,5.4055,5.471,5.5872,5.7136,5.8355,5.9264,5.9686,5.9527,5.9001,5.8915,5.9772,6.0021,6.0968,6.3276,6.2376,6.3566,6.8285,6.4272,6.2858,6.5706,6.7605,6.9521,7.1426,7.6074,7.95,8.1414,7.9544,7.7049,7.389,7.2289,6.9321,6.5311,6.374,6.2757,6.2289,6.3855,6.3425,6.1569,6.1062,5.9906,5.8459,5.8251,5.8103,5.8129,5.8407,5.8355,5.8181,5.8622,5.8692,5.864,5.9549,6.0017,6.0328,6.1004,6.1413,6.1595,6.1595,6.1595,6.1595,6.1595,6.1595,6.1595,6.1595,6.1595,6.1595,6.1595,6.1595,6.1595,6.1595,6.1595,6.1673,6.1907,6.1751,6.1959,6.2925,6.3414,6.3748,6.3804,6.331,6.2739,6.212,6.1803,6.1361,6.0698,6.1237,6.1361,6.0698,6.1237,6.1595,6.1595,6.0796,6.0095,5.9568,5.8996,5.871,5.871,5.871,5.871,5.871,5.871,5.8484,2.2995,2.8624,3.4495,3.7569,4.3624,4.9027,5.0004,4.9978,5.0316,5.2369,5.2967,5.3356,5.4151,5.5555,5.6813,5.748,5.8369,5.8768,5.82,5.8109,5.8454,5.9263,5.9512,5.9835,6.0406,6.0978,6.281,6.6271,6.3474,6.3088,6.6362,6.6544,6.7152,6.8573,7.1919,7.4375,7.5764,7.442,7.1795,6.8111,6.6828,6.3825,5.9308,5.9542,5.9334,5.8788,5.8788,5.8536,5.8103,5.8103,5.8103,5.8103,5.8103,5.8103,5.8129,5.8355,5.8303,5.8129,5.8355,5.8303,5.8329,5.929,5.9776,6.0043,6.1049,6.1465,6.1595,6.1595,6.1595,6.1595,6.1595,6.1595,6.1595,6.1595,6.1595,6.1595,6.1595,6.1595,6.1595,6.1595,6.1595,6.1595,6.1595,6.1595,6.1803,6.2328,6.2947,6.3566,6.409,6.3852,6.3284,6.2484,6.2245,6.1803,6.1004,6.1517,6.1575,6.1004,6.1387,6.1595,6.1595,6.1004,6.0465,6.0121,5.9594,5.9308,5.9308,5.9308,5.9274,5.9092,5.9092,5.8762,2.0508,2.5757,3.1883,3.4238,3.9738,4.5464,4.8824,4.8683,4.8647,5.1512,5.1706,5.1693,5.2876,5.4021,5.5191,5.6235,5.7377,5.811,5.8116,5.8108,5.8103,5.8173,5.871,5.9282,5.9854,6.038,6.0952,6.1661,6.1641,6.1667,6.1687,6.1687,6.3841,6.8437,6.8663,7.0977,7.5796,7.1067,6.8069,6.6847,6.2655,6.0406,5.9835,5.9308,5.8762,5.8103,5.8103,5.8103,5.8103,5.8103,5.8103,5.8103,5.8103,5.8103,5.8181,5.884,5.8684,5.8225,5.884,5.8684,5.8251,5.8866,5.9438,5.9965,6.0491,6.1107,6.1595,6.1595,6.1595,6.1595,6.1595,6.1595,6.1595,6.1595,6.1595,6.1595,6.1595,6.1595,6.1595,6.1595,6.1595,6.1595,6.1595,6.1595,6.1803,6.2328,6.2947,6.3566,6.409,6.4142,6.37,6.251,6.2947,6.289,6.1745,6.2068,6.2146,6.1621,6.1595,6.1595,6.1595,6.1004,6.0646,6.0646,6.0147,5.9861,5.9861,5.9861,5.9594,5.9092,5.9092,5.8762,1.9422,2.3673,2.9042,3.2882,3.774,4.2908,4.7874,4.9031,4.9384,5.0757,5.0925,5.1095,5.22,5.3734,5.5274,5.6556,5.7236,5.7714,5.8041,5.812,5.8103,5.8103,5.871,5.9282,5.9809,6.0309,6.0926,6.1569,6.1595,6.1595,6.1595,6.1595,6.2286,6.3795,6.3841,6.6117,7.0842,6.618,6.5239,6.7963,6.2673,5.9627,5.8692,5.851,5.8329,5.8103,5.8103,5.8103,5.8103,5.8103,5.8103,5.8103,5.8103,5.8103,5.8129,5.8355,5.8303,5.8129,5.8355,5.8303,5.8303,5.9334,5.949,5.9568,6.0919,6.1133,6.1056,6.1491,6.1595,6.1595,6.1595,6.1595,6.1699,6.2042,6.1881,6.1699,6.2042,6.2146,6.2063,6.1673,6.2245,6.2577,6.1751,6.1933,6.2068,6.1907,6.2734,6.341,6.3618,6.3908,6.4012,6.3648,6.3488,6.3202,6.2864,6.2583,6.2328,6.2146,6.2557,6.2609,6.2146,6.1964,6.1451,6.0672,6.0465,6.025,5.9861,5.9861,5.962,5.9118,5.9464,5.9542,1.9185,2.2662,2.7225,3.2184,3.5152,3.8491,4.4794,4.5794,4.5385,4.5406,4.6279,4.7452,4.8953,5.2286,5.5039,5.5669,5.6595,5.7411,5.8025,5.8103,5.8225,5.8546,5.8658,5.9048,5.9783,6.0173,6.0718,6.1543,6.1595,6.1595,6.1595,6.1595,6.1595,6.1595,6.1595,6.3042,6.5906,6.3088,6.2954,6.5544,6.1525,5.9204,5.8459,5.8251,5.8103,5.8103,5.8103,5.8103,5.8103,5.8103,5.8103,5.8103,5.8103,5.8103,5.8103,5.8103,5.8103,5.8103,5.8103,5.8103,5.8233,5.8978,5.9264,5.9542,6.04,6.0841,6.1056,6.1185,6.1439,6.1595,6.1595,6.1595,6.1699,6.2037,6.1855,6.1699,6.2016,6.2094,6.2037,6.1673,6.2193,6.2473,6.1725,6.2016,6.2276,6.1985,6.2895,6.367,6.367,6.4116,6.4432,6.4432,6.396,6.3592,6.3384,6.318,6.2998,6.2791,6.315,6.3098,6.2432,6.2406,6.1964,6.103,6.103,6.0848,6.0555,6.0276,5.9887,5.9386,5.9516,5.9464,1.9509,2.2217,2.6078,3.1902,3.2236,3.3053,4.0306,4.0061,3.7965,3.695,3.8868,4.1387,4.3464,4.9402,5.4048,5.3911,5.559,5.711,5.7913,5.8129,5.845,5.9199,5.8624,5.864,5.9705,5.9835,6.0348,6.1465,6.1595,6.1595,6.1595,6.1595,6.1595,6.1595,6.1595,6.1595,6.1595,6.1569,6.1211,6.0569,5.9568,5.9092,5.897,5.8407,5.8103,5.8103,5.8199,5.8155,5.8103,5.8199,5.8155,5.8103,5.8103,5.8103,5.8103,5.8103,5.8103,5.8103,5.8103,5.8103,5.8103,5.8155,5.8926,5.9705,5.9308,6.027,6.1387,6.0874,6.1107,6.1543,6.1595,6.1595,6.1621,6.1647,6.1621,6.1621,6.1647,6.1673,6.1647,6.1621,6.1719,6.1725,6.1673,6.2141,6.2458,6.2458,6.344,6.4142,6.4142,6.4587,6.4951,6.4951,6.4484,6.4012,6.354,6.3908,6.3986,6.3514,6.3436,6.3128,6.2484,6.238,6.2068,6.1543,6.1517,6.1465,6.1413,6.0848,6.0231,5.9731,5.9282,5.8788,1.8146,1.9562,2.2691,3.0816,3.1306,3.189,3.989,3.8722,3.5762,3.5134,3.5682,3.6441,3.6988,4.2455,4.8624,5.3739,5.5336,5.6231,5.7124,5.8178,5.8962,5.9092,5.8988,5.897,5.923,5.9646,6.0147,6.0802,6.1315,6.1595,6.1595,6.1595,6.1595,6.1595,6.1595,6.1595,6.1595,6.1133,6.0569,6.0043,5.9386,5.884,5.8355,5.8225,5.8103,5.8129,5.8658,5.8606,5.8155,5.8684,5.8562,5.8103,5.8103,5.8103,5.8103,5.8103,5.8103,5.8103,5.8103,5.8103,5.8181,5.871,5.9048,5.9386,6.0069,6.0276,6.0452,6.1159,6.1133,6.1004,6.1491,6.1595,6.1725,6.2141,6.1933,6.1725,6.212,6.2198,6.2115,6.1699,6.2323,6.2812,6.2276,6.2739,6.315,6.315,6.37,6.4142,6.4142,6.4587,6.4951,6.4951,6.4821,6.4691,6.4561,6.4665,6.4691,6.4561,6.4194,6.37,6.3176,6.2271,6.1497,6.0854,6.0484,6.0088,5.969,5.9516,5.9108,5.8562,5.8918,5.923,1.8288,1.9313,2.2184,3.0982,3.0381,2.9029,3.4608,3.2973,2.9734,2.7904,2.8892,3.0568,3.216,3.7464,4.3438,4.919,5.2731,5.5062,5.5864,5.7515,5.8762,5.9066,5.8814,5.8866,5.9386,5.9679,6.0095,6.0621,6.1237,6.1595,6.1595,6.1595,6.1595,6.1595,6.1595,6.1595,6.1595,6.0978,6.0491,6.0224,5.9464,5.8936,5.8536,5.8277,5.8103,5.8129,5.8814,5.8736,5.8199,5.8814,5.871,5.8103,5.8103,5.8103,5.8103,5.8103,5.8103,5.8103,5.8103,5.8103,5.8155,5.851,5.884,5.917,5.9419,5.9634,5.9991,6.0633,6.0562,6.051,6.1387,6.1595,6.1673,6.1985,6.1829,6.1699,6.1985,6.2063,6.1959,6.1673,6.2115,6.2505,6.2406,6.2921,6.3462,6.3722,6.4168,6.4484,6.4484,6.4769,6.4951,6.4951,6.4951,6.4951,6.4951,6.4951,6.4951,6.4951,6.4665,6.4064,6.2947,6.2063,6.1205,6.0328,6.0017,5.975,5.9438,5.9222,5.8892,5.8536,5.8632,5.877,1.9339,2.0669,2.3537,3.2106,3.0227,2.6825,2.8951,2.6841,2.3477,2.0025,2.2074,2.5245,2.7715,3.3728,3.929,4.2306,4.8661,5.359,5.4645,5.6735,5.8329,5.8866,5.8536,5.864,5.9497,5.9757,6.0043,6.0491,6.1231,6.1595,6.1595,6.1595,6.1595,6.1595,6.1595,6.1595,6.1595,6.0978,6.0621,6.0517,5.9568,5.9022,5.8918,5.8381,5.8103,5.8129,5.8814,5.8736,5.8199,5.8814,5.871,5.8103,5.8103,5.8103,5.8103,5.8103,5.8103,5.8103,5.8103,5.8103,5.8103,5.8103,5.858,5.9014,5.8433,5.8952,5.9776,5.9776,5.9776,6.001,6.1075,6.1335,6.1361,6.1465,6.1413,6.1361,6.1465,6.1465,6.1465,6.1465,6.1465,6.1673,6.2276,6.2843,6.3436,6.4064,6.4587,6.4951,6.4951,6.4951,6.4951,6.4951,6.4951,6.4951,6.4951,6.4951,6.4951,6.4951,6.4873,6.4094,6.2458,6.1907,6.1023,5.9757,5.9627,5.9601,5.9601,5.9152,5.8918,5.8918,5.8381,5.8155,2.0922,2.3294,2.6552,3.4103,3.2983,3.0185,3.0564,2.7274,2.3118,1.9525,2.1819,2.379,2.1426,3.1008,3.8346,3.5551,4.3622,5.1291,5.4399,5.6735,5.8155,5.8277,5.8684,5.8814,5.8433,5.929,5.9887,5.9965,6.0997,6.1595,6.1595,6.1595,6.1595,6.1595,6.1595,6.1595,6.1595,6.0978,6.0413,5.9965,5.936,5.8788,5.8233,5.8155,5.8103,5.8129,5.8814,5.8736,5.8199,5.8814,5.871,5.8103,5.8103,5.8103,5.8103,5.8103,5.8103,5.8103,5.8103,5.8103,5.8103,5.8103,5.858,5.9092,5.8988,5.9048,5.9222,5.9222,5.9222,5.9334,5.9939,6.0166,6.0224,6.0672,6.0458,6.025,6.0718,6.0776,6.0776,6.0776,6.0776,6.1114,6.2224,6.2484,6.2899,6.3986,6.4587,6.4951,6.4951,6.4951,6.4951,6.4951,6.4951,6.4951,6.4951,6.4951,6.4951,6.4951,6.451,6.3678,6.2458,6.1907,6.0841,5.9274,5.8666,5.8363,5.8363,5.8329,5.8277,5.8277,5.8155,5.8407,2.2145,2.4572,2.7814,3.5901,3.4366,3.0703,2.9938,2.6823,2.3032,1.9228,2.0107,2.1237,2.0156,2.8001,3.4553,3.4404,4.1614,4.8553,0.0,0.0,5.7299,5.7653,5.8199,5.8562,5.8658,5.9152,5.9568,5.9835,6.0614,6.1237,6.1595,6.1595,6.1595,6.1595,6.1595,6.1465,6.1081,6.1133,6.0718,5.9861,5.9646,5.923,5.8614,5.8303,5.8103,5.8129,5.8814,5.8918,5.8684,5.8988,5.8892,5.8588,5.8277,5.8103,5.8103,5.8103,5.8103,5.8103,5.8103,5.8103,5.8103,5.8103,5.8329,5.8536,5.8536,5.8536,5.8658,5.897,5.9092,5.9204,5.975,5.9861,5.9913,6.0173,6.0043,5.9913,6.0199,6.025,6.0328,6.0595,6.0646,6.101,6.2198,6.2713,6.3206,6.4038,6.4587,6.4951,6.4951,6.4951,6.4951,6.4951,6.4951,6.4951,6.4951,6.4951,6.4951,6.4951,6.4691,6.4042,6.2972,6.2375,6.1257,5.9542,5.8588,5.8103,5.8103,5.8103,5.8103,5.8103,5.8484,5.8814,2.5785,0.0,3.1057,3.8621,3.7176,3.3123,0.0,2.7489,2.4244,1.9372,1.9428,2.0281,2.0192,2.6567,3.237,3.411,4.0413,4.6348,4.9992,5.3069,0.0,5.6605,5.7316,5.7965,5.8606,5.8936,5.9274,5.9672,6.0257,6.0854,6.1387,6.1543,6.1595,6.1595,6.1595,6.1335,6.0646,6.1133,6.0893,5.9861,5.9776,5.949,5.9092,5.8407,5.8181,5.8381,5.871,5.8996,5.9256,5.917,5.9092,5.9022,5.8536,5.8277,5.8103,5.8103,5.8103,5.8103,5.8103,5.8103,5.8103,5.8103,5.8103,5.8103,5.8103,5.8103,5.8207,5.8736,5.8866,5.8944,5.9341,5.9549,5.9698,5.9698,5.9698,5.9698,5.9698,5.9698,5.9835,6.0335,6.0465,6.0874,6.2016,6.2609,6.3202,6.3856,6.438,6.4795,6.4876,6.4951,6.4951,6.4951,6.4951,6.4951,6.4951,6.4951,6.4899,6.4769,6.4613,6.409,6.2994,6.2219,6.1185,5.9887,5.8744,5.8225,5.8355,5.8355,5.8355,5.8381,5.8996,5.9334,0.0,3.807,3.9124,4.3117,4.3413,4.07,3.3341,3.0852,0.0,2.0225,2.1567,2.3168,2.0081,2.8308,3.4829,3.2493,3.9143,4.5378,4.7749,4.9744,0.0,5.4686,5.5887,5.6754,5.7411,5.8424,5.9118,5.917,6.0069,6.0672,6.0698,6.1309,6.1595,6.1595,6.1595,6.1335,6.0646,6.0698,6.0458,5.9861,5.936,5.9144,5.9092,5.8407,5.8459,5.897,5.8433,5.8822,5.9757,5.9282,5.9092,5.9092,5.9022,5.8614,5.8103,5.8103,5.8103,5.8103,5.8103,5.8103,5.8103,5.8103,5.8103,5.8103,5.8103,5.8103,5.8103,5.8155,5.8225,5.8181,5.8233,5.871,5.917,5.917,5.917,5.917,5.917,5.917,5.9282,5.9854,5.9913,6.0276,6.1465,6.1699,6.2115,6.3254,6.3856,6.4354,6.4873,6.4951,6.4951,6.4951,6.4951,6.4951,6.4951,6.4951,6.4717,6.4246,6.3726,6.2968,6.1777,6.0659,5.9991,5.9861,5.8744,5.8407,5.8996,5.8996,5.8996,5.9066,5.9568,6.0069,3.6403,3.9966,4.1438,4.3915,4.4565,4.2972,3.6684,3.2941,2.912,2.3238,2.188,2.1887,2.248,2.8197,3.3742,3.662,4.1532,4.6045,4.9094,5.0394,0.0,5.3954,5.5836,5.7212,5.7783,5.8225,5.8684,5.9066,5.9731,6.0283,6.0621,6.1283,6.1595,6.1595,6.1595,6.1335,6.0646,6.1056,6.077,5.9861,5.9672,5.9594,5.9568,5.8996,5.884,5.9092,5.884,5.9178,0.0,5.9282,5.9282,5.9542,5.9248,5.871,5.8103,5.8103,5.8103,5.8103,5.8103,5.8103,5.8103,5.8103,5.8103,5.8103,5.8103,5.8103,5.8103,5.8103,5.8103,5.8103,5.8103,5.8329,5.8484,5.8484,5.8484,5.8484,5.8484,5.8814,5.923,5.9802,6.0147,6.064,6.1465,6.1907,6.2271,6.2713,6.357,6.422,6.4454,6.4717,6.4951,6.4951,6.4951,6.4951,6.4951,6.4613,6.4376,6.4168,6.367,6.2994,6.2167,6.1679,6.1107,6.0406,5.992,5.9497,5.9092,5.9412,5.9594,5.9568,5.9438,5.9672,3.9944,4.3118,4.4416,4.5586,4.5967,4.4655,3.9111,3.4524,3.0088,2.524,2.1983,2.0987,2.4112,2.8105,3.2845,3.8739,4.2832,4.6452,4.977,5.0861,0.0,5.3434,5.5332,5.6761,5.7247,5.7792,5.8329,5.8762,5.949,6.0017,6.0361,6.1179,6.1517,6.1335,6.1517,6.1335,6.0646,6.1081,6.09,6.0121,5.9939,5.9939,6.0095,5.9594,5.9412,5.9594,5.9412,5.975,6.04,5.9828,5.9783,6.0069,5.9542,5.897,5.8407,5.8225,5.8103,5.8103,5.8103,5.8103,5.8103,5.8103,5.8103,5.8103,5.8103,5.8103,5.8103,5.8103,5.8103,5.8103,5.8103,5.8277,5.8381,5.8199,5.8277,5.8433,5.8433,5.8788,5.9282,5.9965,6.0387,6.0874,6.1517,6.1933,6.2198,6.238,6.3055,6.3752,6.4116,6.4432,6.4743,6.4925,6.4951,6.4795,6.4432,6.4116,6.3804,6.3575,6.3258,6.2791,6.2193,6.1964,6.1575,6.0932,6.0569,6.0147,5.9594,5.962,5.9783,6.0121,5.9594,5.962,4.6134,4.8782,4.8782,4.8782,4.8294,4.6322,4.0472,3.5758,3.1122,2.5687,2.2145,2.1087,2.4496,2.8306,3.2608,3.7741,4.2363,4.6322,4.9176,5.059,5.1771,5.2915,5.4099,5.5035,5.555,5.716,5.8103,5.8103,5.9212,5.9861,5.9861,6.0971,6.1335,6.0672,6.1263,6.1335,6.0672,6.0672,6.0672,6.0646,6.0147,6.0147,6.0646,6.0121,6.0173,6.0621,6.0095,6.0555,6.1543,6.088,6.0646,6.0595,6.0069,5.9568,5.904,5.8381,5.8103,5.8103,5.8103,5.8103,5.8103,5.8103,5.8103,5.8103,5.8103,5.8103,5.8103,5.8103,5.8103,5.8103,5.8103,5.8632,5.8918,5.8277,5.8632,5.9118,5.9092,5.9118,5.9386,6.0439,6.0646,6.0874,6.1491,6.1595,6.1803,6.2302,6.2406,6.2821,6.3986,6.4142,6.4376,6.4873,6.4876,6.4484,6.3462,6.3358,6.305,6.2432,6.2406,6.2146,6.1621,6.1004,6.0978,6.1595,6.0458,6.0147,6.0646,5.962,5.9646,6.0621,6.0121,6.0173,4.6941,4.9068,4.9343,4.9343,4.8928,4.7622,4.4212,3.784,3.1855,2.9026,2.3974,2.1781,2.7556,3.0244,3.4151,4.2005,4.48,4.7084,5.033,5.1121,5.1862,5.346,5.4333,5.5165,5.6053,5.703,5.7731,5.8077,5.8848,5.9308,5.9308,6.001,6.0458,6.0646,6.0874,6.1056,6.1335,6.1315,6.1315,6.1335,6.0718,6.0744,6.1289,6.0718,6.0491,6.0621,6.0095,6.0276,6.09,6.0354,6.0328,6.0646,6.0465,5.9861,5.9092,5.8866,5.851,5.8103,5.8103,5.8103,5.8103,5.8103,5.8103,5.8103,5.8103,5.8103,5.8103,5.8103,5.8103,5.8103,5.8103,5.8632,5.8918,5.8277,5.89,5.9542,5.9196,5.9386,5.975,6.0043,6.0387,6.0698,6.0926,6.1289,6.1673,6.1829,6.2146,6.251,6.2873,6.3648,6.4064,6.383,6.3852,6.3722,6.3384,6.2947,6.2635,6.2406,6.2016,6.1777,6.1621,6.1439,6.1439,6.1595,6.1283,6.0952,6.0646,6.0815,6.0607,6.0121,6.0789,6.0763,4.7311,4.9161,4.9566,4.9566,4.9343,4.8434,4.5881,4.0049,3.4262,3.0833,2.5881,2.3874,2.9413,3.1553,3.5306,4.3891,4.6408,4.8133,5.0653,5.1589,5.2473,5.368,5.4604,5.5462,5.627,5.6978,5.755,5.8077,5.8736,5.897,5.8736,5.9256,5.9679,6.0017,6.0413,6.0874,6.1211,6.1491,6.1595,6.1595,6.1211,6.1211,6.1595,6.1211,6.103,6.103,6.0692,6.0718,6.1004,6.0666,6.0744,6.103,6.075,6.0231,5.9672,5.923,5.884,5.8459,5.8225,5.8103,5.8103,5.8103,5.8103,5.8103,5.8103,5.8103,5.8103,5.8103,5.8103,5.8103,5.8103,5.8407,5.8632,5.8251,5.903,5.9802,5.9464,5.9672,5.9991,6.0503,6.0614,6.0724,6.1004,6.1387,6.1595,6.1595,6.1907,6.2146,6.238,6.3003,6.344,6.3384,6.315,6.2916,6.2708,6.2323,6.2068,6.2068,6.1803,6.1595,6.1595,6.1595,6.1595,6.1595,6.1595,6.1439,6.103,6.1159,6.0978,6.0581,6.1004,6.1023,4.7307,4.9109,4.9566,4.9655,4.9681,4.8891,4.6036,4.217,3.7489,3.1413,2.7952,2.6995,3.0273,3.2578,3.6501,4.4213,4.7369,4.9302,5.0587,5.2044,5.32,5.3758,0.0,0.0,5.6219,5.6848,5.742,5.7974,5.8606,5.8684,5.8129,5.8684,5.904,5.9092,6.0017,6.0543,6.0646,6.1211,6.1543,6.1595,6.1595,6.1595,6.1595,6.1595,6.1595,6.1595,6.1543,6.1543,6.1595,6.1543,6.1543,6.1543,6.0932,6.0698,6.0517,5.9594,5.9152,5.904,5.8407,5.8199,5.8103,5.8103,5.8103,5.8103,5.8103,5.8103,5.8129,5.8225,5.8155,5.8129,5.8225,5.8155,5.8129,5.8225,5.9108,5.9913,5.9861,5.9861,6.0218,6.1309,6.1004,6.0796,6.1439,6.1569,6.1595,6.1595,6.1595,6.1777,6.225,6.2354,6.2635,6.315,6.2687,6.212,6.1647,6.1595,6.1595,6.1595,6.1595,6.1595,6.1595,6.1595,6.1595,6.1595,6.1595,6.1595,6.1595,6.103,6.1056,6.1595,6.103,6.1056,4.7353,4.8787,4.9707,5.0186,5.0353,4.9599,4.6703,4.3075,3.8421,3.178,3.0233,3.0178,3.0529,3.4764,4.0053,4.5747,4.8226,5.0122,5.2252,5.2421,5.2654,5.3732,5.407,0.0,5.5638,5.5887,5.6407,5.7463,5.7645,5.7809,5.8103,5.8277,5.8536,5.9092,5.9282,5.9809,6.0646,6.0776,6.1107,6.1595,6.1595,6.1595,6.1595,6.1595,6.1595,6.1569,6.1081,6.1133,6.1569,6.1081,6.1159,6.1595,6.1465,6.1107,6.0621,6.0387,5.9783,5.9092,5.8918,5.8536,5.8103,5.8103,5.8103,5.8103,5.8103,5.8103,5.8207,5.8762,5.851,5.8207,5.8762,5.8484,5.8277,5.8762,5.9705,6.0406,5.9965,5.9861,6.0069,6.0698,6.0432,6.0224,6.0796,6.1309,6.1595,6.1595,6.1595,6.1647,6.1777,6.212,6.2276,6.2057,6.1855,6.1751,6.1621,6.1595,6.1595,6.1595,6.1595,6.1595,6.1595,6.1595,6.1595,6.1595,6.1595,6.1595,6.1595,6.1491,6.1491,6.1595,6.1465,6.1491,4.7048,4.833,4.9317,4.9926,5.0082,4.9614,4.7873,4.5528,4.1971,3.5884,3.4485,3.4261,3.3874,3.7336,4.1695,4.5963,4.8772,5.0757,5.1732,5.1992,5.2316,5.2913,5.3498,5.424,5.5124,5.5446,5.6095,5.7238,5.7359,5.7489,5.7731,5.7757,5.8017,5.8632,5.8918,5.9334,5.9887,6.0387,6.0802,6.1159,6.1465,6.1595,6.1595,6.1595,6.1595,6.1595,6.1283,6.1335,6.1595,6.1237,6.1289,6.1595,6.1595,6.1413,6.1081,6.075,6.0147,5.9412,5.9152,5.8684,5.8207,5.8796,5.8796,5.8614,5.8874,5.877,5.8692,5.9308,5.9048,5.8736,5.9308,5.9186,5.9056,5.9386,5.9861,6.0302,6.025,6.0043,6.0095,6.0952,6.0432,6.0121,6.0978,6.1413,6.1595,6.1595,6.1595,6.1595,6.1595,6.1855,6.1933,6.1621,6.1595,6.1595,6.1595,6.1595,6.1595,6.1595,6.1595,6.1595,6.1595,6.1595,6.1595,6.1595,6.1595,6.1595,6.1595,6.1595,6.1595,6.1595,6.1595,6.1595,4.5661,4.7149,4.8652,4.9291,4.9525,4.9384,4.8746,4.7863,4.5665,4.0375,3.8993,3.8519,3.7829,4.0181,4.3265,4.6489,4.9588,5.1511,5.1186,5.1797,5.2213,0.0,5.2979,5.381,5.4567,5.5046,5.5784,5.6969,5.6969,5.6995,5.716,5.7307,5.7524,5.7948,5.8606,5.897,5.9092,5.9939,6.0413,6.0517,6.1133,6.1465,6.1465,6.1569,6.1595,6.1595,6.1595,6.1595,6.1595,6.1595,6.1595,6.1595,6.1595,6.1595,6.1543,6.103,6.0432,5.9809,5.949,5.8796,5.8285,5.9367,5.9516,5.9282,5.9646,5.949,5.9334,5.9835,5.9646,5.9334,5.9861,5.9913,5.9861,5.9861,5.9861,6.0017,6.0543,6.0328,6.0302,6.1413,6.0685,6.0224,6.1413,6.1595,6.1595,6.1595,6.1595,6.1595,6.1595,6.1595,6.1595,6.1595,6.1595,6.1595,6.1595,6.1595,6.1595,6.1595,6.1595,6.1595,6.1595,6.1595,6.1595,6.1595,6.1595,6.1595,6.1595,6.0718,6.0277,6.0277,5.9419,5.9002,4.1372,4.4147,4.7525,4.8626,4.9239,4.928,4.818,4.7817,4.6283,4.114,4.1526,4.2015,3.9611,4.3041,4.7078,4.9577,0.0,5.2967,5.3382,5.3148,5.2733,5.2161,5.2238,5.2732,5.3862,5.4018,5.4563,5.5732,5.5384,5.554,5.6468,5.703,5.7385,5.742,5.7965,5.8554,5.9092,5.9204,5.9516,5.9965,6.0491,6.0776,6.0776,6.1387,6.1595,6.1595,6.1595,6.1595,6.1595,6.1595,6.1595,6.1595,6.1595,6.1595,6.1595,6.1517,6.0815,5.9913,6.0328,5.9401,5.8207,5.8944,5.9464,5.9724,5.9308,5.9464,5.9861,6.0387,6.0173,5.9887,6.0387,6.0224,5.9861,5.9861,5.9861,6.0017,6.0543,6.0595,6.077,6.1465,6.0685,6.0224,6.1413,6.1595,6.1595,6.1595,6.1595,6.1595,6.1595,6.1595,6.1595,6.1595,6.1595,6.1595,6.1595,6.1595,6.1595,6.1595,6.1595,6.1595,6.1595,6.1595,6.1595,6.1595,6.1595,6.1595,6.1595,5.7215,5.5027,5.4933,5.0537,4.8494,3.8651,4.1202,4.3983,4.7036,4.7993,4.82,4.833,4.8086,4.7293,4.5419,4.5078,4.4704,4.3504,4.5561,4.7827,4.885,5.0498,5.1732,5.1953,5.1771,5.155,0.0,5.1758,0.0,5.2823,5.3226,5.3902,5.5046,5.4604,5.4786,5.5872,5.6225,5.6641,5.7333,5.755,5.7965,5.8536,5.8936,5.9222,5.9438,5.9965,6.0224,6.0224,6.0529,6.0633,6.0633,6.0633,6.0633,6.0685,6.0952,6.1081,6.1107,6.1465,6.1595,6.1595,6.1595,6.103,6.0309,6.0569,5.9531,5.8311,5.9575,5.9913,5.9939,6.0374,6.0426,6.0458,6.103,6.077,6.0413,6.103,6.1004,6.0763,6.0406,6.0588,6.0841,6.0672,6.0952,6.1056,6.0711,6.0244,6.0224,6.1413,6.1595,6.1595,6.1595,6.1595,6.1595,6.1595,6.1595,6.1595,6.1595,6.1595,6.1595,6.1595,6.1595,6.1595,6.1595,6.1595,6.1595,6.1595,6.1595,6.1595,6.1595,6.1595,6.1595,6.1595,5.654,5.4047,5.3907,4.8824,4.6466,3.4482,3.6676,3.8989,4.2929,4.4615,4.5609,4.6721,4.7319,4.7801,4.8408,4.7197,4.6209,4.6781,4.7421,4.805,4.8776,5.0174,5.1134,5.0978,5.0913,0.0,5.0316,0.0,5.1719,5.1875,5.2473,5.3226,5.4281,5.3902,5.4147,5.5358,5.5524,5.5991,5.6891,5.7203,5.7567,5.7939,5.8554,5.884,5.884,5.9412,5.9672,5.9698,5.9783,5.9861,5.9861,5.9861,5.9861,5.9887,6.0302,6.0439,6.0465,6.0997,6.1179,6.1179,6.1179,6.077,6.0302,6.0387,5.9608,5.877,5.9913,6.0069,5.9991,6.0737,6.0822,6.075,6.1211,6.1133,6.1004,6.1491,6.1595,6.1491,6.103,6.1283,6.1491,6.1004,6.1263,6.1309,6.0276,6.0199,6.0555,6.1257,6.1517,6.1595,6.1595,6.1595,6.1595,6.1595,6.1595,6.1595,6.1595,6.1595,6.1595,6.1595,6.1595,6.1595,6.1595,6.1595,6.1595,6.1595,6.1595,6.1595,6.1595,6.1465,6.0764,5.9541,5.433,5.1127,4.9801,4.4791,4.2484,2.718,2.9452,3.2661,3.4869,3.8017,4.081,4.1751,4.4628,4.7239,4.7739,4.6494,4.601,4.8262,4.8226,4.8699,5.1434,5.2459,5.2707,5.2083,5.2005,5.1408,0.0,0.0,0.0,0.0,0.0,5.2433,5.311,5.3136,5.363,5.4816,5.5332,5.5586,5.5706,5.6744,5.7359,5.7385,5.7913,5.8199,5.8155,5.884,5.9144,5.917,5.9646,5.9861,5.9861,5.9861,5.9861,5.9861,5.9887,5.9887,5.9913,5.9939,5.9984,5.9984,5.9984,5.962,5.9274,5.9705,5.9835,5.9705,5.9282,5.949,5.9802,5.9334,5.9861,6.0646,6.0698,6.1107,6.1569,6.1595,6.1595,6.1595,6.1569,6.1595,6.1595,6.1569,6.1595,6.1439,6.0724,6.1107,6.1361,6.0776,6.1185,6.1595,6.1595,6.1595,6.1595,6.1595,6.1595,6.1595,6.1595,6.1595,6.1595,6.1595,6.1595,6.1595,6.1595,6.1595,6.1595,6.1595,6.1595,6.1595,6.1595,6.103,5.8433,5.3868,4.828,4.3201,3.8606,3.3889,3.1685,2.4412,2.6374,2.8572,3.2243,3.4284,3.5559,3.6172,3.7571,3.9611,4.2905,4.3222,4.3164,4.4006,4.6806,4.8387,4.6764,4.9286,5.1199,5.0552,5.0474,5.0148,4.9161,4.9926,5.0613,5.0821,5.0965,5.1485,5.2382,5.2459,5.2953,5.4136,5.4355,5.4823,5.5576,5.6017,5.6381,5.6702,5.691,5.7195,5.7627,5.8199,5.8459,5.8459,5.8666,5.877,5.877,5.877,5.877,5.8796,5.9204,5.936,5.9386,5.9705,5.9861,5.9861,5.9861,5.9776,5.9516,5.8952,5.877,5.8796,5.8996,5.9204,5.9386,5.9542,5.9835,6.0147,6.0147,6.0302,6.0562,6.09,6.1004,6.1107,6.1517,6.1595,6.1595,6.1595,6.1595,6.1439,6.0776,6.1159,6.1413,6.075,6.1185,6.1595,6.1595,6.1595,6.1595,6.1595,6.1595,6.1595,6.1595,6.1595,6.1595,6.1595,6.1595,6.1595,6.1595,6.1595,6.1439,6.103,6.1004,5.9382,5.5947,5.5664,5.3155,4.8305,4.3035,3.9605,3.7813,3.2811,3.055,2.1996,2.3106,2.3915,2.7019,2.9087,3.0523,3.109,3.2513,3.4611,3.7936,3.9805,4.1041,4.1607,4.5697,4.8248,4.6116,4.8604,5.0498,4.9707,4.9566,4.9317,4.8538,4.9328,5.0041,5.0186,5.0405,5.0925,5.1745,5.2005,5.2498,5.3538,5.359,5.4018,5.4979,5.5254,5.5576,5.6131,5.627,5.6598,5.703,5.7351,5.7532,5.7532,5.774,5.7922,5.8103,5.8103,5.8103,5.8129,5.8562,5.8762,5.8814,5.9134,5.929,5.929,5.929,5.916,5.8874,5.787,5.7792,5.8129,5.8424,5.8606,5.884,5.916,5.9464,5.962,5.962,5.975,5.9939,6.0328,6.0406,6.051,6.09,6.1023,6.1023,6.1023,6.1179,6.1159,6.0724,6.1159,6.1491,6.1056,6.1315,6.1595,6.1595,6.1595,6.1595,6.1595,6.1595,6.1595,6.1595,6.1595,6.1595,6.1595,6.1595,6.1595,6.1595,6.1413,6.1107,6.0672,6.0465,5.7958,5.2765,5.2491,4.9254,4.28,3.9232,3.6668,3.5024,3.172,3.02,1.9811,1.9473,1.8681,1.8971,2.2359,2.5803,2.6422,2.9726,3.2729,3.3134,3.6369,3.9625,4.1306,4.4794,4.8082,4.9972,5.0749,5.0761,4.9747,4.9566,4.9124,4.8009,4.8408,4.8979,4.9488,5.0108,5.0717,5.1213,5.1719,5.233,5.2967,5.3032,5.3278,5.381,5.4463,5.5035,5.555,5.6079,5.6322,5.6348,5.6348,5.6348,5.6374,5.703,5.7576,5.8051,5.8051,5.8051,5.8051,5.8051,5.8051,5.8051,5.8051,5.8051,5.8051,5.8051,5.7757,5.7255,5.6598,5.7117,5.7974,5.7472,5.7653,5.8051,5.8051,5.8484,5.904,5.904,5.9412,5.9783,5.9809,5.9835,5.9835,5.9861,5.9861,5.9861,5.9861,6.0231,6.0621,6.0621,6.1133,6.1543,6.1543,6.1569,6.1569,6.1569,6.1569,6.1595,6.1595,6.1595,6.1595,6.1595,6.1595,6.1595,6.1595,6.1595,6.1569,6.1569,6.1004,6.0621,6.0595,5.9985,5.7333,5.2515,5.1765,4.6736,3.725,3.6723,3.4106,2.9541,2.9786,2.9871,2.257,1.9991,1.7798,1.8354,1.9722,2.0979,2.1149,2.2247,2.4125,2.7511,2.9633,3.1288,3.2606,3.6418,4.0439,4.3685,4.5443,4.7295,4.9913,4.9862,4.9317,4.859,4.8678,4.886,4.8979,4.9172,4.9484,5.0018,5.0627,5.1199,5.1771,5.2148,5.2641,5.3252,5.3824,5.4173,5.4329,5.4942,5.5462,5.5794,5.5794,5.6001,5.6374,5.6572,5.6728,5.6884,5.6884,5.6884,5.6884,5.6884,5.6884,5.6884,5.6884,5.6884,5.6884,5.6884,5.678,5.6624,5.6426,5.6582,5.6858,5.6702,5.6754,5.6884,5.6884,5.6987,5.7238,5.7697,5.7931,5.8242,5.9074,5.9282,5.9386,5.9757,5.9861,5.9861,5.9861,5.9965,6.0095,6.0095,6.0224,6.0374,6.0374,6.0666,6.0926,6.0926,6.0926,6.1081,6.1543,6.1595,6.1595,6.1595,6.1595,6.1595,6.1595,6.1185,6.0926,6.0926,6.0406,5.9913,5.9542,5.6031,5.1513,4.6013,4.2365,3.7392,3.1027,3.0912,3.017,2.8844,2.8923,2.9081,2.0653,1.7624,1.6219,1.6811,1.7128,1.7575,1.8786,1.8797,1.9531,2.2959,2.5359,2.7373,2.9059,3.2748,3.6889,4.0909,4.1619,4.3049,4.7122,4.7143,4.7215,4.8625,4.8574,4.8382,4.8382,4.8652,4.8912,4.9213,4.9796,5.0394,5.0965,5.1303,5.181,5.2655,5.2953,5.3239,5.3538,5.411,5.4552,5.4875,5.515,5.5394,5.5732,5.5949,5.6053,5.6079,5.627,5.6374,5.6374,5.6374,5.6374,5.6374,5.6374,5.6374,5.6296,5.5887,5.5887,5.6027,5.581,5.6001,5.6322,5.6131,5.6209,5.6374,5.6374,5.5052,5.3676,5.404,5.2826,5.15,5.2198,5.3787,5.5333,5.5834,5.7422,5.8848,5.9082,5.9341,5.9542,5.9542,5.9705,5.9861,5.9861,6.0121,6.025,6.0043,6.0406,6.0854,6.1543,6.1803,6.2063,6.2343,6.2089,6.1777,6.1237,6.0854,6.0543,6.0309,5.9601,5.9004,5.871,5.3741,4.8493,4.3159,3.8379,3.3547,2.8563,2.8563,2.8563,2.8563,2.8563,2.8502,1.6145,1.4161,1.482,1.4912,1.4863,1.5427,0.0,1.7666,1.743,1.9267,2.2418,2.5535,2.7773,3.0942,3.4737,3.9399,3.8295,3.8337,4.2421,4.2906,4.3948,4.7149,4.6873,4.6483,4.6573,4.705,4.7558,4.7985,4.8128,4.8786,5.0264,4.9965,5.0226,5.115,5.1693,5.2082,5.2217,5.322,5.3758,5.3758,5.4359,5.466,5.4697,5.516,5.5446,5.5524,5.6001,5.6209,5.6209,5.6209,5.6209,5.6209,5.6209,5.6131,5.5898,5.4942,5.489,5.5238,5.4775,5.4897,5.521,5.4739,5.4584,5.4588,5.4588,5.1837,4.8734,4.8847,4.5938,4.2841,4.2941,4.5958,4.925,5.02,5.3542,5.6783,5.7731,5.8355,5.8788,5.891,5.9282,5.9601,5.9653,5.9731,5.962,5.9048,5.9887,6.0848,6.1517,6.2042,6.2661,6.3306,6.2843,6.2042,6.0854,6.0569,6.0231,5.9705,5.8666,5.8,5.7922,5.2091,4.6904,4.2539,3.7435,3.2682,2.8366,2.8366,2.8366,2.8366,2.8366,2.7962,0.0,0.0,0.0,0.0,0.0,0.0,0.0,0.0,1.5011,1.6837,1.7983,1.9152,2.0753,2.243,2.5783,3.2707,3.2594,3.3247,3.7911,4.0987,4.1967,3.9791,3.8615,3.8175,3.869,3.8688,3.9913,4.3096,4.0864,4.2235,4.88,4.6522,4.516,4.5372,4.9321,5.0004,4.6959,5.1129,5.324,5.32,5.3344,5.3616,5.4058,5.4122,5.4474,5.4957,5.5087,5.5139,5.5139,5.5139,5.5139,5.5139,5.5139,5.4567,5.3694,5.346,5.3474,5.3578,5.3448,5.1293,4.8522,4.8428,4.6177,4.3525,4.3525,4.291,4.2355,4.301,4.2541,4.2025,4.2782,4.3609,4.5247,4.9035,5.0583,5.2237,5.5936,5.6832,5.7039,5.7593,5.7775,5.7965,5.8407,5.8918,5.9022,5.8407,5.929,6.0406,6.1465,6.2042,6.2661,6.3306,6.3254,6.2734,6.1543,6.0166,5.9152,5.851,5.7835,5.7264,5.6754,4.8288,4.3051,4.1824,3.3403,2.8399,2.7157,2.7157,2.7157,2.7157,2.7157,2.687,0.0,0.0,0.0,0.0,0.0,0.0,0.0,0.0,0.0,0.0,0.0,1.6565,1.6686,0.0,2.0923,2.519,2.6117,2.8153,3.3298,3.5217,3.5413,3.3741,3.4922,3.6023,3.6504,3.632,3.7046,3.9114,3.7564,3.8435,4.2825,4.1331,4.055,4.1003,4.5825,4.7329,4.5017,4.8206,4.9715,4.947,4.7615,4.7994,5.0253,5.0253,5.1595,5.3943,5.3943,5.3943,5.3943,5.3943,5.3943,5.3943,5.3943,5.3578,5.2794,5.052,4.9737,4.9853,4.9703,4.8319,4.6626,4.6626,4.5258,4.3158,4.107,3.8833,3.7164,3.7681,3.6209,3.4635,3.5224,3.7079,4.0033,4.4829,4.7645,5.0565,5.534,5.6374,5.6452,5.678,5.6832,5.6936,5.7221,5.755,5.7731,5.7731,5.8692,5.988,6.0978,6.1861,6.2406,6.2499,6.2193,6.1757,6.1185,5.9575,5.8692,5.8978,5.7679,5.5527,5.2518,4.5399,4.0227,3.7493,3.0513,2.6779,2.6435,2.6435,2.6435,2.6435,2.6186,2.5896,0.0,0.0,0.0,0.0,0.0,0.0,0.0,0.0,0.0,0.0,0.0,0.0,0.0,0.0,0.0,1.9219,2.107,2.394,2.8458,2.8413,2.8142,2.8637,3.1587,3.3763,3.4148,3.3947,3.4206,3.5213,3.4411,3.4839,3.7112,3.6211,3.5987,3.681,4.1375,4.3212,4.1983,4.4033,4.4834,4.4375,4.2289,0.0,4.5209,4.6122,4.7999,5.066,5.1482,5.1801,5.1801,5.1801,5.2303,5.2979,5.1787,5.0884,4.9743,4.6123,4.4886,4.5008,4.4803,4.4277,4.3724,4.3724,4.3166,4.1887,3.8517,3.494,0.0,3.2339,2.9853,2.7217,2.7465,3.0309,3.4339,3.9334,4.3887,4.8238,5.2382,5.4663,5.5672,5.4976,5.5567,5.6245,5.6348,5.479,5.3962,5.5331,5.6798,5.8381,6.0115,6.1549,6.2276,6.1985,6.1471,6.1062,6.0874,5.929,5.8718,5.9627,5.7446,5.3664,4.8283,4.313,3.8061,3.3147,2.8362,2.5935,2.5962,2.5949,2.5883,2.5896,2.4576,2.4153,0.0,0.0,0.0,0.0,0.0,0.0,0.0,0.0,0.0,0.0,0.0,0.0,0.0,0.0,0.0,0.0,2.0345,2.2165,2.2978,2.3047,2.3475,2.476,2.4632,2.4784,2.5611,2.5453,2.6827,3.0574,2.7608,2.8956,3.656,3.3098,0.0,0.0,0.0,3.6329,3.2996,3.7137,3.9196,3.9194,4.271,4.281,4.0057,4.4136,4.4458,4.2065,4.5781,4.7372,4.7372,4.7372,4.9598,5.2532,4.7226,4.3014,3.9937,3.9619,3.9421,3.9216,3.9214,0.0,0.0,3.3187,3.07,2.7587,2.7132,2.6623,2.626,2.6546,2.643,2.6265,2.6514,2.7151,2.8853,3.3501,3.7894,4.1252,4.2068,4.8477,5.3152,4.9954,5.2772,5.582,5.627,4.9063,4.4601,4.8473,5.1341,5.4579,5.8716,6.1081,6.2562,6.3124,6.3098,0.0,6.1595,5.9932,5.9022,5.9196,5.6543,5.2537,4.7089,4.1751,3.6848,3.2459,2.6994,2.467,2.5698,2.5447,2.5368,2.5275,2.1255,2.0208,0.0,0.0,0.0,0.0,0.0,0.0,0.0,0.0,0.0,0.0,0.0,0.0,0.0,0.0,0.0,0.0,1.9149,1.9756,1.9888,2.1334,2.256,2.2995,2.2986,2.3104,2.3473,2.3407,2.4204,2.6369,2.4979,2.5751,2.9612,2.7848,2.6893,2.7189,3.1631,3.3174,3.1522,3.3923,3.5008,3.4754,3.4033,3.4133,3.4958,3.689,3.9581,4.291,4.4499,4.6591,4.887,4.851,4.8055,4.6953,0.0,0.0,0.0,0.0,3.6729,3.433,3.4174,3.2952,3.1484,3.1484,3.0306,2.8443,2.6001,2.5275,2.5328,2.5566,2.5738,2.5856,2.616,2.6409,2.776,3.2332,3.6814,4.0116,4.038,4.5292,4.9222,4.7669,4.7083,0.0,4.7079,4.3655,4.1715,4.3931,4.8146,5.205,5.479,5.8769,6.1393,6.1335,6.1335,6.1127,6.0659,5.9316,0.0,0.0,0.0,5.5105,5.2424,4.4651,0.0,0.0,0.0,2.3193,2.341,2.208,0.0,0.0,1.9927,1.9462,0.0,0.0,0.0,0.0,0.0,0.0,0.0,0.0,0.0,0.0,0.0,0.0,0.0,0.0,0.0,0.0,1.8121,1.8901,1.868,2.0267,2.1485,2.1545,2.2091,2.2398,2.2262,2.2459,2.285,2.3364,2.3549,2.3894,2.4553,2.4274,2.4274,2.4659,2.7919,2.9651,2.9625,3.0375,3.0595,3.0318,2.8411,2.8417,3.0218,3.1438,3.4712,3.9486,4.0455,4.264,4.5484,4.4996,4.3847,4.1662,3.4658,3.3076,3.4701,3.4701,3.2657,2.9875,2.9648,2.9616,2.9609,2.9515,2.946,2.8811,2.5716,2.4852,2.4958,2.5117,2.5289,2.5421,2.5632,2.5975,2.705,3.0347,3.4576,3.7553,3.6585,4.0645,4.4162,4.3055,3.9262,3.6637,3.7875,3.7161,3.7031,3.8777,4.3188,4.7532,5.0977,5.5526,5.8829,5.9752,5.9861,5.9861,5.9861,5.8666,5.8407,5.9594,5.7749,5.6028,5.4628,4.583,3.6787,2.7822,2.4303,2.2183,0.0,0.0,0.0,0.0,0.0,0.0,0.0,0.0,0.0,0.0,0.0,0.0,0.0,0.0,0.0,0.0,0.0,0.0,0.0,0.0,0.0,0.0,0.0,0.0,1.9684,1.9138,1.9106,1.998,2.0774,2.1044,2.053,2.1274,2.1929,2.2212,2.267,2.3368,2.4274,2.3823,2.3902,2.4684,2.4321,2.4382,2.4902,2.5298,2.5497,2.5536,2.9955,2.9879,2.6002,3.0307,3.0182,2.6833,3.0885,3.2701,3.282,3.2804,3.5166,3.8342,3.3161,2.8907,2.5665,2.5665,2.5761,2.583,2.5817,2.5405,2.4862,2.4608,2.4366,2.41,2.3698,2.3744,2.3931,2.3982,2.434,2.4737,2.475,2.521,2.5712,2.587,2.9083,3.1036,2.7019,3.2885,3.7815,3.4012,2.9186,2.7115,3.1419,2.9009,2.7865,3.1947,3.4848,0.0,4.8163,5.1427,5.4715,5.9341,5.9861,5.9861,5.9861,5.8346,5.7879,5.9022,5.6439,5.3413,5.0097,4.3245,3.7073,3.1786,2.5688,2.1985,2.0827,0.0,0.0,0.0,0.0,0.0,0.0,0.0,0.0,0.0,0.0,0.0,0.0,0.0,0.0,0.0,0.0,0.0,0.0,0.0,0.0,0.0,0.0,0.0,0.0,1.7769,1.8528,1.8818,1.9264,1.93,1.8781,1.932,1.9897,2.0353,2.1479,2.2384,2.285,2.3268,2.3648,2.3916,2.41,2.4353,2.4697,2.5078,2.5368,2.5553,2.7137,2.7114,2.5725,2.7233,2.8609,2.9955,3.1226,3.3374,3.5963,3.5531,3.2997,2.9179,2.7123,2.5415,2.4111,2.4111,2.4008,2.3905,2.414,2.4087,2.3839,2.3499,2.321,2.3008,2.2903,2.3039,2.3262,2.3262,2.3684,2.4182,2.4182,2.4787,2.5407,2.5407,2.8856,3.0943,2.6583,3.0163,3.3736,3.2231,2.7841,2.4708,2.5788,2.5719,2.5823,2.6613,3.1273,3.7322,4.438,4.9129,5.3862,5.9309,5.9861,5.9861,5.9861,5.864,5.8043,5.8433,5.4058,5.0653,4.8917,4.0899,3.5231,3.2582,2.7311,2.2969,1.9642,0.0,0.0,0.0,0.0,0.0,0.0,0.0,0.0,0.0,0.0,0.0,0.0,0.0,0.0,0.0,0.0,0.0,0.0,0.0,0.0,0.0,0.0,0.0,0.0,0.0,0.0,1.7919,1.8336,0.0,1.6953,1.7526,1.7997,1.8047,1.9366,2.0424,2.1017,2.1829,2.2524,2.3004,2.3268,2.3615,2.4079,2.4563,2.4906,2.5183,2.5395,2.554,2.554,2.5606,2.7135,2.9628,2.951,3.0972,3.3485,3.275,2.9019,2.3736,2.3298,2.2833,2.2423,2.2635,2.2613,2.2613,2.315,2.3387,2.345,2.2946,2.2209,2.1479,2.134,2.1288,2.1354,2.1775,2.2394,2.3025,2.347,2.4338,2.5078,2.5078,2.7556,2.9104,2.6184,2.7376,2.8926,2.8502,2.5817,2.3249,2.2354,2.3272,2.3955,2.3351,2.7517,3.3538,4.143,4.5953,5.1184,5.823,5.9134,5.916,5.8952,5.8277,5.7005,5.5038,5.1396,4.7557,4.3639,3.7536,3.279,2.9728,2.5896,2.2165,0.0,0.0,0.0,0.0,0.0,0.0,0.0,0.0,0.0,0.0,0.0,0.0,0.0,0.0,0.0,0.0,0.0,0.0,0.0,0.0,0.0,0.0,0.0,0.0,0.0,0.0,0.0,1.73,1.7876,0.0,0.0,0.0,0.0,1.548,1.651,1.7679,1.8797,1.9514,2.0535,2.1974,2.1823,2.208,2.2881,2.3523,2.3958,2.4248,2.488,2.5222,2.5262,2.5487,2.5606,2.5619,2.5619,2.5606,2.55,2.4498,2.3272,2.2014,2.1651,2.0957,2.0266,2.0782,2.1196,2.1651,2.2473,2.3022,2.3251,2.2586,2.107,1.9482,1.9098,1.8625,0.0,0.0,2.0442,2.1406,2.2512,2.3634,2.4579,2.4658,2.5144,2.5513,2.5288,2.451,2.3668,2.2946,2.2775,2.2241,2.0814,0.0,2.1927,2.1974,2.346,2.8443,3.9056,4.2101,4.6813,5.5967,5.7602,5.7861,5.7359,5.7255,5.4897,4.9507,4.8405,4.3928,3.488,3.3143,2.965,2.3897,2.1722,0.0,0.0,0.0,0.0,0.0,0.0,0.0,0.0,0.0,0.0,0.0,0.0,0.0,0.0,0.0,0.0,0.0,0.0,0.0,0.0,0.0,0.0,0.0,0.0,0.0,0.0,1.4483,1.5052,1.7831,1.6109,1.4359,0.0,0.0,0.0,0.0,0.0,0.0,1.6392,1.743,1.8576,1.98,2.0424,2.1182,2.2054,2.2626,2.3025,2.3302,2.3945,2.4446,2.4829,2.4895,2.5092,2.5381,2.5381,2.5091,2.4472,2.2283,2.0957,2.0104,1.8503,1.7709,1.7564,1.7878,1.8062,1.8367,1.9835,2.059,2.0773,1.9936,1.933,1.8748,1.7971,0.0,0.0,0.0,0.0,2.0509,2.0726,2.1644,2.2846,2.4103,2.4525,2.4617,2.4589,2.4061,2.3044,2.1123,2.0226,1.9221,1.7616,1.8252,0.0,1.9228,2.1604,2.6176,3.3911,3.9313,4.4846,5.1034,5.4784,5.6737,5.6624,5.5903,5.3488,4.8885,4.4279,3.9195,3.3529,2.8528,2.4647,2.1946,0.0,0.0,0.0,0.0,0.0,0.0,0.0,0.0,0.0,0.0,0.0,0.0,0.0,0.0,0.0,0.0,0.0,0.0,0.0,0.0,0.0,0.0,0.0,0.0,0.0,0.0,0.0,1.2846,1.3957,1.5543,1.4323,1.2928,0.0,0.0,0.0,0.0,0.0,0.0,0.0,0.0,0.0,1.8005,1.868,1.9175,1.9469,2.0503,2.1169,2.1426,2.2468,2.3136,2.3417,2.3513,2.3839,2.4235,2.4235,2.347,2.212,2.039,1.8884,1.7551,0.0,0.0,0.0,0.0,1.582,1.5981,1.7298,1.7798,1.7774,1.7167,0.0,0.0,0.0,0.0,0.0,0.0,0.0,1.9379,2.0155,2.0951,2.1795,2.2938,2.3457,2.3618,2.3404,2.1598,1.9633,1.8328,1.7549,1.664,1.5041,1.5752,0.0,0.0,0.0,2.4268,3.0965,3.774,4.3923,4.9197,5.3952,5.6676,5.6374,5.3882,5.0238,4.524,3.9522,3.3954,2.8749,2.4639,2.14,0.0,0.0,0.0,0.0,0.0,0.0,0.0,0.0,0.0,0.0,0.0,0.0,0.0,0.0,0.0,0.0,0.0,0.0,0.0,0.0,0.0,0.0,0.0,0.0,0.0,0.0,0.0,0.0,0.0,1.3191,1.2283,0.0,0.0,0.0,0.0,0.0,0.0,0.0,0.0,0.0,0.0,0.0,0.0,0.0,1.6793,1.638,1.7953,1.8897,1.9253,2.0492,2.1162,2.132,2.1499,2.1967,2.2604,2.2209,0.0,1.9257,1.842,0.0,0.0,0.0,0.0,0.0,0.0,0.0,0.0,0.0,0.0,0.0,0.0,0.0,0.0,0.0,0.0,0.0,0.0,0.0,0.0,0.0,0.0,2.0893,2.1141,2.1795,2.2191,2.1439,1.8226,1.5368,1.5169,1.488,1.4271,0.0,0.0,0.0,0.0,0.0,0.0,2.8566,3.6472,4.3363,4.818,5.377,5.6848,5.6235,5.2232,4.7071,4.0665,3.5413,2.9623,2.2978,2.1491,0.0,0.0,0.0,0.0,0.0,0.0,0.0,0.0,0.0,0.0,0.0,0.0,0.0,0.0,0.0,0.0,0.0,0.0,0.0,0.0,0.0,0.0,0.0,0.0,0.0,0.0,0.0,0.0,0.0,0.0,0.0,0.0,0.0,0.0,0.0,0.0,0.0,0.0,0.0,0.0,0.0,0.0,0.0,0.0,0.0,0.0,0.0,0.0,0.0,0.0,1.7672,1.7961,1.8887,1.8702,1.9456,2.0714,1.8343,1.7457,1.7588,1.5847,0.0,0.0,0.0,0.0,0.0,0.0,0.0,0.0,0.0,0.0,0.0,0.0,0.0,0.0,0.0,0.0,0.0,0.0,0.0,0.0,0.0,0.0,1.8791,1.8208,1.876,1.8908,1.7089,0.0,0.0,0.0,0.0,0.0,0.0,0.0,0.0,0.0,0.0,0.0,2.2962,3.3653,4.1479,4.2881,5.0744,5.5654,5.5139,5.3847,4.9077,3.9902,3.6197,3.0487,0.0,0.0,0.0,0.0,0.0,0.0,0.0,0.0,0.0,0.0,0.0,0.0,0.0,0.0,0.0,0.0,0.0,0.0,0.0,0.0,0.0,0.0,0.0,0.0,0.0,0.0,0.0,0.0,0.0,0.0,0.0,0.0,0.0,0.0,0.0,0.0,0.0,0.0,0.0,0.0,0.0,0.0,0.0,0.0,0.0,0.0,0.0,0.0,0.0,0.0,0.0,0.0,0.0,0.0,0.0,0.0,0.0,0.0,1.5807,1.4606,0.0,0.0,0.0,0.0,0.0,0.0,0.0,0.0,0.0,0.0,0.0,0.0,0.0,0.0,0.0,0.0,0.0,0.0,0.0,0.0,0.0,0.0,0.0,0.0,0.0,0.0,0.0,0.0,0.0,0.0,0.0,0.0,0.0,0.0,0.0,0.0,0.0,0.0,0.0,0.0,2.107,3.2301,4.0613,4.1973,4.7858,5.1702,5.1868,4.8928,4.3445,3.497,3.2308,0.0,0.0,0.0,0.0,0.0,0.0,0.0,0.0,0.0,0.0,0.0,0.0,0.0,0.0,0.0,0.0,0.0,0.0,0.0,0.0,0.0,0.0,0.0,0.0,0.0,0.0,0.0,0.0,0.0,0.0,0.0,0.0,0.0,0.0,0.0,0.0,0.0,0.0,0.0,0.0,0.0,0.0,0.0,0.0,0.0,0.0,0.0,0.0,0.0,0.0,0.0,0.0,0.0,0.0,0.0,0.0,0.0,0.0,0.0,1.3602,1.2281,0.0,0.0,0.0,0.0,0.0,0.0,0.0,0.0,0.0,0.0,0.0,0.0,0.0,0.0,0.0,0.0,0.0,0.0,0.0,0.0,0.0,0.0,0.0,0.0,0.0,0.0,0.0,0.0,0.0,0.0,0.0,0.0,0.0,0.0,0.0,0.0,0.0,0.0,0.0,0.0,2.0366,3.0884,3.889,4.0684,4.4413,4.6951,4.7405,4.3327,3.7629,3.0339,2.8025,0.0,0.0,0.0,0.0,0.0,0.0,0.0,0.0,0.0,0.0,0.0,0.0,0.0,0.0,0.0,0.0,0.0,0.0,0.0,0.0,0.0,0.0,0.0,0.0,0.0,0.0,0.0,0.0,0.0,0.0,0.0,0.0,0.0,0.0,0.0,0.0,0.0,0.0,0.0,0.0,0.0,0.0,0.0,0.0,0.0,0.0,0.0,0.0,0.0,0.0,0.0,0.0,0.0,0.0,0.0,0.0,0.0,0.0,0.0,0.0,0.0,0.0,0.0,0.0,0.0,0.0,0.0,0.0,0.0,0.0,0.0,0.0,0.0,0.0,0.0,0.0,0.0,0.0,0.0,0.0,0.0,0.0,0.0,0.0,0.0,0.0,0.0,0.0,0.0,0.0,0.0,0.0,0.0,0.0,0.0,0.0,0.0,0.0,0.0,0.0,0.0,1.9476,2.8124,3.4484,3.5249,3.9743,4.2508,4.2002,4.1018,3.7192,2.9533,0.0,0.0,0.0,0.0,0.0,0.0,0.0,0.0,0.0,0.0,0.0,0.0,0.0,0.0,0.0,0.0,0.0,0.0,0.0,0.0,0.0,0.0,0.0,0.0,0.0,0.0,0.0,0.0,0.0,0.0,0.0,0.0,0.0,0.0,0.0,0.0,0.0,0.0,0.0,0.0,0.0,0.0,0.0,0.0,0.0,0.0,0.0,0.0,0.0,0.0,0.0,0.0,0.0,0.0,0.0,0.0,0.0,0.0,0.0,0.0,0.0,0.0,0.0,0.0,0.0,0.0,0.0,0.0,0.0,0.0,0.0,0.0,0.0,0.0,0.0,0.0,0.0,0.0,0.0,0.0,0.0,0.0,0.0,0.0,0.0,0.0,0.0,0.0,0.0,0.0,0.0,0.0,0.0,0.0,0.0,0.0,0.0,0.0,0.0,0.0,0.0,0.0,1.9396,2.7302,3.3262,3.4446,3.6041,3.7071,3.7223,3.6407,3.2389,2.4096,0.0,0.0,0.0,0.0,0.0,0.0,0.0,0.0,0.0,0.0,0.0,0.0,0.0,0.0,0.0,0.0,0.0,0.0,0.0,0.0,0.0,0.0,0.0,0.0,0.0,0.0,0.0,0.0,0.0,0.0,0.0,0.0,0.0,0.0,0.0,0.0,0.0,0.0,0.0,0.0,0.0,0.0,0.0,0.0,0.0,0.0,0.0,0.0,0.0,0.0,0.0,0.0,0.0,0.0,0.0,0.0,0.0,0.0,0.0,0.0,0.0,0.0,0.0,0.0,0.0,0.0,0.0,0.0,0.0,0.0,0.0,0.0,0.0,0.0,0.0,0.0,0.0,0.0,0.0,0.0,0.0,0.0,0.0,0.0,0.0,0.0,0.0,0.0,0.0,0.0,0.0,0.0,0.0,0.0,0.0,0.0,0.0,0.0,0.0,0.0,0.0,0.0,1.925,2.5909,3.1022,3.2177,3.2065,3.2105,3.2568,3.1455,2.7976,2.1522,0.0,0.0,0.0,0.0,0.0,0.0,0.0,0.0,0.0,0.0,0.0,0.0,0.0,0.0,0.0,0.0,0.0,0.0,0.0,0.0,0.0,0.0,0.0,0.0,0.0,0.0,0.0,0.0,0.0,0.0,0.0,0.0,0.0,0.0,0.0,0.0,0.0,0.0,0.0,0.0,0.0,0.0,0.0,0.0,0.0,0.0,0.0,0.0,0.0,0.0,0.0,0.0,0.0,0.0,0.0,0.0,0.0,0.0,0.0,0.0,0.0,0.0,0.0,0.0,0.0,0.0,0.0,0.0,0.0,0.0,0.0,0.0,0.0,0.0,0.0,0.0,0.0,0.0,0.0,0.0,0.0,0.0,0.0,0.0,0.0,0.0,0.0,0.0,0.0,0.0,0.0,0.0,0.0,0.0,0.0,0.0,0.0,0.0,0.0,0.0,0.0,0.0,1.8793,2.3246,2.6595,2.6885,2.7481,2.7881,2.7881,2.6532,2.516,0.0,0.0,0.0,0.0,0.0,0.0,0.0,0.0,0.0,0.0,0.0,0.0,0.0,0.0,0.0,0.0,0.0,0.0,0.0,0.0,0.0,0.0,0.0,0.0,0.0,0.0,0.0,0.0,0.0,0.0,0.0,0.0,0.0,0.0,0.0,0.0,0.0,0.0,0.0,0.0,0.0,0.0,0.0,0.0,0.0,0.0,0.0,0.0,0.0,0.0,0.0,0.0,0.0,0.0,0.0,0.0,0.0,0.0,0.0,0.0,0.0,0.0,0.0,0.0,0.0,0.0,0.0,0.0,0.0,0.0,0.0,0.0,0.0,0.0,0.0,0.0,0.0,0.0,0.0,0.0,0.0,0.0,0.0,0.0,0.0,0.0,0.0,0.0,0.0,0.0,0.0,0.0,0.0,0.0,0.0,0.0,0.0,0.0,0.0,0.0,0.0,0.0,0.0,1.8564,2.2217,2.5237,2.6657,2.7396,2.7557,2.6909,2.6292,2.5113,2.3303,0.0,0.0,0.0,0.0,0.0,0.0,0.0,0.0,0.0,0.0,0.0,0.0,0.0,0.0,0.0,0.0,0.0,0.0,0.0,0.0,0.0,0.0,0.0,0.0,0.0,0.0,0.0,0.0,0.0,0.0,0.0,0.0,0.0,0.0,0.0,0.0,0.0,0.0,0.0,0.0,0.0,0.0,0.0,0.0,0.0,0.0,0.0,0.0,0.0,0.0,0.0,0.0,0.0,0.0,0.0,0.0,0.0,0.0,0.0,0.0,0.0,0.0,0.0,0.0,0.0,0.0,0.0,0.0,0.0,0.0,0.0,0.0,0.0,0.0,0.0,0.0,0.0,0.0,0.0,0.0,0.0,0.0,0.0,0.0,0.0,0.0,0.0,0.0,0.0,0.0,0.0,0.0,0.0,0.0,0.0,0.0,0.0,0.0,0.0,0.0,0.0,0.0,0.0,2.2072,2.4736,2.6514,2.7041,2.708,2.6646,2.5935,2.5101,2.4102,0.0,0.0,0.0,0.0,0.0,0.0,0.0,0.0,0.0,0.0,0.0,0.0,0.0,0.0,0.0,0.0,0.0,0.0,0.0,0.0,0.0,0.0,0.0,0.0,0.0,0.0,0.0,0.0,0.0,0.0,0.0,0.0,0.0,0.0,0.0,0.0,0.0,0.0,0.0,0.0,0.0,0.0,0.0,0.0,0.0,0.0,0.0,0.0,0.0,0.0,0.0,0.0,0.0,0.0,0.0,0.0,0.0,0.0,0.0,0.0,0.0,0.0,0.0,0.0,0.0,0.0,0.0,0.0,0.0,0.0,0.0,0.0,0.0,0.0,0.0,0.0,0.0,0.0,0.0,0.0,0.0,0.0,0.0,0.0,0.0,0.0,0.0,0.0,0.0,0.0,0.0,0.0,0.0,0.0,0.0,0.0,0.0,0.0,0.0,0.0,0.0,0.0,0.0,2.2499,2.4736,2.6225,2.6448,2.6513,2.671,2.5527,2.4991,2.5536,1.9909,0.0,0.0,0.0,0.0,0.0,0.0,0.0,0.0,0.0,0.0,0.0,0.0,0.0,0.0,0.0,0.0,0.0,0.0,0.0,0.0,0.0,0.0,0.0,0.0,0.0,0.0,0.0,0.0,0.0,0.0,0.0,0.0,0.0,0.0,0.0,0.0,0.0,0.0,0.0,0.0,0.0,0.0,0.0,0.0,0.0,0.0,0.0,0.0,0.0,0.0,0.0,0.0,0.0,0.0,0.0,0.0,0.0,0.0,0.0,0.0,0.0,0.0,0.0,0.0,0.0,0.0,0.0,0.0,0.0,0.0,0.0,0.0,0.0,0.0,0.0,0.0,0.0,0.0,0.0,0.0,0.0,0.0,0.0,0.0,0.0,0.0,0.0,0.0,0.0,0.0,0.0,0.0,0.0,0.0,0.0,0.0,0.0,0.0,0.0,0.0,0.0,0.0,2.1475,2.347,2.5632,2.6369,2.6527,2.5962,2.5447,2.4473,2.2961,1.9055,0.0,0.0,0.0,0.0,0.0,0.0,0.0,0.0,0.0,0.0,0.0,0.0,0.0,0.0,0.0,0.0,0.0,0.0,0.0,0.0,0.0,0.0,0.0,0.0,0.0,0.0,0.0,0.0,0.0,0.0,0.0,0.0,0.0,0.0,0.0,0.0,0.0,0.0,0.0,0.0,0.0,0.0,0.0,0.0,0.0,0.0,0.0,0.0,0.0,0.0,0.0,0.0,0.0,0.0,0.0,0.0,0.0,0.0,0.0,0.0,0.0,0.0,0.0,0.0,0.0,0.0,0.0,0.0,0.0,0.0,0.0,0.0,0.0,0.0,0.0,0.0,0.0,0.0,0.0,0.0,0.0,0.0,0.0,0.0,0.0,0.0,0.0,0.0,0.0,0.0,0.0,0.0,0.0,0.0,0.0,0.0,0.0,0.0,0.0,0.0,0.0,0.0,1.9277,2.2859,2.5245,2.5843,2.5976,2.554,2.4865,2.3605,2.1565,1.8193,0.0,0.0,0.0,0.0,0.0,0.0,0.0,0.0,0.0,0.0,0.0,0.0,0.0,0.0,0.0,0.0,0.0,0.0,0.0,0.0,0.0,0.0,0.0,0.0,0.0,0.0,0.0,0.0,0.0,0.0,0.0,0.0,0.0,0.0,0.0,0.0,0.0,0.0,0.0,0.0,0.0,0.0,0.0,0.0,0.0,0.0,0.0,0.0,0.0,0.0,0.0,0.0,0.0,0.0,0.0,0.0,0.0,0.0,0.0,0.0,0.0,0.0,0.0,0.0,0.0,0.0,0.0,0.0,0.0,0.0,0.0,0.0,0.0,0.0,0.0,0.0,0.0,0.0,0.0,0.0,0.0,0.0,0.0,0.0,0.0,0.0,0.0,0.0,0.0,0.0,0.0,0.0,0.0,0.0,0.0,0.0,0.0,0.0,0.0,0.0,0.0,0.0,0.0,2.1786,2.4576,2.5005,2.5117,2.5157,2.4048,2.2475,2.0395,0.0,0.0,0.0,0.0,0.0,0.0,0.0,0.0,0.0,0.0,0.0,0.0,0.0,0.0,0.0,0.0,0.0,0.0,0.0,0.0,0.0,0.0,0.0,0.0,0.0,0.0,0.0,0.0,0.0,0.0,0.0,0.0,0.0,0.0,0.0,0.0,0.0,0.0,0.0,0.0,0.0,0.0,0.0,0.0,0.0,0.0,0.0,0.0,0.0,0.0,0.0,0.0,0.0,0.0,0.0,0.0,0.0,0.0,0.0,0.0,0.0,0.0,0.0,0.0,0.0,0.0,0.0,0.0,0.0,0.0,0.0,0.0,0.0,0.0,0.0,0.0,0.0,0.0,0.0,0.0,0.0,0.0,0.0,0.0,0.0,0.0,0.0,0.0,0.0,0.0,0.0,0.0,0.0,0.0,0.0,0.0,0.0,0.0,0.0,0.0,0.0,0.0,0.0,0.0,1.7819,2.2485,2.3853,2.4538,2.475,2.3486,2.13,1.8037,0.0,0.0,0.0,0.0,0.0,0.0,0.0,0.0,0.0,0.0,0.0,0.0,0.0,0.0]}]]]